.

MPMG - Transparência

Contracheque - Remuneração de todos os servidores ativos - Pós Resolução CNMP 200/2019

Período: 2024 - Janeiro

Ordem Matrícula Nome Cargo Efetivo Lotação Rendimentos Descontos Rendimento Líquido Total *14 Data de Referência
Remuneração básica Remuneração eventual ou Temporária Outras Remunerações Temporárias *7 Verbas Indenizatórias *8 Total de Rendimentos Brutos *9 Obrigatórios Legais Outros Descontos Eventuais Total de descontos *13
Remuneração do Cargo Efetivo *1 Outras Verbas Remuneratórias *2 Função de Confiança ou Cargo em Comissão *3 Gratificação Natalina *4 Férias 1/3 Constitucional *5 Abono de Permanência *6 Contribuição Previdenciária *10 Imposto de Renda *11 Retenção por Teto Constitucional *12
1 498900 ABDON MARCIO BARBOSA DA SILVA OFICIAL DO MP ABRE CAMPO - COMARCA; ABRE CAMPO-PJ-01PJ 7.506,70 1.501,34 0,00 0,00 0,00 0,00 0,00 8.708,47 17.716,51 1.214,11 1.206,23 0,00 0,00 2.420,34 15.296,17 31/01/2024
2 177800 ADALBERTO MENEZES FARIA SAMORA OFICIAL DO MP BELO HORIZONTE - COMARCA; DIRET DE PLANOS PROJETOS E PROGRAMAS INST 22.191,68 8.876,67 0,00 0,00 0,00 0,00 0,00 8.796,67 39.865,02 4.743,76 6.250,03 0,00 0,00 10.993,79 28.871,23 31/01/2024
3 306400 ADALBERTO MOREIRA GONCALVES ANALISTA DO MP BELO HORIZONTE - COMARCA; BH-24PJ JUIZO REG BARREIRO-SECRETARIA 23.070,31 6.921,09 0,00 0,00 0,00 0,00 0,00 8.581,28 38.572,68 4.571,45 6.105,53 0,00 0,00 10.676,98 27.895,70 31/01/2024
4 179300 ADENISE AUXILIADORA SOUZA SAD OFICIAL DO MP BARBACENA - COMARCA; BARBACENA-PJ-06PJ 21.346,53 8.538,61 0,00 0,00 0,00 0,00 0,00 8.560,03 38.445,17 4.554,44 5.976,71 0,00 0,00 10.531,15 27.914,02 31/01/2024
5 272200 ADILSON BATISTA ORNELAS OFICIAL DO MP LAVRAS - COMARCA; LAVRAS-PJ-SECRETARIA 7.506,70 2.252,01 0,00 0,00 0,00 0,00 0,00 8.828,57 18.587,28 1.334,22 1.379,64 0,00 0,00 2.713,86 15.873,42 31/01/2024
6 380100 ADILSON GONCALVES DE MELO JUNIOR ANALISTA DO MP ARAXÁ - COMARCA; ARAXA-PJ-05PJ 17.005,40 5.101,62 0,00 0,00 0,00 0,00 0,00 8.772,97 30.879,99 3.309,94 4.179,96 0,00 0,00 7.489,90 23.390,09 31/01/2024
7 148800 ADILSON JANUARIO OFICIAL DO MP BELO HORIZONTE - COMARCA; BH-22PJ PES COM DEF E IDOSOS-SECRETARIA 23.070,31 18.456,25 0,00 0,00 0,00 5.787,22 0,00 7.788,27 55.102,05 5.787,22 9.039,29 3.936,60 0,00 18.763,11 36.338,94 31/01/2024
8 322601 ADMILSON SILVEIRA ANALISTA DO MP SAO JOAO DO PARAISO COMARCA; SAO JOAO DO PARAISO-PJ-UNPJ 12.343,61 2.468,72 0,00 0,00 0,00 0,00 0,00 9.654,51 24.466,84 2.142,79 2.599,16 0,00 0,00 4.741,95 19.724,89 31/01/2024
9 333700 ADRIANA ABRITTA TEIXEIRA OFICIAL DO MP BELO HORIZONTE - COMARCA; DIRET DE PESSOAL DO MINISTERIO PUBLICO - DPMP 12.343,61 3.703,08 0,00 0,00 0,00 0,00 0,00 8.359,81 24.406,50 2.340,29 2.884,30 0,00 0,00 5.224,59 19.181,91 31/01/2024
10 468500 ADRIANA APARECIDA FIRMINO ANALISTA DO MP CARATINGA - COMARCA; CARATINGA-PJ-04PJ 12.343,61 2.468,72 0,00 0,00 0,00 0,00 0,00 8.507,93 23.320,26 2.142,79 2.547,03 0,00 0,00 4.689,82 18.630,44 31/01/2024
11 326100 ADRIANA AUGUSTA AMARAL BELO OFICIAL DO MP BARBACENA - COMARCA; BARBACENA-PJ-05PJ 12.343,61 3.703,08 0,00 0,00 0,00 0,00 0,00 8.359,81 24.406,50 2.340,29 2.780,03 0,00 0,00 5.120,32 19.286,18 31/01/2024
12 605700 ADRIANA COSTA LIRA OFICIAL DO MP BELO HORIZONTE - COMARCA; CAO-EDUCACAO 7.506,70 1.501,34 4.020,58 0,00 0,00 0,00 0,00 8.836,74 21.865,36 1.214,11 2.364,03 0,00 0,00 3.578,14 18.287,22 31/01/2024
13 541100 ADRIANA CRISTINA DE OLIVEIRA OFICIAL DO MP EXTREMA - COMARCA; EXTREMA-PJ-01PJ 7.506,70 1.501,34 0,00 0,00 0,00 0,00 0,00 8.708,47 17.716,51 1.214,11 1.206,23 0,00 0,00 2.420,34 15.296,17 31/01/2024
14 254800 ADRIANA DAS GRACAS FERNANDES ANALISTA DO MP UBERABA - COMARCA; UBERABA-PJ-07PJ 23.070,31 18.456,25 0,00 0,00 0,00 0,00 0,00 8.597,39 50.123,95 5.787,22 7.447,80 3.936,60 0,00 17.171,62 32.952,33 31/01/2024
15 217400 ADRIANA DE CARVALHO CATAO BRAGA ASSESSOR ADMINISTRATIVO III BELO HORIZONTE - COMARCA; DIV FISCAL ADM CONT TERCEIRIZACAO 0,00 4.343,56 10.858,90 0,00 0,00 0,00 0,00 2.583,00 17.785,46 908,85 3.589,73 0,00 0,00 4.498,58 13.286,88 31/01/2024
16 434600 ADRIANA FERREIRA DA SILVA ANALISTA DO MP BELO HORIZONTE - COMARCA; BH-14PJ DEFESA CONSUMIDOR-GAB 112PJ 18.130,77 3.626,15 0,00 0,00 0,00 0,00 0,00 8.674,94 30.431,86 3.253,93 4.203,36 0,00 0,00 7.457,29 22.974,57 31/01/2024
17 499800 ADRIANA FERREIRA TIAGO OFICIAL DO MP SALINAS - COMARCA; SALINAS-PJ-02PJ 10.516,49 2.103,30 0,00 0,00 0,00 0,00 0,00 8.777,50 21.397,29 1.791,99 1.988,41 0,00 0,00 3.780,40 17.616,89 31/01/2024
18 543400 ADRIANA GUIMARAES NUNES DE PAULA ANALISTA DO MP PATROCÍNIO - COMARCA; PATROCINIO-PJ-01PJ 12.343,61 2.468,72 0,00 0,00 0,00 0,00 0,00 4.876,16 19.688,49 1.018,60 2.711,26 0,00 0,00 3.729,86 15.958,63 31/01/2024
19 471500 ADRIANA HORTA DE CARVALHO RODRIGUES DE SOUSA ANALISTA DO MP BELO HORIZONTE - COMARCA; CAO-FUNDACOES-ASSESSORIA JURIDICA 12.343,61 2.468,72 0,00 0,00 0,00 0,00 0,00 2.583,00 17.395,33 2.142,79 2.547,03 0,00 0,00 4.689,82 12.705,51 31/01/2024
20 480700 ADRIANA MOREIRA DE AVELLAR CEZILIO OFICIAL DO MP BELO HORIZONTE - COMARCA; BH-12PJ JUIZO CRIMINAL-SECRETARIA 7.506,70 1.501,34 4.020,58 0,00 0,00 0,00 0,00 8.836,74 21.865,36 1.214,11 2.259,76 0,00 0,00 3.473,87 18.391,49 31/01/2024
21 326000 ADRIANA PEREIRA CARNEIRO RESENDE OFICIAL DO MP BELO HORIZONTE - COMARCA; BH-25PJ DEFESA DA EDUCACAO-SECRETARIA 12.343,61 3.703,08 0,00 0,00 0,00 0,00 0,00 8.359,81 24.406,50 2.340,29 2.884,30 0,00 0,00 5.224,59 19.181,91 31/01/2024
22 502200 ADRIANA PETRUCCI DAVINA OFICIAL DO MP PATROCÍNIO - COMARCA; PATROCINIO-PJ-01PJ 10.858,90 2.171,78 0,00 0,00 0,00 0,00 0,00 9.984,31 23.014,99 1.857,73 2.187,60 0,00 0,00 4.045,33 18.969,66 31/01/2024
23 201900 ADRIANA REIS PIMENTA OFICIAL DO MP TEÓFILO OTONI - COMARCA; TEOFILO OTONI-PJ-03PJ 21.346,53 10.673,27 0,00 0,00 0,00 0,00 0,00 7.706,17 39.725,97 4.895,99 6.574,09 0,00 0,00 11.470,08 28.255,89 31/01/2024
24 278700 ADRIANA RODRIGUES PINTO COELHO AMARAL ANALISTA DO MP BELO HORIZONTE - COMARCA; CGMP-DIR ESTAGIO PROBATORIO E ORIENT 23.070,31 9.228,12 0,00 0,00 0,00 0,00 0,00 7.750,75 40.049,18 4.940,57 6.638,45 0,00 0,00 11.579,02 28.470,16 31/01/2024
25 468000 ADRIANA SANTOS DE SANTANA MOREIRA ANALISTA DO MP GOVERNADOR VALADARES - COMARCA; GAECO REGIONAL DE GOVERNADOR VALADARES 12.343,61 4.937,44 0,00 0,00 0,00 0,00 0,00 8.804,18 26.085,23 2.537,79 3.065,16 0,00 0,00 5.602,95 20.482,28 31/01/2024
26 194700 ADRIANA TSUKIDE OFICIAL DO MP UBERABA - COMARCA; COORD REG BACIAS PARANAIBA BAIXO RIO GRANDE 21.346,53 8.538,61 0,00 0,00 0,00 0,00 0,00 8.560,03 38.445,17 4.554,44 6.028,85 0,00 0,00 10.583,29 27.861,88 31/01/2024
27 465500 ADRIANO CASSIANO MATOS ANALISTA DO MP ARAXÁ - COMARCA; ARAXA-PJ-02PJ 12.343,61 2.468,72 0,00 0,00 0,00 0,00 0,00 8.507,93 23.320,26 2.142,79 2.599,16 0,00 0,00 4.741,95 18.578,31 31/01/2024
28 500500 ADRIANO DE ALMEIDA SILVA OFICIAL DO MP UBERABA - COMARCA; UBERABA-PJ-12PJ 10.858,90 2.171,78 0,00 0,00 0,00 0,00 0,00 9.984,31 23.014,99 1.857,73 1.605,15 0,00 0,00 3.462,88 19.552,11 31/01/2024
29 187200 ADRIANO DE FREITAS MARON OFICIAL DO MP PONTE NOVA - COMARCA; PONTE NOVA-PJ-03PJ 18.130,77 16.317,70 0,00 0,00 0,00 5.284,58 0,00 7.350,97 47.084,02 5.284,58 8.588,37 0,00 0,00 13.872,95 33.211,07 31/01/2024
30 477900 ADRIANO FERREIRA DE ALMEIDA OFICIAL DO MP TAIOBEIRAS - COMARCA; TAIOBEIRAS-PJ-UNPJ 10.858,90 3.257,67 0,00 0,00 0,00 0,00 0,00 8.794,29 22.910,86 2.031,47 2.334,17 0,00 0,00 4.365,64 18.545,22 31/01/2024
31 269101 ADRIANO PEREIRA SILVA ANALISTA DO MP BELO HORIZONTE - COMARCA; GABINETE DE PROCURADOR DE JUSTIÇA - SALA 913 12.343,61 3.703,08 0,00 0,00 0,00 0,00 0,00 8.359,81 24.406,50 2.340,29 2.727,89 0,00 0,00 5.068,18 19.338,32 31/01/2024
32 414200 ADRIANO RODRIGUES FERNANDES ANALISTA DO MP CARANDAÍ - COMARCA; CARANDAI-PJ-UNPJ 12.343,61 3.703,08 0,00 0,00 0,00 0,00 0,00 8.359,81 24.406,50 2.340,29 2.780,03 0,00 0,00 5.120,32 19.286,18 31/01/2024
33 536700 ADRIELLE COSTA MARIA MOURAO FIGUEIREDO OFICIAL DO MP SERRO - COMARCA; SERRO-PJ-SECRETARIA 7.506,70 1.501,34 0,00 0,00 0,00 0,00 0,00 3.729,58 12.737,62 1.214,11 1.258,37 0,00 0,00 2.472,48 10.265,14 31/01/2024
34 514300 ADRIENE DAMASCENO BRAGA ANALISTA DO MP ALFENAS - COMARCA; ALFENAS-PJ-03PJ 12.343,61 2.468,72 0,00 0,00 0,00 0,00 0,00 8.507,93 23.320,26 2.142,79 2.599,16 0,00 0,00 4.741,95 18.578,31 31/01/2024
35 254600 ADRIENE DOMINGUES COSTA ANALISTA DO MP BELO HORIZONTE - COMARCA; SUPER DE GESTAO DE PESSOAS-LOTACAO TEMPORARIA 23.070,31 9.228,12 0,00 0,00 0,00 0,00 0,00 0,00 32.298,43 4.940,57 6.638,45 0,00 0,00 11.579,02 20.719,41 31/01/2024
36 252001 ADRIENE GOMES BARRETO ANALISTA DO MP BELO HORIZONTE - COMARCA; BH-19PJ SAUDE-SECRETARIA 047PJ 20.533,67 10.266,84 0,00 0,00 0,00 0,00 0,00 8.743,10 39.543,61 4.700,90 6.292,43 0,00 0,00 10.993,33 28.550,28 31/01/2024
37 714800 ADSON GUSTAVO DE OLIVEIRA ASSESSOR PROCURADOR JUSTICA BELO HORIZONTE - COMARCA; GABINETE DE PROCURADOR DE JUSTIÇA - SALA 803 0,00 0,00 8.810,89 0,00 0,00 0,00 0,00 8.574,41 17.385,30 908,85 1.832,05 0,00 0,00 2.740,90 14.644,40 31/01/2024
38 724600 AECIO BRAS SILVA JUNIOR ASSESSOR PROMOTOR JUSTICA BAMBUÍ - COMARCA; BAMBUI-PJ-UNPJ 0,00 0,00 8.810,89 0,00 0,00 0,00 0,00 2.583,00 11.393,89 908,85 1.832,05 0,00 0,00 2.740,90 8.652,99 31/01/2024
39 302500 AGENOR JOSE DA SILVA JUNIOR ANALISTA DO MP JUIZ DE FORA - COMARCA; JUIZ DE FORA-PJ-07PJ 23.070,31 6.921,09 0,00 0,00 0,00 0,00 0,00 9.727,86 39.719,26 4.571,45 5.949,11 0,00 0,00 10.520,56 29.198,70 31/01/2024
40 357500 AILSON WAGNER DE ALENCAR SILVA OFICIAL DO MP BELO HORIZONTE - COMARCA; BH-12PJ JUIZO CRIMINAL-SECRETARIA 15.447,01 7.723,51 0,00 0,00 0,00 0,00 0,00 8.143,92 31.314,44 3.480,10 4.425,63 0,00 0,00 7.905,73 23.408,71 31/01/2024
41 366400 AILTON ALEXSSANDRO ALVES OFICIAL DO MP PARÁ DE MINAS - COMARCA; PARA DE MINAS-PJ-05PJ 12.343,61 4.937,44 0,00 0,00 0,00 0,00 0,00 2.583,00 19.864,05 2.537,79 3.169,44 0,00 0,00 5.707,23 14.156,82 31/01/2024
42 318900 AILTON DE CASTRO RIBEIRO JUNIOR OFICIAL DO MP CANDEIAS - COMARCA; CANDEIAS-PJ-UNPJ 12.343,61 3.703,08 0,00 0,00 0,00 0,00 0,00 8.359,81 24.406,50 2.340,29 2.727,89 0,00 0,00 5.068,18 19.338,32 31/01/2024
43 464400 ALAN MONTEIRO GASPAR ANALISTA DO MP SETE LAGOAS - COMARCA; SETE LAGOAS-PJ-08PJ 12.343,61 2.468,72 0,00 0,00 0,00 0,00 0,00 2.583,00 17.395,33 2.142,79 2.599,16 0,00 0,00 4.741,95 12.653,38 31/01/2024
44 492000 ALANA DE CASTRO FREITAS OFICIAL DO MP BELO HORIZONTE - COMARCA; SECRETARIA DO PROCON-MG 8.264,07 1.652,81 0,00 0,00 0,00 0,00 0,00 8.533,13 18.450,01 1.359,52 1.468,31 0,00 0,00 2.827,83 15.622,18 31/01/2024
45 306700 ALANA MARCIA DE OLIVEIRA OFICIAL DO MP BELO HORIZONTE - COMARCA; DIRETORIA DE ADMINISTRACAO FINANCEIRA 12.343,61 3.703,08 0,00 0,00 0,00 0,00 0,00 8.359,81 24.406,50 2.340,29 2.884,30 0,00 0,00 5.224,59 19.181,91 31/01/2024
46 324500 ALANMAR COUTINHO COSTA OFICIAL DO MP LEOPOLDINA - COMARCA; LEOPOLDINA-PJ-02PJ 12.343,61 3.703,08 0,00 0,00 0,00 0,00 0,00 8.359,81 24.406,50 2.340,29 2.780,03 0,00 0,00 5.120,32 19.286,18 31/01/2024
47 407300 ALBERTO LUIZ SOARES DE OLIVEIRA ANALISTA DO MP BELO HORIZONTE - COMARCA; DIRETORIA DE PROJETOS DE EDIFICACOES 18.130,77 5.439,23 0,00 0,00 0,00 0,00 0,00 2.583,00 26.153,00 3.544,02 4.622,18 0,00 0,00 8.166,20 17.986,80 31/01/2024
48 118200 ALBERTO PEREIRA DA COSTA OFICIAL DO MP DORES DO INDAIÁ - COMARCA; DORES DO INDAIA-PJ-UNPJ 23.070,31 20.763,28 0,00 0,00 0,00 5.787,22 0,00 7.788,26 57.409,07 5.787,22 8.827,81 6.243,63 0,00 20.858,66 36.550,41 31/01/2024
49 282400 ALCILENE MARISE DE ARAUJO ANALISTA DO MP BELO HORIZONTE - COMARCA; BH-23PJ INF-FISC MED SOC FEC 23.070,31 9.228,12 0,00 0,00 0,00 0,00 0,00 2.583,00 34.881,43 4.940,57 6.586,31 0,00 0,00 11.526,88 23.354,55 31/01/2024
50 396400 ALCIONE DE FREITAS E SILVA ANALISTA DO MP BELO HORIZONTE - COMARCA; ASSESS JUR DO CONS SUPERIOR DO MINISTERIO PUB 20.533,67 10.266,84 0,00 0,00 0,00 0,00 0,00 2.583,00 33.383,51 4.700,90 6.292,43 0,00 0,00 10.993,33 22.390,18 31/01/2024
51 657400 ALCIONE MARIA FERREIRA ASSESSOR PROCURADOR JUSTICA BELO HORIZONTE - COMARCA; GABINETE DE PROCURADOR DE JUSTICA - SALA 313 0,00 0,00 8.810,89 0,00 0,00 0,00 0,00 3.729,58 12.540,47 908,85 1.832,05 0,00 0,00 2.740,90 9.799,57 31/01/2024
52 161600 ALCIONE NERY SOUZA ASSESSOR ADMINISTRATIVO III BELO HORIZONTE - COMARCA; BH-18PJ DIREITOS HUMANOS-SECRETARIA 0,00 5.429,45 10.858,90 0,00 0,00 0,00 0,00 2.583,00 18.871,35 908,85 3.888,35 0,00 0,00 4.797,20 14.074,15 31/01/2024
53 376000 ALDA GOMES LANA OFICIAL DO MP BELO HORIZONTE - COMARCA; BH-18PJ VIOLENCIA DOMESTICA-SECRETARIA 12.343,61 3.703,08 0,00 0,00 0,00 0,00 0,00 8.359,81 24.406,50 2.340,29 2.832,16 0,00 0,00 5.172,45 19.234,05 31/01/2024
54 148000 ALDA MARTINS SIMOES OFICIAL DO MP BELO HORIZONTE - COMARCA; BH-23PJ CIVEL- FISC ENT AB POL 23.070,31 16.149,22 0,00 0,00 0,00 0,00 0,00 2.583,00 41.802,53 5.787,22 7.711,41 1.629,57 0,00 15.128,20 26.674,33 31/01/2024
55 318400 ALDO CREPALDI JUNIOR OFICIAL DO MP BELO HORIZONTE - COMARCA; DIVISAO DE MATERIAIS 12.343,61 3.703,08 0,00 0,00 0,00 0,00 0,00 8.359,81 24.406,50 2.340,29 2.832,16 0,00 0,00 5.172,45 19.234,05 31/01/2024
56 604500 ALENIZE APARECIDA RODRIGUES HENRIQUE OFICIAL DO MP RIO NOVO - COMARCA; RIO NOVO-PJ-SECRETARIA 7.506,70 1.501,34 0,00 0,00 0,00 0,00 0,00 2.583,00 11.591,04 1.214,11 1.258,37 0,00 0,00 2.472,48 9.118,56 31/01/2024
57 197900 ALESSA DE SOUSA E SILVA OFICIAL DO MP OLIVEIRA - COMARCA; OLIVEIRA-PJ-02PJ 22.191,68 8.876,67 0,00 0,00 0,00 0,00 0,00 8.796,67 39.865,02 4.743,76 6.250,03 0,00 0,00 10.993,79 28.871,23 31/01/2024
58 428500 ALESSANDRA ALVES DINIZ OFICIAL DO MP BELO HORIZONTE - COMARCA; CENTRAL DE APOIO TECNICO-SECRETARIA 10.858,90 5.429,45 0,00 0,00 0,00 0,00 0,00 8.446,81 24.735,16 2.378,96 2.940,12 0,00 0,00 5.319,08 19.416,08 31/01/2024
59 286801 ALESSANDRA BOTELHO JUNQUEIRA DE MENEZES ANALISTA DO MP PASSOS - COMARCA; PASSOS-PJ-05PJ 18.720,84 7.488,34 0,00 0,00 0,00 0,00 0,00 3.729,58 29.938,76 3.966,29 5.023,29 0,00 0,00 8.989,58 20.949,18 31/01/2024
60 307000 ALESSANDRA CRISTINA SANTOS MENDES ANALISTA DO MP BELO HORIZONTE - COMARCA; BH-18PJ VIOLENCIA DOMESTICA-SECRETARIA 21.346,53 6.403,96 0,00 0,00 0,00 0,00 0,00 8.133,10 35.883,59 4.212,90 5.535,74 0,00 0,00 9.748,64 26.134,95 31/01/2024
61 264400 ALESSANDRA DE SOUZA SANTOS ANALISTA DO MP BELO HORIZONTE - COMARCA; SECRETARIA DE ASSUNTOS INTERNACIONAIS 23.070,31 11.535,16 0,00 0,00 0,00 0,00 0,00 2.583,00 37.188,47 5.309,70 7.171,38 0,00 0,00 12.481,08 24.707,39 31/01/2024
62 441500 ALESSANDRA DRUMMOND DE FIGUEIREDO ROSSI ANALISTA DO MP BELO HORIZONTE - COMARCA; DIRETORIA DE PROJETOS DE EDIFICACOES 12.343,61 2.468,72 0,00 0,00 0,00 0,00 0,00 2.583,00 17.395,33 2.142,79 2.599,16 0,00 0,00 4.741,95 12.653,38 31/01/2024
63 524000 ALESSANDRA LUCIOLI DE BARROS ANALISTA DO MP BELO HORIZONTE - COMARCA; BH-19PJ SAUDE--SECRETARIA 12.343,61 2.468,72 0,00 0,00 0,00 0,00 0,00 8.507,93 23.320,26 2.142,79 2.547,03 0,00 0,00 4.689,82 18.630,44 31/01/2024
64 479900 ALESSANDRA MARA ANDRADE DE FARIA OFICIAL DO MP UBERABA - COMARCA; UBERABA-PJ-09PJ 10.858,90 2.171,78 0,00 0,00 0,00 0,00 0,00 8.837,73 21.868,41 1.857,73 2.187,60 0,00 0,00 4.045,33 17.823,08 31/01/2024
65 226700 ALESSANDRA MARA VASCONCELOS REZENDE OFICIAL DO MP CONSELHEIRO LAFAIETE - COMARCA; CONSELHEIRO LAFAIETE-PJ-07PJ 18.130,77 7.252,31 0,00 0,00 0,00 0,00 0,00 8.674,94 34.058,02 3.834,11 5.041,01 0,00 0,00 8.875,12 25.182,90 31/01/2024
66 196500 ALESSANDRA MARIA RIBEIRO LUCIANO OFICIAL DO MP RIO PARANAÍBA - COMARCA; RIO PARANAIBA-PJ-UNPJ 22.191,68 11.095,84 0,00 0,00 0,00 0,00 0,00 2.583,00 35.870,52 5.098,82 6.762,66 0,00 0,00 11.861,48 24.009,04 31/01/2024
67 651700 ALESSANDRA PROFIRIO SOUZA OFICIAL DO MP NOVA ERA - COMARCA; NOVA ERA-PJ-UNPJ 6.603,76 660,38 0,00 0,00 0,00 0,00 0,00 8.684,88 15.949,02 937,69 802,68 0,00 0,00 1.740,37 14.208,65 31/01/2024
68 384900 ALESSANDRA RODRIGUES ANALISTA DO MP VISCONDE DO RIO BRANCO - COMARCA; VISCONDE DO RIO BRANCO-PJ-03PJ 20.533,67 6.160,10 0,00 0,00 0,00 0,00 0,00 9.068,33 35.762,10 4.043,82 5.239,50 0,00 0,00 9.283,32 26.478,78 31/01/2024
69 390000 ALESSANDRA SPADANO MASSARA VASCONCELOS OFICIAL DO MP BETIM - COMARCA; BETIM-PJ-10PJ 12.343,61 3.703,08 0,00 0,00 0,00 0,00 0,00 2.583,00 18.629,69 2.340,29 2.884,30 0,00 0,00 5.224,59 13.405,10 31/01/2024
70 426500 ALESSANDRO CAMPOS DE PAIVA ANALISTA DO MP BELO HORIZONTE - COMARCA; DIR CRIACAO E MIDIAS 18.720,84 3.744,17 0,00 0,00 0,00 0,00 0,00 2.583,00 25.048,01 3.367,22 4.366,93 0,00 0,00 7.734,15 17.313,86 31/01/2024
71 623400 ALESSANDRO DE OLIVEIRA REZENDE ANALISTA DO MP BELO HORIZONTE - COMARCA; DIRET DE INFORMACAO E CONHECIMENTO-DINC/CEAF 12.343,61 1.234,36 0,00 0,00 0,00 0,00 0,00 8.557,31 22.135,28 1.945,30 2.314,02 0,00 0,00 4.259,32 17.875,96 31/01/2024
72 420600 ALESSANDRO SILVA OFICIAL DO MP VISCONDE DO RIO BRANCO - COMARCA; VISCONDE DO RIO BRANCO-PJ-02PJ 11.954,43 4.781,77 0,00 0,00 0,00 0,00 0,00 8.608,03 25.344,23 2.450,61 2.579,84 0,00 0,00 5.030,45 20.313,78 31/01/2024
73 375301 ALETHEIA PATRICIA ASSIS MORAIS MOREIRA ANALISTA DO MP ITABIRA - COMARCA; ITABIRA-PJ-02PJ 12.343,61 3.703,08 0,00 0,00 0,00 0,00 0,00 9.506,39 25.553,08 2.340,29 2.832,16 0,00 0,00 5.172,45 20.380,63 31/01/2024
74 382300 ALEX CARVALHO LIMA ANALISTA DO MP UBERLÂNDIA - COMARCA; UBERLANDIA-PJ-14PJ 20.533,67 6.160,10 0,00 0,00 0,00 0,00 0,00 9.068,33 35.762,10 4.043,82 5.343,78 0,00 0,00 9.387,60 26.374,50 31/01/2024
75 195201 ALEX DE CASTRO PEREIRA ANALISTA DO MP UBERABA - COMARCA; UBERABA-PJ-09PJ 23.070,31 9.228,12 0,00 0,00 0,00 0,00 0,00 7.750,75 40.049,18 4.940,57 6.638,45 0,00 0,00 11.579,02 28.470,16 31/01/2024
76 358900 ALEX DE PAULA LANZA ASSESSOR ADMINISTRATIVO IV BELO HORIZONTE - COMARCA; DIR CONTEUDO JORNALISTICO 0,00 0,00 14.488,22 0,00 0,00 0,00 0,00 3.729,58 18.217,80 908,85 3.393,32 0,00 0,00 4.302,17 13.915,63 31/01/2024
77 178400 ALEX RODRIGO SALDANHA GUIMARAES OFICIAL DO MP BELO HORIZONTE - COMARCA; DIRETORIA DE SISTEMAS DE INFORMACAO 7.506,70 3.002,68 0,00 0,00 0,00 0,00 0,00 2.583,00 13.092,38 1.454,32 1.605,18 0,00 0,00 3.059,50 10.032,88 31/01/2024
78 413500 ALEX VILELA OLIVEIRA ANALISTA DO MP GOVERNADOR VALADARES - COMARCA; COORD REG PJ DEF EDU DIR CRIANCA ADOL RIODOCE 18.720,84 5.616,25 0,00 0,00 0,00 0,00 0,00 8.423,90 32.760,99 3.666,76 4.799,38 0,00 0,00 8.466,14 24.294,85 31/01/2024
79 264300 ALEXANDRA FATIMA SARAIVA SOARES ANALISTA DO MP BELO HORIZONTE - COMARCA; CENTRAL DE APOIO TECN-SETOR DE MEIO AMBIENTE 23.070,31 9.228,12 0,00 0,00 0,00 0,00 0,00 2.583,00 34.881,43 4.940,57 6.638,45 0,00 0,00 11.579,02 23.302,41 31/01/2024
80 488000 ALEXANDRA LARA PAIS DE CARVALHO ANALISTA DO MP SABARÁ - COMARCA; SABARA-PJ-04PJ 12.343,61 2.468,72 0,00 0,00 0,00 0,00 0,00 8.507,93 23.320,26 2.142,79 2.442,75 0,00 0,00 4.585,54 18.734,72 31/01/2024
81 256300 ALEXANDRA SANTOS GOMES OFICIAL DO MP BELO HORIZONTE - COMARCA; DIRETORIA GESTAO COMPRAS LICITACOES 12.343,61 4.937,44 0,00 0,00 0,00 0,00 0,00 2.583,00 19.864,05 2.537,79 3.169,44 0,00 0,00 5.707,23 14.156,82 31/01/2024
82 403300 ALEXANDRE AUGUSTO RODRIGUES ANALISTA DO MP ÁGUAS FORMOSAS - COMARCA; AGUAS FORMOSAS-PJ-UNPJ 12.343,61 3.703,08 0,00 0,00 0,00 0,00 0,00 4.876,16 20.922,85 2.340,29 2.884,30 0,00 0,00 5.224,59 15.698,26 31/01/2024
83 640900 ALEXANDRE BARBOSA MASCARENHAS ANALISTA DO MP BETIM - COMARCA; BETIM-PJ-02PJ 9.699,77 969,98 0,00 0,00 0,00 0,00 0,00 2.583,00 13.252,75 1.018,60 1.443,97 0,00 0,00 2.462,57 10.790,18 31/01/2024
84 311700 ALEXANDRE BARCELOS RESENDE OFICIAL DO MP BELO HORIZONTE - COMARCA; BH-17PJ PATRIMONIO PUBLICO-SECRETARIA 11.212,54 3.363,76 0,00 0,00 0,00 0,00 534,46 9.560,10 24.670,86 2.105,03 2.544,64 0,00 0,00 4.649,67 20.021,19 31/01/2024
85 285600 ALEXANDRE CAMPOS DE OLIVEIRA OFICIAL DO MP UBERABA - COMARCA; COORD REG BACIAS PARANAIBA BAIXO RIO GRANDE 12.343,61 4.937,44 0,00 0,00 0,00 0,00 0,00 8.804,18 26.085,23 2.537,79 3.013,02 0,00 0,00 5.550,81 20.534,42 31/01/2024
86 509200 ALEXANDRE CAPUANO DE REZENDE ANALISTA DO MP BELO HORIZONTE - COMARCA; BH-07PJ 03 TRIBUNAL DO JURI-GAB 061PJ 12.343,61 2.468,72 0,00 0,00 0,00 0,00 0,00 2.583,00 17.395,33 2.142,79 2.547,03 0,00 0,00 4.689,82 12.705,51 31/01/2024
87 229400 ALEXANDRE CARLOS BOTREL SUPERINTENDENTE BELO HORIZONTE - COMARCA; SUPERINTENDENCIA DOS ORGAOS COLEGIADOS 28.013,39 11.205,36 0,00 0,00 0,00 0,00 0,00 8.597,39 47.816,14 3.966,29 8.212,24 1.628,79 0,00 13.807,32 34.008,82 31/01/2024
88 411900 ALEXANDRE CARVALHO SANTOS RIBEIRO ANALISTA DO MP OLIVEIRA - COMARCA; OLIVEIRA-PJ-02PJ 18.720,84 5.616,25 0,00 0,00 0,00 0,00 0,00 9.570,48 33.907,57 3.666,76 4.799,38 0,00 0,00 8.466,14 25.441,43 31/01/2024
89 641600 ALEXANDRE DA SILVA ASSUNCAO OFICIAL DO MP BELO HORIZONTE - COMARCA; SERVICO MEDICO-DEPTO PERIC MEDICA SAUDE OCUP 6.818,83 681,88 0,00 0,00 0,00 0,00 0,00 3.729,58 11.230,29 974,36 909,79 0,00 0,00 1.884,15 9.346,14 31/01/2024
90 201200 ALEXANDRE DE ALENCAR CORDEIRO OFICIAL DO MP ÁGUAS FORMOSAS - COMARCA; AGUAS FORMOSAS-PJ-UNPJ 7.506,70 5.254,69 0,00 0,00 0,00 0,00 0,00 8.708,47 21.469,86 1.814,64 2.125,40 0,00 0,00 3.940,04 17.529,82 31/01/2024
91 288200 ALEXANDRE DE VASCONCELOS COSTA KER ANALISTA DO MP BELO HORIZONTE - COMARCA; BH-03PJ EMPRESARIAL-SECRETARIA 23.070,31 9.228,12 0,00 0,00 0,00 0,00 0,00 7.750,75 40.049,18 4.940,57 6.586,31 0,00 0,00 11.526,88 28.522,30 31/01/2024
92 445000 ALEXANDRE DIOGENES OLIVEIRA ANALISTA DO MP SALINAS - COMARCA; SALINAS-PJ-02PJ 14.960,00 2.992,00 0,00 0,00 0,00 0,00 0,00 3.729,58 21.681,58 2.645,14 3.324,43 0,00 0,00 5.969,57 15.712,01 31/01/2024
93 463400 ALEXANDRE LEAL WINKELSTROTER ANALISTA DO MP TEÓFILO OTONI - COMARCA; TEOFILO OTONI-PJ-04PJ 12.343,61 3.209,34 0,00 0,00 0,00 0,00 0,00 8.804,18 24.357,13 2.261,29 2.770,25 0,00 0,00 5.031,54 19.325,59 31/01/2024
94 615700 ALEXANDRE LUIZ DE CASTRO MACIEL ANALISTA DO MP BELO HORIZONTE - COMARCA; BH-08PJ JUIZADO ESPECIAL-GAB 163PJ 12.343,61 1.974,98 0,00 0,00 0,00 0,00 0,00 9.457,02 23.775,61 2.063,80 2.432,97 0,00 0,00 4.496,77 19.278,84 31/01/2024
95 356900 ALEXANDRE MOISES MENDONCA E ARAUJO OFICIAL DO MP UBERABA - COMARCA; UBERABA-PJ-13PJ 10.516,49 3.154,95 0,00 0,00 0,00 0,00 0,00 3.729,58 17.401,02 1.960,25 2.335,62 0,00 0,00 4.295,87 13.105,15 31/01/2024
96 633300 ALEXANDRE NONATO MARTINS OFICIAL DO MP CAMPESTRE - COMARCA; CAMPESTRE-PJ-UNPJ 6.818,83 681,88 0,00 0,00 0,00 0,00 0,00 8.583,57 16.084,28 974,36 857,65 0,00 0,00 1.832,01 14.252,27 31/01/2024
97 469900 ALEXANDRE PEREIRA GUEDES ANALISTA DO MP CATAGUASES - COMARCA; CATAGUASES-PJ-03PJ 12.343,61 2.468,72 0,00 0,00 0,00 0,00 0,00 8.507,93 23.320,26 2.142,79 2.599,16 0,00 0,00 4.741,95 18.578,31 31/01/2024
98 208700 ALEXANDRE RESENDE FRAGA ANALISTA DO MP BELO HORIZONTE - COMARCA; BH-19PJ SAUDE-SECRETARIA 130PJ 23.070,31 9.228,12 0,00 0,00 0,00 0,00 473,71 7.750,75 40.522,89 4.940,57 6.482,04 0,00 0,00 11.422,61 29.100,28 31/01/2024
99 216401 ALEXANDRE RIBEIRO DE LIMA MAIORINO ANALISTA DO MP UBERABA - COMARCA; UBERABA-PJ-03PJ 23.070,31 9.228,12 0,00 0,00 0,00 0,00 0,00 7.750,75 40.049,18 4.940,57 6.586,31 0,00 0,00 11.526,88 28.522,30 31/01/2024
100 475100 ALEXANDRE TEOTONIO COSTA ANALISTA DO MP ARAGUARI - COMARCA; ARAGUARI-PJ-01PJ 12.343,61 2.468,72 0,00 0,00 0,00 0,00 0,00 8.507,93 23.320,26 2.142,79 2.494,89 0,00 0,00 4.637,68 18.682,58 31/01/2024
101 339000 ALEXANDRE VITOR CARDOSO OFICIAL DO MP BELO HORIZONTE - COMARCA; BH-23PJ INFRACIONAL-SEC EXP 7.506,70 2.252,01 0,00 0,00 0,00 0,00 0,00 8.828,57 18.587,28 1.334,22 1.275,36 0,00 0,00 2.609,58 15.977,70 31/01/2024
102 623100 ALEXSANDER BATISTA AGUIAR COORDENADOR II BELO HORIZONTE - COMARCA; DIRETORIA DE SUPORTE E MANUTENCAO 20.533,67 2.053,37 0,00 0,00 0,00 0,00 0,00 9.150,47 31.737,51 1.945,30 4.635,11 0,00 0,00 6.580,41 25.157,10 31/01/2024
103 513300 ALFSON MIRANDA BRAGA ANALISTA DO MP BELO HORIZONTE - COMARCA; BH-12PJ JUIZO CRIMINAL-GAB 087PJ 12.343,61 2.468,72 0,00 0,00 0,00 0,00 0,00 2.583,00 17.395,33 2.142,79 2.599,16 0,00 0,00 4.741,95 12.653,38 31/01/2024
104 618400 ALICE MAGALHAES MACEDO DE CARVALHO ANALISTA DO MP IPATINGA - COMARCA; IPATINGA-PJ-10PJ 12.343,61 1.234,36 0,00 0,00 0,00 0,00 0,00 9.703,89 23.281,86 1.945,30 2.314,02 0,00 0,00 4.259,32 19.022,54 31/01/2024
105 707000 ALICE MARIA RIBEIRO DINIZ ASSESSOR PROMOTOR JUSTICA BELO HORIZONTE - COMARCA; PROC JUST ATUACAO TRIBUNAIS SUPERIORES-GAB003 0,00 0,00 8.810,89 0,00 0,00 0,00 0,00 8.574,41 17.385,30 908,85 1.832,05 0,00 0,00 2.740,90 14.644,40 31/01/2024
106 471000 ALICE TITONELI MOREIRA ANALISTA DO MP MIRADOURO - COMARCA; MIRADOURO-PJ-UNPJ 12.343,61 2.468,72 0,00 0,00 0,00 0,00 0,00 3.729,58 18.541,91 2.142,79 2.494,89 0,00 0,00 4.637,68 13.904,23 31/01/2024
107 731600 ALICIA PAULA RODRIGUES DE LIMA ASSESSOR PROMOTOR JUSTICA TIROS - COMARCA; TIROS-PJ-UNPJ 0,00 0,00 8.810,89 0,00 0,00 0,00 0,00 2.583,00 11.393,89 908,85 1.832,05 0,00 0,00 2.740,90 8.652,99 31/01/2024
108 725800 ALINE ALBIERI FRANCISCO ASSESSOR PROMOTOR JUSTICA BELO HORIZONTE - COMARCA; CAO-ORDEM ECONOMICA E TRIBUTARIA-ASSESS TECN 0,00 0,00 8.810,89 0,00 0,00 0,00 484,60 7.869,53 17.165,02 908,85 1.832,05 0,00 0,00 2.740,90 14.424,12 31/01/2024
109 733200 ALINE APARECIDA DO PRADO TERRITO ASSESSOR ADMINISTRATIVO II BELO HORIZONTE - COMARCA; ESCRITORIO DE PROTECAO DE DADOS PESSOAIS 0,00 0,00 7.506,70 0,00 0,00 0,00 0,00 2.583,00 10.089,70 908,85 1.473,40 0,00 0,00 2.382,25 7.707,45 31/01/2024
110 622400 ALINE BALBINO PORTUGAL LOPES ANALISTA DO MP TRÊS PONTAS - COMARCA; TRES PONTAS-PJ-03PJ 12.343,61 1.234,36 0,00 0,00 0,00 0,00 0,00 9.703,89 23.281,86 1.945,30 2.314,02 0,00 0,00 4.259,32 19.022,54 31/01/2024
111 373000 ALINE BOTELHO RESENDE OFICIAL DO MP JUIZ DE FORA - COMARCA; JUIZ DE FORA-PJ-22PJ 12.343,61 3.703,08 0,00 0,00 0,00 0,00 0,00 2.583,00 18.629,69 2.340,29 2.884,30 0,00 0,00 5.224,59 13.405,10 31/01/2024
112 758600 ALINE BRAGA MESSIAS ASSESSOR PROMOTOR JUSTICA BELO HORIZONTE - COMARCA; BH-02PJ FAMILIA 0,00 0,00 6.461,32 0,00 0,00 0,00 0,00 2.043,54 8.504,86 908,85 1.037,57 0,00 0,00 1.946,42 6.558,44 31/01/2024
113 699800 ALINE CRISTINA DE OLIVEIRA AMARAL BARBOSA ASSESSOR PROCURADOR JUSTICA BELO HORIZONTE - COMARCA; GABINETE DE PROCURADOR DE JUSTIÇA - SALA 904 0,00 0,00 8.810,89 0,00 0,00 0,00 0,00 2.583,00 11.393,89 908,85 1.727,78 0,00 0,00 2.636,63 8.757,26 31/01/2024
114 407700 ALINE CRISTINA RODRIGUES PEREIRA COORDENADOR II BELO HORIZONTE - COMARCA; DIRETORIA DE PROJETOS DE EDIFICACOES 20.533,67 6.160,10 0,00 0,00 0,00 0,00 0,00 7.921,75 34.615,52 2.340,29 5.812,25 0,00 0,00 8.152,54 26.462,98 31/01/2024
115 193100 ALINE CRISTINA SENA OLIVEIRA OFICIAL DO MP UBERLÂNDIA - COMARCA; UBERLANDIA-PJ-03PJ 21.346,53 8.538,61 0,00 0,00 0,00 0,00 0,00 9.706,61 39.591,75 4.554,44 6.028,85 0,00 0,00 10.583,29 29.008,46 31/01/2024
116 554200 ALINE CRISTINA SILVA SOUZA OFICIAL DO MP TIROS - COMARCA; TIROS-PJ-UNPJ 7.506,70 1.501,34 0,00 0,00 0,00 0,00 0,00 2.583,00 11.591,04 1.214,11 1.258,37 0,00 0,00 2.472,48 9.118,56 31/01/2024
117 505500 ALINE DA CUNHA MARREIROS OLIVEIRA ANALISTA DO MP EUGENÓPOLIS - COMARCA; EUGENOPOLIS-PJ-UNPJ 12.343,61 2.468,72 0,00 0,00 0,00 0,00 0,00 4.876,16 19.688,49 2.142,79 2.547,03 0,00 0,00 4.689,82 14.998,67 31/01/2024
118 433500 ALINE DE MELO QUEIROZ OFICIAL DO MP BELO HORIZONTE - COMARCA; ASSESSORIA JURIDICA DO PROCON-MG 12.343,61 2.468,72 4.020,58 0,00 0,00 0,00 0,00 3.729,58 22.562,49 2.142,79 3.704,82 0,00 0,00 5.847,61 16.714,88 31/01/2024
119 691100 ALINE DE MELO SOUZA ASSESSOR PROCURADOR JUSTICA BELO HORIZONTE - COMARCA; GABINETE DE PROCURADOR DE JUSTIÇA - SALA 401 0,00 0,00 8.810,89 0,00 0,00 0,00 0,00 2.583,00 11.393,89 908,85 1.832,05 0,00 0,00 2.740,90 8.652,99 31/01/2024
120 542700 ALINE DE SOUSA ALBINO ANALISTA DO MP CONTAGEM - COMARCA; CONTAGEM-PJ-09PJ 12.343,61 2.468,72 0,00 0,00 0,00 0,00 0,00 8.507,93 23.320,26 2.142,79 2.599,16 0,00 0,00 4.741,95 18.578,31 31/01/2024
121 330000 ALINE DIORIO MAYRINK OFICIAL DO MP BELO HORIZONTE - COMARCA; SUPER DE GESTAO DE PESSOAS-LOTACAO TEMPORARIA 10.015,59 2.003,12 0,00 0,00 0,00 0,00 0,00 8.832,73 20.851,44 1.695,82 1.953,83 0,00 0,00 3.649,65 17.201,79 31/01/2024
122 499000 ALINE FERREIRA LOPES ANALISTA DO MP TEÓFILO OTONI - COMARCA; TEOFILO OTONI-PJ-09PJ 12.343,61 2.468,72 0,00 0,00 0,00 0,00 0,00 8.507,93 23.320,26 2.142,79 2.547,03 0,00 0,00 4.689,82 18.630,44 31/01/2024
123 405300 ALINE LAIA CARDOZO SUPERINTENDENTE BELO HORIZONTE - COMARCA; SUPERINTENDENCIA LOGISTICA SERVICOS 28.013,39 8.404,02 0,00 0,00 0,00 0,00 0,00 8.409,79 44.827,20 4.043,82 8.017,78 0,00 0,00 12.061,60 32.765,60 31/01/2024
124 278200 ALINE MARCIA FARIA BARBOSA FERNANDES OFICIAL DO MP BARBACENA - COMARCA; BARBACENA-PJ-SECRETARIA 10.516,49 4.206,60 0,00 0,00 0,00 0,00 0,00 8.472,24 23.195,33 2.128,52 2.474,27 0,00 0,00 4.602,79 18.592,54 31/01/2024
125 389000 ALINE NERI NOBRE ANALISTA DO MP MONTES CLAROS - COMARCA; COORD REG PJ DEF EDUC DIR CRIANCA ADOL NORTE 20.533,67 8.213,47 0,00 0,00 0,00 0,00 0,00 8.332,43 37.079,57 4.372,36 5.818,10 0,00 0,00 10.190,46 26.889,11 31/01/2024
126 294600 ALINE PATRICIA SILVA VIEIRA OFICIAL DO MP UBERLÂNDIA - COMARCA; UBERLANDIA-PJ-03PJ 15.447,01 4.634,10 0,00 0,00 0,00 0,00 1.771,66 8.701,78 30.554,55 2.985,80 4.094,91 0,00 0,00 7.080,71 23.473,84 31/01/2024
127 420000 ALINE RODRIGUES CAMOROPIN ANALISTA DO MP SABARÁ - COMARCA; SABARA-PJ-02PJ 18.720,84 5.616,25 0,00 0,00 0,00 0,00 0,00 8.423,90 32.760,99 3.666,76 4.799,38 0,00 0,00 8.466,14 24.294,85 31/01/2024
128 715800 ALINE SANTOS PEDROSA MAIA BARBOSA ASSESSOR PROCURADOR JUSTICA BELO HORIZONTE - COMARCA; GABINETE DE PROCURADOR DE JUSTIÇA - SALA 1010 0,00 0,00 8.810,89 0,00 0,00 0,00 0,00 2.583,00 11.393,89 908,85 1.832,05 0,00 0,00 2.740,90 8.652,99 31/01/2024
129 699600 ALINE SEPULVEDA ROSA PIRES ASSESSOR PROCURADOR JUSTICA BELO HORIZONTE - COMARCA; GABINETE DE PROCURADOR DE JUSTIÇA - SALA 905 0,00 0,00 8.810,89 0,00 0,00 0,00 387,68 6.812,23 16.010,80 908,85 1.832,05 0,00 0,00 2.740,90 13.269,90 31/01/2024
130 408300 ALINE SILVA ARAUJO DE PAULA ANALISTA DO MP SÃO SEBASTIÃO DO PARAÍSO - COMARCA; SAO SEBASTIAO DO PARAISO-PJ-02PJ 18.720,84 5.616,25 0,00 0,00 0,00 0,00 0,00 8.423,90 32.760,99 1.018,60 5.368,32 0,00 0,00 6.386,92 26.374,07 31/01/2024
131 734300 ALINE TAVARES GURGEL ASSESSOR ADMINISTRATIVO III BELO HORIZONTE - COMARCA; SECRETARIA-GERAL 0,00 0,00 10.858,90 0,00 0,00 0,00 0,00 2.583,00 13.441,90 908,85 2.395,25 0,00 0,00 3.304,10 10.137,80 31/01/2024
132 425400 ALINE TRINDADE DE FREITAS CAMPOS OFICIAL DO MP BELO HORIZONTE - COMARCA; PROMOT ESTADUAL DE DEF PATRI CULT E TUR DE MG 12.343,61 2.468,72 0,00 0,00 0,00 0,00 0,00 2.583,00 17.395,33 2.142,79 2.599,16 0,00 0,00 4.741,95 12.653,38 31/01/2024
133 753900 ALINI PEREIRA DE ALMEIDA ASSESSOR PROMOTOR JUSTICA CAMPOS GERAIS - COMARCA; CAMPOS GERAIS-PJ-01PJ 0,00 0,00 8.810,89 0,00 0,00 0,00 0,00 2.583,00 11.393,89 908,85 1.832,05 0,00 0,00 2.740,90 8.652,99 31/01/2024
134 517200 ALISSOM PEREIRA DA SILVA ANALISTA DO MP BORDA DA MATA - COMARCA; BORDA DA MATA-PJ-UNPJ 12.343,61 3.703,08 0,00 0,00 0,00 0,00 0,00 9.506,39 25.553,08 2.340,29 2.884,30 0,00 0,00 5.224,59 20.328,49 31/01/2024
135 442400 ALISSON LABRE ANALISTA DO MP VARGINHA - COMARCA; VARGINHA-PJ-03PJ 13.588,97 2.717,79 0,00 0,00 0,00 0,00 0,00 8.453,43 24.760,19 1.018,60 3.319,28 0,00 0,00 4.337,88 20.422,31 31/01/2024
136 643800 ALLAN PAUL FONSECA DE CASTRO OFICIAL DO MP CONTAGEM - COMARCA; CONTAGEM-PJ-SECRETARIA 7.270,07 727,01 2.918,39 0,00 0,00 0,00 400,23 8.095,77 19.411,47 1.018,60 1.836,68 0,00 0,00 2.855,28 16.556,19 31/01/2024
137 612900 ALLAN VINICIUS VIEIRA ARAUJO COORDENADOR II BELO HORIZONTE - COMARCA; DIRETORIA DE GESTAO DOCUMENTAL 20.533,67 2.053,37 0,00 0,00 0,00 0,00 0,00 8.003,89 30.590,93 1.094,00 5.025,63 0,00 0,00 6.119,63 24.471,30 31/01/2024
138 349000 ALLEC RODRIGUES VIEIRA OFICIAL DO MP CAPINÓPOLIS - COMARCA; CAO-CIVEL 12.343,61 3.703,08 0,00 0,00 0,00 0,00 0,00 8.359,81 24.406,50 2.340,29 2.884,30 0,00 0,00 5.224,59 19.181,91 31/01/2024
139 297300 ALLYSON SALIBA MONTEIRO LAIZO ANALISTA DO MP CONSELHEIRO LAFAIETE - COMARCA; CONSELHEIRO LAFAIETE-PJ-03PJ 23.070,31 6.921,09 0,00 0,00 0,00 0,00 0,00 9.727,86 39.719,26 4.571,45 6.105,53 0,00 0,00 10.676,98 29.042,28 31/01/2024
140 303700 ALMIR LOPES LOURES ANALISTA DO MP BELO HORIZONTE - COMARCA; CENTRAL DE APOIO TECN-SETOR DE MEIO AMBIENTE 23.070,31 6.921,09 0,00 0,00 0,00 0,00 0,00 8.581,28 38.572,68 4.571,45 6.105,53 0,00 0,00 10.676,98 27.895,70 31/01/2024
141 743900 ALMIR MOREIRA DOS SANTOS ANALISTA DO MP BELO HORIZONTE - COMARCA; DIRETORIA DE ADMINISTRACAO FINANCEIRA 7.040,78 0,00 0,00 0,00 0,00 0,00 0,00 2.583,00 9.623,78 903,07 698,64 0,00 0,00 1.601,71 8.022,07 31/01/2024
142 696600 ALOIZIO MARTINS JALES JUNIOR ASSESSOR PROMOTOR JUSTICA CAMPESTRE - COMARCA; CAMPESTRE-PJ-SECRETARIA 0,00 0,00 8.810,89 0,00 0,00 0,00 0,00 5.754,92 14.565,81 908,85 1.832,05 0,00 0,00 2.740,90 11.824,91 31/01/2024
143 515900 ALTAIR NEVES JUNIOR OFICIAL DO MP BELO HORIZONTE - COMARCA; BH-01PJ FAZENDA PUBLICA-SECRETARIA 10.516,49 2.103,30 0,00 0,00 0,00 0,00 0,00 8.640,50 21.260,29 1.791,99 2.092,69 0,00 0,00 3.884,68 17.375,61 31/01/2024
144 233300 ALVARINDO BATISTA ANALISTA DO MP BELO HORIZONTE - COMARCA; DIR CRIACAO E MIDIAS 23.070,31 9.228,12 0,00 0,00 0,00 0,00 0,00 3.614,92 35.913,35 4.940,57 6.586,31 0,00 0,00 11.526,88 24.386,47 31/01/2024
145 750400 ALVARO HENRIQUE FERREIRA DA SILVA OFICIAL DO MP COMARCA - JUATUBA; JUATUBA-PJ-UNPJ 4.570,25 0,00 0,00 0,00 0,00 0,00 0,00 2.583,00 7.153,25 544,12 254,15 0,00 0,00 798,27 6.354,98 31/01/2024
146 274100 ALYSSON CARVALHO VIDAL DE LACERDA OFICIAL DO MP MANHUAÇU - COMARCA; MANHUACU-PJ-01PJ 12.343,61 4.937,44 0,00 0,00 0,00 0,00 0,00 2.583,00 19.864,05 2.537,79 3.169,44 0,00 0,00 5.707,23 14.156,82 31/01/2024
147 621000 AMANDA BASTOS ALVES ANALISTA DO MP BELO HORIZONTE - COMARCA; BH-07PJ 02 TRIBUNAL DO JURI-GAB 066PJ 12.343,61 1.234,36 0,00 0,00 0,00 0,00 0,00 2.583,00 16.160,97 1.018,60 2.449,41 0,00 0,00 3.468,01 12.692,96 31/01/2024
148 521700 AMANDA CRISTINA AGUIAR MACHADO OFICIAL DO MP CONGONHAS - COMARCA; CONGONHAS-PJ-01PJ 7.506,70 1.501,34 0,00 0,00 0,00 0,00 0,00 2.583,00 11.591,04 1.214,11 1.206,23 0,00 0,00 2.420,34 9.170,70 31/01/2024
149 733500 AMANDA CRISTINA GONCALVES ASSESSOR ADMINISTRATIVO I PARACATU - COMARCA; COORD REG AP COM INCL MOB SOCIAIS NOROESTE MG 0,00 0,00 4.872,71 0,00 0,00 0,00 0,00 2.583,00 7.455,71 777,91 785,06 0,00 0,00 1.562,97 5.892,74 31/01/2024
150 713900 AMANDA DE ARAUJO CARVALHO ASSESSOR PROMOTOR JUSTICA ARAÇUAÍ - COMARCA; ARACUAI-PJ-01PJ 0,00 0,00 8.810,89 0,00 0,00 0,00 0,00 8.574,41 17.385,30 908,85 1.832,05 0,00 0,00 2.740,90 14.644,40 31/01/2024
151 613400 AMANDA DE ASSIS IUNES SANTOS ANALISTA DO MP CONGONHAS - COMARCA; CONGONHAS-PJ-01PJ 12.343,61 1.234,36 0,00 0,00 0,00 0,00 547,65 8.557,31 22.682,93 1.945,30 2.314,02 0,00 0,00 4.259,32 18.423,61 31/01/2024
152 695900 AMANDA DE OLIVEIRA ASSESSOR PROCURADOR JUSTICA BELO HORIZONTE - COMARCA; PROC JUST ATUACAO TRIBUNAIS SUPERIORES-GAB004 0,00 0,00 8.810,89 0,00 0,00 0,00 0,00 8.574,41 17.385,30 908,85 1.832,05 0,00 0,00 2.740,90 14.644,40 31/01/2024
153 520800 AMANDA DE SOUZA MACHADO ANALISTA DO MP BAEPENDI - COMARCA; BAEPENDI-PJ-UNPJ 12.343,61 2.468,72 0,00 0,00 0,00 0,00 0,00 8.507,93 23.320,26 2.142,79 2.494,89 0,00 0,00 4.637,68 18.682,58 31/01/2024
154 663900 AMANDA DENISE GONCALVES DA SILVA ASSESSOR ADMINISTRATIVO I BELO HORIZONTE - COMARCA; SECRETARIA DO PROCON-MG 0,00 0,00 4.872,71 0,00 0,00 0,00 0,00 7.455,71 12.328,42 777,91 785,06 0,00 0,00 1.562,97 10.765,45 31/01/2024
155 754800 AMANDA MAGALHAES DE CARVALHO E SILVA ASSESSOR PROCURADOR JUSTICA BELO HORIZONTE - COMARCA; GABINETE DE PROCURADOR DE JUSTIÇA - SALA 1008 0,00 0,00 8.810,89 0,00 0,00 0,00 0,00 2.583,00 11.393,89 908,85 1.832,05 0,00 0,00 2.740,90 8.652,99 31/01/2024
156 543100 AMANDA VIEIRA FREITAS ANALISTA DO MP VARGINHA - COMARCA; COORD REG DEF ORDEM ECON TRIB VARGINHA 12.343,61 2.468,72 0,00 0,00 0,00 0,00 0,00 2.583,00 17.395,33 2.142,79 2.547,03 0,00 0,00 4.689,82 12.705,51 31/01/2024
157 434400 AMARILIS ASSIS SIMAO CURCIO ANALISTA DO MP BELO HORIZONTE - COMARCA; DIRETORIA GESTAO COMPRAS LICITACOES 12.343,61 3.703,08 0,00 0,00 0,00 0,00 0,00 2.583,00 18.629,69 2.340,29 2.884,30 0,00 0,00 5.224,59 13.405,10 31/01/2024
158 652000 AMAURI SILVA ALVES ASSESSOR ADMINISTRATIVO III BELO HORIZONTE - COMARCA; DIRETORIA GESTAO COMPRAS LICITACOES 10.858,90 1.085,89 0,00 0,00 0,00 0,00 569,37 8.794,29 21.308,45 937,69 2.141,99 0,00 0,00 3.079,68 18.228,77 31/01/2024
159 58000 AMELIA GUARIZE DE CASTRO OFICIAL DO MP JUIZ DE FORA - COMARCA; JUIZ DE FORA-PJ-SECRETARIA 8.264,07 9.090,49 0,00 0,00 0,00 2.549,55 0,00 8.156,16 28.060,27 2.549,55 3.887,54 0,00 0,00 6.437,09 21.623,18 31/01/2024
160 324301 AMERICA SUELI FERREIRA DA SILVA ANALISTA DO MP UBERLÂNDIA - COMARCA; UBERLANDIA-PJ-02PJ 12.343,61 3.703,08 0,00 0,00 0,00 0,00 0,00 8.359,81 24.406,50 2.340,29 2.832,16 0,00 0,00 5.172,45 19.234,05 31/01/2024
161 273300 AMUJACY DE BRITO ASSIZ OFICIAL DO MP BELO HORIZONTE - COMARCA; BH-12PJ JUIZO CRIMINAL-SECRETARIA 12.343,61 4.937,44 0,00 0,00 0,00 0,00 0,00 2.583,00 19.864,05 2.537,79 2.960,89 0,00 0,00 5.498,68 14.365,37 31/01/2024
162 482200 ANA ALICE LOPES ACHTSCHIN ANALISTA DO MP BELO HORIZONTE - COMARCA; PROC JUST ATUACAO TRIBUNAIS SUPERIORES-GAB005 15.447,01 3.089,40 0,00 0,00 0,00 0,00 0,00 8.514,65 27.051,06 2.738,65 3.459,42 0,00 0,00 6.198,07 20.852,99 31/01/2024
163 490400 ANA AMELIA PAULINO GARCIA OFICIAL DO MP CONTAGEM - COMARCA; CONTAGEM-PJ-SECRETARIA 10.858,90 2.171,78 0,00 0,00 0,00 0,00 0,00 3.729,58 16.760,26 1.857,73 2.135,46 0,00 0,00 3.993,19 12.767,07 31/01/2024
164 714900 ANA BEATRIZ LOBATO ALVES DE CARVALHO ASSESSOR PROCURADOR JUSTICA BELO HORIZONTE - COMARCA; GABINETE DE PROCURADOR DE JUSTIÇA - SALA 414 0,00 3.524,36 8.810,89 0,00 0,00 0,00 0,00 2.583,00 14.918,25 908,85 2.801,25 0,00 0,00 3.710,10 11.208,15 31/01/2024
165 279100 ANA CAROLINA ARAUJO PEREIRA ANALISTA DO MP BELO HORIZONTE - COMARCA; DIRETORIA DE PROJETOS DE EDIFICACOES 23.070,31 9.228,12 0,00 0,00 0,00 0,00 0,00 2.583,00 34.881,43 4.940,57 6.586,31 0,00 0,00 11.526,88 23.354,55 31/01/2024
166 653300 ANA CAROLINA CYRNE DINIZ ASSESSOR ADMINISTRATIVO III BELO HORIZONTE - COMARCA; CENTRAL DE APOIO TECNICO-SETOR CONTABIL 0,00 0,00 13.791,45 0,00 0,00 0,00 0,00 -349,55 13.441,90 908,85 2.395,25 0,00 0,00 3.304,10 10.137,80 31/01/2024
167 359400 ANA CAROLINA DE ABREU FARIA ASSESSOR ADMINISTRATIVO IV BELO HORIZONTE - COMARCA; SUPERINTENDÊNCIA DE ENGENHARIA E ARQUITETURA 0,00 0,00 14.488,22 0,00 0,00 0,00 531,23 9.524,87 24.544,32 908,85 3.341,18 0,00 0,00 4.250,03 20.294,29 31/01/2024
168 408500 ANA CAROLINA DE CASTRO CARVALHO ANALISTA DO MP BARBACENA - COMARCA; BARBACENA - SECRETARIA DAS PJS CRIMINAIS 18.720,84 5.616,25 0,00 0,00 0,00 0,00 0,00 9.570,48 33.907,57 3.666,76 4.799,38 0,00 0,00 8.466,14 25.441,43 31/01/2024
169 688000 ANA CAROLINA DE OLIVEIRA PINTO ASSESSOR PROCURADOR JUSTICA BELO HORIZONTE - COMARCA; GABINETE DE PROCURADOR DE JUSTIÇA - SALA 1011 0,00 0,00 8.810,89 0,00 0,00 0,00 0,00 2.583,00 11.393,89 908,85 1.832,05 0,00 0,00 2.740,90 8.652,99 31/01/2024
170 420200 ANA CAROLINA FERNANDES SILVA ANALISTA DO MP BELO HORIZONTE - COMARCA; GABINETE DE PROCURADOR DE JUSTIÇA - SALA 704 18.130,77 5.439,23 0,00 0,00 0,00 0,00 0,00 2.583,00 26.153,00 3.544,02 4.622,18 0,00 0,00 8.166,20 17.986,80 31/01/2024
171 522100 ANA CAROLINA FERNANDINO VIDAL PEREIRA SANTOS OFICIAL DO MP BELO HORIZONTE - COMARCA; CAO-CRIANCAS E ADOLESCENTES-SECRETARIA 10.516,49 2.103,30 0,00 0,00 0,00 0,00 0,00 8.640,50 21.260,29 1.018,60 2.205,67 0,00 0,00 3.224,27 18.036,02 31/01/2024
172 716001 ANA CAROLINA FIGUEIREDO SILVA ASSESSOR ADMINISTRATIVO II BELO HORIZONTE - COMARCA; PROC JUST ATUACAO TRIBUNAIS SUPERIORES-GAB003 0,00 0,00 7.506,70 0,00 0,00 0,00 0,00 2.583,00 10.089,70 908,85 1.473,40 0,00 0,00 2.382,25 7.707,45 31/01/2024
173 502400 ANA CAROLINA GONCALVES FERNANDES ANALISTA DO MP IPATINGA - COMARCA; IPATINGA-PJ-01PJ 12.343,61 2.468,72 0,00 0,00 0,00 0,00 0,00 10.801,09 25.613,42 1.018,60 2.763,40 0,00 0,00 3.782,00 21.831,42 31/01/2024
174 529900 ANA CAROLINA GONCALVES PECANHA CHEQUER ANALISTA DO MP MANHUAÇU - COMARCA; MANHUACU-PJ-04PJ 12.343,61 2.468,72 0,00 0,00 0,00 0,00 0,00 4.876,16 19.688,49 2.142,79 2.599,16 0,00 0,00 4.741,95 14.946,54 31/01/2024
175 431900 ANA CAROLINA MOTTA GUATIMOSIM ANALISTA DO MP BELO HORIZONTE - COMARCA; ASSESSORIA JURIDICO-ADMINISTRATIVA 18.130,77 3.626,15 0,00 0,00 7.252,31 0,00 558,43 9.821,52 39.389,18 3.253,93 6.197,75 0,00 0,00 9.451,68 29.937,50 31/01/2024
176 490600 ANA CAROLINA XAVIER GODOY ANALISTA DO MP BELO HORIZONTE - COMARCA; BH-18PJ VIOLENCIA DOMESTICA-GAB 007PJ 12.343,61 2.468,72 0,00 0,00 0,00 0,00 0,00 10.801,09 25.613,42 2.142,79 2.494,89 0,00 0,00 4.637,68 20.975,74 31/01/2024
177 600300 ANA CAROLINE PEREIRA DINIZ ANALISTA DO MP BELO HORIZONTE - COMARCA; PROC JUST ESP ACOES COMP ORIG CRIMINAL-SEC 12.343,61 2.468,72 0,00 0,00 0,00 0,00 0,00 9.654,51 24.466,84 2.142,79 2.599,16 0,00 0,00 4.741,95 19.724,89 31/01/2024
178 615800 ANA CAROLINE PEREIRA OLIVEIRA OFICIAL DO MP ALFENAS - COMARCA; ALFENAS-PJ-06PJ 7.506,70 750,67 0,00 0,00 0,00 0,00 0,00 8.528,31 16.785,68 1.094,00 1.084,97 0,00 0,00 2.178,97 14.606,71 31/01/2024
179 324800 ANA CECILIA MENDES DA SILVA OFICIAL DO MP OURO FINO - COMARCA; OURO FINO-PJ-01PJ 12.343,61 4.937,44 0,00 0,00 0,00 0,00 0,00 2.583,00 19.864,05 2.537,79 3.117,30 0,00 0,00 5.655,09 14.208,96 31/01/2024
180 736000 ANA CLARA FERREIRA AMARAL ASSESSOR ADMINISTRATIVO I BELO HORIZONTE - COMARCA; PROCURADOR-GERAL DE JUSTICA- GABINETE 0,00 0,00 4.872,71 0,00 0,00 0,00 0,00 2.583,00 7.455,71 777,91 785,06 0,00 0,00 1.562,97 5.892,74 31/01/2024
181 704100 ANA CLARA MARTINS ALBUQUERQUE ASSESSOR DE CAO BELO HORIZONTE - COMARCA; CAO-CRIANCAS E ADOLESCENTES-ASS TECNICA 0,00 0,00 7.506,70 0,00 0,00 0,00 0,00 2.583,00 10.089,70 908,85 1.473,40 0,00 0,00 2.382,25 7.707,45 31/01/2024
182 698700 ANA CLARA SANTOS ALMEIDA ASSESSOR PROMOTOR JUSTICA SABINÓPOLIS - COMARCA; SABINOPOLIS-PJ-UNPJ 0,00 0,00 8.810,89 0,00 0,00 0,00 0,00 2.583,00 11.393,89 908,85 1.832,05 0,00 0,00 2.740,90 8.652,99 31/01/2024
183 756400 ANA CLARA SOARES PEREIRA BARBOSA ASSESSOR PROMOTOR JUSTICA CARMO DO PARANAÍBA - COMARCA; CARMO DO PARANAIBA-PJ-01PJ 0,00 0,00 8.810,89 0,00 0,00 0,00 0,00 2.583,00 11.393,89 908,85 1.832,05 0,00 0,00 2.740,90 8.652,99 31/01/2024
184 441300 ANA CLAUDIA ALKIMIM MIRANDA BOMTEMPO ANALISTA DO MP MONTES CLAROS - COMARCA; MONTES CLAROS-PJ-11PJ 18.130,77 3.626,15 0,00 0,00 0,00 0,00 0,00 2.583,00 24.339,92 3.253,93 4.099,09 0,00 0,00 7.353,02 16.986,90 31/01/2024
185 642500 ANA CLAUDIA DA COSTA NAVES OFICIAL DO MP MONTE CARMELO - COMARCA; MONTE CARMELO-PJ-02PJ 6.603,76 660,38 0,00 0,00 0,00 0,00 0,00 3.782,14 11.046,28 937,69 854,81 0,00 0,00 1.792,50 9.253,78 31/01/2024
186 604900 ANA CLAUDIA OLIVEIRA DE MIRANDA OFICIAL DO MP PONTE NOVA - COMARCA; PONTE NOVA-PJ-04PJ 7.506,70 750,67 0,00 0,00 0,00 0,00 0,00 2.583,00 10.840,37 1.094,00 1.032,83 0,00 0,00 2.126,83 8.713,54 31/01/2024
187 379300 ANA CRISTINA ALVES FLAVIO ANALISTA DO MP SÃO GOTARDO - COMARCA; SAO GOTARDO-PJ-01PJ 20.533,67 6.160,10 0,00 0,00 0,00 0,00 0,00 3.729,58 30.423,35 4.043,82 5.291,64 0,00 0,00 9.335,46 21.087,89 31/01/2024
188 461200 ANA CRISTINA ALVES PASCHOAL ANALISTA DO MP BELO HORIZONTE - COMARCA; BH-07PJ 03 TRIBUNAL DO JURI-GAB 064PJ 12.343,61 2.468,72 0,00 0,00 0,00 0,00 0,00 2.583,00 17.395,33 2.142,79 2.547,03 0,00 0,00 4.689,82 12.705,51 31/01/2024
189 514100 ANA CRISTINA ARAUJO ASSUNCAO ANALISTA DO MP BELO HORIZONTE - COMARCA; ASSESS JUR DO CONS SUPERIOR DO MINISTERIO PUB 12.343,61 3.184,65 0,00 0,00 0,00 0,00 0,00 9.940,88 25.469,14 2.257,34 2.712,41 0,00 0,00 4.969,75 20.499,39 31/01/2024
190 113401 ANA CRISTINA BRAGA ALBUQUERQUE ASSESSOR ADM. ESPECIAL BELO HORIZONTE - COMARCA; DIRETORIA-GERAL 0,00 0,00 28.013,39 0,00 0,00 0,00 0,00 1.978,00 29.991,39 908,85 7.112,74 0,00 0,00 8.021,59 21.969,80 31/01/2024
191 233800 ANA CRISTINA BRAGA SOARES OFICIAL DO MP BELO HORIZONTE - COMARCA; DIRETORIA DE CONTABILIDADE 15.447,01 6.178,80 0,00 0,00 0,00 0,00 0,00 2.583,00 24.208,81 3.232,95 4.068,80 0,00 0,00 7.301,75 16.907,06 31/01/2024
192 186400 ANA CRISTINA DE AZEVEDO LOPES OFICIAL DO MP UBÁ - COMARCA; UBA-PJ-01PJ 21.346,53 8.538,61 0,00 0,00 0,00 0,00 0,00 8.560,03 38.445,17 4.554,44 6.080,98 0,00 0,00 10.635,42 27.809,75 31/01/2024
193 465100 ANA CRISTINA DE OLIVEIRA GUIMARAES ANALISTA DO MP ITAJUBA - COMARCA; ITAJUBA-PJ-05PJ 12.343,61 2.468,72 0,00 0,00 0,00 0,00 0,00 9.654,51 24.466,84 2.142,79 2.494,89 0,00 0,00 4.637,68 19.829,16 31/01/2024
194 500600 ANA CRISTINA LATADO SUDARIO ANALISTA DO MP UBERLÂNDIA - COMARCA; UBERLANDIA-PJ-09PJ 12.343,61 2.468,72 0,00 0,00 0,00 0,00 0,00 8.507,93 23.320,26 2.142,79 2.599,16 0,00 0,00 4.741,95 18.578,31 31/01/2024
195 331400 ANA CRISTINA RIBEIRO ALVES OFICIAL DO MP BAMBUÍ - COMARCA; BAMBUI-PJ-UNPJ 12.343,61 3.703,08 0,00 0,00 0,00 0,00 0,00 8.359,81 24.406,50 2.340,29 2.832,16 0,00 0,00 5.172,45 19.234,05 31/01/2024
196 249300 ANA ELOINA MARTINS OFICIAL DO MP BETIM - COMARCA; BETIM-PJ-02PJ 18.130,77 9.065,39 0,00 0,00 0,00 0,00 0,00 8.022,23 35.218,39 4.124,21 5.459,83 0,00 0,00 9.584,04 25.634,35 31/01/2024
197 257400 ANA FLAVIA CAMBRAIA ANALISTA DO MP BELO HORIZONTE - COMARCA; BH-19PJ SAUDE-SECRETARIA 150PJ 23.070,31 9.228,12 0,00 0,00 0,00 4.940,57 0,00 8.541,24 45.780,24 4.940,57 7.944,97 0,00 0,00 12.885,54 32.894,70 31/01/2024
198 248201 ANA FLAVIA DE MORAIS SOUZA ANALISTA DO MP DIVINÓPOLIS - COMARCA; DIVINOPOLIS-PJ-01PJ 15.447,01 6.178,80 0,00 0,00 0,00 0,00 0,00 9.784,81 31.410,62 3.232,95 4.068,80 0,00 0,00 7.301,75 24.108,87 31/01/2024
199 621100 ANA FLAVIA DINIZ TEODORO OFICIAL DO MP SANTA LUZIA - COMARCA; SANTA LUZIA-PJ-06PJ 7.506,70 750,67 0,00 0,00 0,00 0,00 0,00 7.537,42 15.794,79 1.094,00 1.084,97 0,00 0,00 2.178,97 13.615,82 31/01/2024
200 238600 ANA FLAVIA FRANCO OFICIAL DO MP BELO HORIZONTE - COMARCA; DIRETORIA DE PESSOAL ADMINISTRATIVO - DPAD 18.720,84 7.488,34 0,00 0,00 0,00 0,00 0,00 7.824,84 34.034,02 3.966,29 5.231,83 0,00 0,00 9.198,12 24.835,90 31/01/2024
201 402900 ANA FLAVIA PORTES DE CARVALHO ANALISTA DO MP BELO HORIZONTE - COMARCA; DIRET DE PLANOS PROJETOS E PROGRAMAS INST 20.533,67 6.160,10 0,00 0,00 0,00 0,00 0,00 7.921,75 34.615,52 4.043,82 5.291,64 0,00 0,00 9.335,46 25.280,06 31/01/2024
202 752300 ANA JUSSARA DA SILVA BIANCHETTI OFICIAL DO MP ALTO RIO DOCE - COMARCA; ALTO RIO DOCE-PJ-UNPJ 4.570,25 0,00 0,00 0,00 0,00 0,00 0,00 2.583,00 7.153,25 544,12 254,15 0,00 0,00 798,27 6.354,98 31/01/2024
203 382700 ANA KARENINA SALDANHA GONTIJO ANALISTA DO MP BELO HORIZONTE - COMARCA; ASSESS TECNICO-JUR JUNTO AS PROC. DE JUST 19.751,60 5.925,48 0,00 0,00 0,00 0,00 0,00 2.583,00 28.260,08 3.881,15 5.108,92 0,00 0,00 8.990,07 19.270,01 31/01/2024
204 620500 ANA KARINE DE ANDRADE OLIVEIRA ANALISTA DO MP RIBEIRÃO DAS NEVES - COMARCA; RIBEIRAO NEVES-SEC PJ EXECUCAO PENAL 11.577,56 1.157,76 0,00 0,00 0,00 0,00 0,00 2.583,00 15.318,32 1.810,47 2.119,37 0,00 0,00 3.929,84 11.388,48 31/01/2024
205 462200 ANA LUCIA ANDRADE TOMICH OTTONI ANALISTA DO MP TEÓFILO OTONI - COMARCA; TEOFILO OTONI-PJ-07PJ 12.343,61 2.468,72 0,00 0,00 0,00 0,00 0,00 9.654,51 24.466,84 2.142,79 2.494,89 0,00 0,00 4.637,68 19.829,16 31/01/2024
206 504100 ANA LUCIA CATAO DE CARVALHO OFICIAL DO MP BELO HORIZONTE - COMARCA; DIR RELACOES INSTITUCIONAIS 10.858,90 2.171,78 4.020,58 0,00 0,00 0,00 0,00 8.721,45 25.772,71 1.857,73 3.241,12 0,00 0,00 5.098,85 20.673,86 31/01/2024
207 274700 ANA LUCIA DE ALENCAR BRAGATO OFICIAL DO MP UBERABA - COMARCA; UBERABA-PJ-07PJ 12.343,61 4.937,44 0,00 0,00 0,00 0,00 0,00 8.804,18 26.085,23 2.537,79 3.169,44 0,00 0,00 5.707,23 20.378,00 31/01/2024
208 509400 ANA LUCIA DORNELAS MALLOSTO ANALISTA DO MP JUIZ DE FORA - COMARCA; JUIZ DE FORA-PJ-14PJ 12.343,61 2.468,72 0,00 0,00 0,00 0,00 0,00 8.507,93 23.320,26 2.142,79 2.547,03 0,00 0,00 4.689,82 18.630,44 31/01/2024
209 302600 ANA LUCIA LOPES SANTOS OFICIAL DO MP BELO HORIZONTE - COMARCA; DIVISÃO DE FISCALIZAÇÃO DAS RELAÇÕES DE CONSU 12.343,61 3.703,08 0,00 0,00 0,00 0,00 1.771,66 8.284,87 26.103,22 2.340,29 3.319,37 0,00 0,00 5.659,66 20.443,56 31/01/2024
210 716700 ANA LUISA DE LANA COELHO ASSESSOR PROCURADOR JUSTICA BELO HORIZONTE - COMARCA; GABINETE DE PROCURADOR DE JUSTIÇA - SALA 612 0,00 0,00 8.810,89 0,00 0,00 0,00 0,00 2.583,00 11.393,89 908,85 1.832,05 0,00 0,00 2.740,90 8.652,99 31/01/2024
211 702000 ANA LUISA DE OLIVEIRA RIBEIRO ASSESSOR PROCURADOR JUSTICA BELO HORIZONTE - COMARCA; ASSESS TECNICO-JUR JUNTO AS PROC. DE JUST 0,00 0,00 8.810,89 0,00 0,00 0,00 0,00 2.583,00 11.393,89 908,85 1.832,05 0,00 0,00 2.740,90 8.652,99 31/01/2024
212 493400 ANA LUISA NOGUEIRA MOREIRA ANALISTA DO MP BELO HORIZONTE - COMARCA; BH-19PJ SAUDE-SECRETARIA 130PJ 12.343,61 2.468,72 0,00 0,00 0,00 0,00 0,00 8.507,93 23.320,26 2.142,79 2.599,16 0,00 0,00 4.741,95 18.578,31 31/01/2024
213 389300 ANA LUISA REUTER LIMA ANALISTA DO MP BELO HORIZONTE - COMARCA; DIRETORIA DE SISTEMAS DE INFORMACAO 20.533,67 6.160,10 5.538,92 0,00 0,00 0,00 0,00 2.583,00 34.815,69 4.043,82 6.866,98 0,00 0,00 10.910,80 23.904,89 31/01/2024
214 480600 ANA LUIZA FERNANDES FRAGA E GRECO COORDENADOR I BELO HORIZONTE - COMARCA; OUVIDORIA DO MPMG 16.469,17 3.293,83 0,00 0,00 0,00 0,00 0,00 8.116,64 27.879,64 1.791,99 4.057,07 0,00 0,00 5.849,06 22.030,58 31/01/2024
215 726800 ANA LUIZA GOMES PEREIRA ASSESSOR ADMINISTRATIVO I BELO HORIZONTE - COMARCA; OUVIDORIA DO MPMG 0,00 0,00 4.872,71 0,00 0,00 0,00 0,00 7.455,71 12.328,42 777,91 785,06 0,00 0,00 1.562,97 10.765,45 31/01/2024
216 733600 ANA LUIZA MACHADO RODRIGUES ASSESSOR PROMOTOR JUSTICA CARMO DA MATA - COMARCA; CARMO DA MATA-PJ-UNPJ 0,00 0,00 8.810,89 0,00 0,00 0,00 0,00 2.583,00 11.393,89 908,85 1.832,05 0,00 0,00 2.740,90 8.652,99 31/01/2024
217 517800 ANA LUIZA MAGALHAES CIRINO PIOTO DE MELO OFICIAL DO MP BELO HORIZONTE - COMARCA; DIVISAO DE MATERIAIS 7.506,70 750,67 0,00 0,00 0,00 0,00 0,00 4.876,16 13.133,53 1.094,00 1.084,97 0,00 0,00 2.178,97 10.954,56 31/01/2024
218 481400 ANA MARCIA CANDIDA FERREIRA OFICIAL DO MP BRUMADINHO - COMARCA; BRUMADINHO-PJ-02PJ 7.506,70 1.501,34 0,00 0,00 0,00 0,00 0,00 8.708,47 17.716,51 1.214,11 1.258,37 0,00 0,00 2.472,48 15.244,03 31/01/2024
219 754400 ANA MARIA ANDRADE LARA OFICIAL DO MP BOM SUCESSO - COMARCA; BOM SUCESSO-PJ-UNPJ 4.570,25 0,00 0,00 0,00 0,00 0,00 0,00 2.583,00 7.153,25 544,12 254,15 0,00 0,00 798,27 6.354,98 31/01/2024
220 643100 ANA MARIA LOPES MIRANDA ANALISTA DO MP BELO HORIZONTE - COMARCA; CAO-FUNDACOES 11.212,54 1.121,25 0,00 0,00 0,00 0,00 0,00 3.729,58 16.063,37 1.018,60 2.039,12 0,00 0,00 3.057,72 13.005,65 31/01/2024
221 556400 ANA MARIA OLIVEIRA SOUZA OFICIAL DO MP ITAPECERICA - COMARCA; ITAPECERICA-PJ-UNPJ 8.264,07 1.652,81 0,00 0,00 0,00 0,00 0,00 6.549,75 16.466,63 1.359,52 1.468,31 0,00 0,00 2.827,83 13.638,80 31/01/2024
222 409600 ANA OLIVIA FARIA ROSENBURG ANALISTA DO MP BELO HORIZONTE - COMARCA; DIRETORIA DO COLEGIO E DA CAMARA DE PJ 18.720,84 7.488,34 0,00 0,00 0,00 0,00 1.026,68 7.824,84 35.060,70 3.966,29 5.514,17 0,00 0,00 9.480,46 25.580,24 31/01/2024
223 461500 ANA PAULA ALVES CARVALHO ANALISTA DO MP UBERLÂNDIA - COMARCA; UBERLANDIA-PJ-25PJ 13.588,97 2.717,79 0,00 0,00 0,00 0,00 538,12 9.600,01 26.444,89 2.381,90 2.840,10 0,00 0,00 5.222,00 21.222,89 31/01/2024
224 523200 ANA PAULA ALVES DA SILVA OFICIAL DO MP GOVERNADOR VALADARES - COMARCA; GOVERNADOR VALADARES-PJ-10PJ 10.516,49 2.103,30 0,00 0,00 0,00 0,00 0,00 13.226,82 25.846,61 1.018,60 2.101,40 0,00 0,00 3.120,00 22.726,61 31/01/2024
225 381200 ANA PAULA BARROS PEREIRA RIGHI ANALISTA DO MP BELO HORIZONTE - COMARCA; DIRETORIA DO COLEGIO E DA CAMARA DE PJ 20.533,67 6.160,10 0,00 0,00 0,00 0,00 0,00 9.068,33 35.762,10 1.018,60 5.733,60 0,00 0,00 6.752,20 29.009,90 31/01/2024
226 696400 ANA PAULA CARVALHO SILVA ASSESSOR PROMOTOR JUSTICA PERDÕES - COMARCA; PERDOES-PJ-UNPJ 0,00 0,00 8.810,89 0,00 0,00 0,00 0,00 9.016,11 17.827,00 908,85 1.779,91 0,00 0,00 2.688,76 15.138,24 31/01/2024
227 700900 ANA PAULA CRAVO SALOME ASSESSOR ADMINISTRATIVO I BELO HORIZONTE - COMARCA; PROCURADOR-GERAL DE JUSTIÇA 0,00 0,00 4.872,71 0,00 0,00 0,00 0,00 5.116,81 9.989,52 887,06 755,04 0,00 0,00 1.642,10 8.347,42 31/01/2024
228 227200 ANA PAULA DA SILVA CAMPOLINA ANALISTA DO MP BELO HORIZONTE - COMARCA; DIRETORIA DE ORCAMENTO-DIOR/SPC 23.070,31 11.535,16 0,00 0,00 0,00 0,00 0,00 8.119,88 42.725,35 5.309,70 7.171,38 0,00 0,00 12.481,08 30.244,27 31/01/2024
229 278500 ANA PAULA DIAS CAPANEMA OFICIAL DO MP BELO HORIZONTE - COMARCA; DIRETORIA DE SEGURANCA 13.588,97 5.435,59 0,00 0,00 0,00 0,00 0,00 8.670,86 27.695,42 2.816,75 3.572,19 0,00 0,00 6.388,94 21.306,48 31/01/2024
230 327300 ANA PAULA GARCIA MAXIMO OFICIAL DO MP UNAÍ - COMARCA; UNAI-PJ-01PJ 15.949,86 7.974,93 0,00 0,00 0,00 0,00 0,00 8.324,95 32.249,74 3.600,79 4.547,73 0,00 0,00 8.148,52 24.101,22 31/01/2024
231 738700 ANA PAULA GOMES ANTUNES ASSESSOR PROMOTOR JUSTICA CORAÇÃO DE JESUS - COMARCA; CORACAO DE JESUS-PJ-UNPJ 0,00 0,00 10.788,89 0,00 0,00 0,00 0,00 605,00 11.393,89 908,85 1.832,05 0,00 0,00 2.740,90 8.652,99 31/01/2024
232 270000 ANA PAULA GOULART CRUZ DE MAGALHAES ANALISTA DO MP BELO HORIZONTE - COMARCA; ASSESSORIA ESPECIAL DO PGJ 23.070,31 9.228,12 0,00 0,00 0,00 0,00 0,00 7.750,75 40.049,18 4.940,57 6.638,45 0,00 0,00 11.579,02 28.470,16 31/01/2024
233 262100 ANA PAULA KOMATSUZAKI ABIJAUDI ANALISTA DO MP BELO HORIZONTE - COMARCA; BH-17PJ PATRIMONIO PUBLICO-SECRETARIA 23.070,31 11.535,16 0,00 0,00 0,00 0,00 0,00 2.583,00 37.188,47 5.309,70 7.067,10 0,00 0,00 12.376,80 24.811,67 31/01/2024
234 278900 ANA PAULA MOREIRA GURGEL ANALISTA DO MP BELO HORIZONTE - COMARCA; ASSESSORIA JURIDICO-ADMINISTRATIVA 23.070,31 11.535,16 8.404,02 0,00 0,00 0,00 0,00 8.597,40 51.606,89 5.309,70 7.495,31 5.419,53 0,00 18.224,54 33.382,35 31/01/2024
235 745500 ANA PAULA OLIVEIRA MENDES OFICIAL DO MP TARUMIRIM - COMARCA; TARUMIRIM-PJ-UNPJ 4.570,25 0,00 0,00 0,00 0,00 0,00 0,00 2.583,00 7.153,25 544,12 254,15 0,00 0,00 798,27 6.354,98 31/01/2024
236 425701 ANA PAULA ROCHA ANALISTA DO MP BELO HORIZONTE - COMARCA; ASSESSORIA DE COMUNICACAO INTEGRADA 12.343,61 2.468,72 0,00 0,00 0,00 0,00 0,00 3.729,58 18.541,91 2.142,79 2.599,16 0,00 0,00 4.741,95 13.799,96 31/01/2024
237 395601 ANA PAULA SALGE OLIVEIRA ANALISTA DO MP UBERABA - COMARCA; UBERABA-PJ-15PJ 12.343,61 4.937,44 0,00 0,00 0,00 0,00 0,00 8.804,18 26.085,23 2.537,79 3.169,44 0,00 0,00 5.707,23 20.378,00 31/01/2024
238 473200 ANA PAULA SCOTTON BRASIL ANALISTA DO MP JUIZ DE FORA - COMARCA; JUIZ DE FORA-PJ-14PJ 12.343,61 2.468,72 0,00 0,00 0,00 0,00 0,00 8.507,93 23.320,26 2.142,79 2.599,16 0,00 0,00 4.741,95 18.578,31 31/01/2024
239 633600 ANA PAULA SILVA FERNANDES OFICIAL DO MP CATAGUASES - COMARCA; CATAGUASES-PJ-04PJ 7.506,70 750,67 0,00 0,00 0,00 0,00 0,00 2.583,00 10.840,37 1.094,00 1.084,97 0,00 0,00 2.178,97 8.661,40 31/01/2024
240 470900 ANA PAULA VALADARES ANALISTA DO MP PITANGUI - COMARCA; PITANGUI-PJ-01PJ 12.343,61 2.468,72 0,00 0,00 0,00 0,00 543,12 8.507,93 23.863,38 2.142,79 2.494,89 0,00 0,00 4.637,68 19.225,70 31/01/2024
241 447000 ANA PAULA VALENTIM DE ARAUJO ANALISTA DO MP BELO HORIZONTE - COMARCA; PROC JUST ESP ACOES COMP ORIG CRIMINAL-ASSESS 14.960,00 2.992,00 0,00 0,00 0,00 0,00 0,00 2.583,00 20.535,00 2.645,14 3.324,43 0,00 0,00 5.969,57 14.565,43 31/01/2024
242 604200 ANA PAULA VIANA E SILVA OFICIAL DO MP BELO HORIZONTE - COMARCA; BH-17PJ PATRIMONIO PUBLICO-SECRETARIA 7.506,70 1.501,34 0,00 0,00 0,00 0,00 0,00 2.583,00 11.591,04 1.214,11 1.258,37 0,00 0,00 2.472,48 9.118,56 31/01/2024
243 505400 ANA PAULA VIEIRA SOUTO OFICIAL DO MP ALMENARA - COMARCA; ALMENARA-PJ-01PJ 7.506,70 3.002,68 0,00 0,00 0,00 0,00 0,00 2.583,00 13.092,38 1.454,32 1.553,04 0,00 0,00 3.007,36 10.085,02 31/01/2024
244 280200 ANA RACHEL BRANDAO LADEIRA ROLAND ANALISTA DO MP BELO HORIZONTE - COMARCA; SUPERINTENDENCIA GESTÃO DE PESSOAS 23.070,31 9.228,12 8.404,02 0,00 0,00 0,00 0,00 2.583,00 43.285,45 4.940,57 7.808,31 3.112,49 0,00 15.861,37 27.424,08 31/01/2024
245 601200 ANA REGINA RIBEIRO ANALISTA DO MP BELO HORIZONTE - COMARCA; DIV FISCAL ADM CONT TERCEIRIZACAO 12.343,61 2.468,72 4.940,75 0,00 0,00 0,00 0,00 8.113,86 27.866,94 1.018,60 4.020,20 0,00 0,00 5.038,80 22.828,14 31/01/2024
246 384700 ANA RODRIGUES PEREIRA MARRA ANALISTA DO MP BELO HORIZONTE - COMARCA; CENT ESTAD COOPERACAO TECNICO-JURIDICA 12.343,61 3.703,08 0,00 0,00 0,00 0,00 0,00 9.506,39 25.553,08 2.340,29 2.780,03 0,00 0,00 5.120,32 20.432,76 31/01/2024
247 232700 ANA SILVIA SEMBLANO NAKAMURA OFICIAL DO MP BELO HORIZONTE - COMARCA; CENT DE APOIO TEC-SETOR DEF,IDOSO E INFANC 12.343,61 4.937,44 4.020,58 0,00 0,00 0,00 546,74 8.547,46 30.395,83 2.537,79 4.275,10 0,00 0,00 6.812,89 23.582,94 31/01/2024
248 602100 ANACLETO FRANCISCO MARCIER PIMENTA OFICIAL DO MP SÃO JOÃO DEL REI - COMARCA; SAO JOAO DEL REI-PJ-03PJ 7.506,70 1.501,34 0,00 0,00 0,00 0,00 0,00 3.920,68 12.928,72 1.214,11 997,68 0,00 0,00 2.211,79 10.716,93 31/01/2024
249 310400 ANADEJE DO CARMO DINIZ ARAUJO OFICIAL DO MP BELO HORIZONTE - COMARCA; DIRETORIA DE PESSOAL ADMINISTRATIVO - DPAD 12.343,61 3.703,08 0,00 0,00 0,00 0,00 0,00 8.359,81 24.406,50 2.340,29 2.884,30 0,00 0,00 5.224,59 19.181,91 31/01/2024
250 337000 ANAILDES MARIA MENDES OFICIAL DO MP JANAÚBA - COMARCA; JANAUBA-PJ-02PJ 12.343,61 3.703,08 0,00 0,00 0,00 0,00 0,00 9.506,39 25.553,08 2.340,29 2.884,30 0,00 0,00 5.224,59 20.328,49 31/01/2024
251 750200 ANALU BATISTA TORQUATO ARAUJO ASSESSOR DE CAO BELO HORIZONTE - COMARCA; CAO-ORDEM ECONOMICA E TRIBUTARIA 0,00 0,00 7.506,70 0,00 0,00 0,00 0,00 2.583,00 10.089,70 908,85 1.473,40 0,00 0,00 2.382,25 7.707,45 31/01/2024
252 377400 ANDEIRSON DA MATTA BARBOSA ANALISTA DO MP POUSO ALEGRE - COMARCA; POUSO ALEGRE-PJ-01PJ 12.343,61 3.703,08 0,00 0,00 0,00 0,00 0,00 9.506,39 25.553,08 2.340,29 2.884,30 0,00 0,00 5.224,59 20.328,49 31/01/2024
253 317400 ANDERSON DA SILVA BICALHO OFICIAL DO MP CONTAGEM - COMARCA; CONTAGEM-PJ-SECRETARIA 12.343,61 3.703,08 0,00 0,00 0,00 0,00 0,00 2.583,00 18.629,69 2.340,29 2.727,89 0,00 0,00 5.068,18 13.561,51 31/01/2024
254 506900 ANDERSON DE SOUZA DAMIANI ANALISTA DO MP BELO HORIZONTE - COMARCA; DIRETORIA DE PAGAMENTO DE PESSOAL-DPAG 12.343,61 4.937,44 5.538,92 0,00 0,00 0,00 0,00 8.059,79 30.879,76 2.537,79 4.640,50 0,00 0,00 7.178,29 23.701,47 31/01/2024
255 410000 ANDERSON DE SOUZA NETO ASSESSOR ADMINISTRATIVO II BELO HORIZONTE - COMARCA; DIRETORIA DE ADMINISTRACAO FINANCEIRA 0,00 0,00 7.506,70 0,00 0,00 0,00 0,00 8.588,36 16.095,06 908,85 1.473,40 0,00 0,00 2.382,25 13.712,81 31/01/2024
256 181900 ANDERSON FLAVIO DE OLIVEIRA OFICIAL DO MP ITAGUARA - COMARCA; ITAGUARA-PJ-SECRETARIA 18.720,84 7.488,34 0,00 0,00 0,00 0,00 0,00 2.583,00 28.792,18 3.966,29 5.231,83 0,00 0,00 9.198,12 19.594,06 31/01/2024
257 333200 ANDERSON JOSE DE FREITAS OFICIAL DO MP IPATINGA - COMARCA; IPATINGA-PJ-04PJ 12.343,61 3.703,08 0,00 0,00 0,00 0,00 1.771,66 9.431,45 27.249,80 2.340,29 3.215,09 0,00 0,00 5.555,38 21.694,42 31/01/2024
258 699400 ANDERSON LUIZ CABRAL ASSESSOR PROMOTOR JUSTICA ALÉM PARAÍBA - COMARCA; ALEM PARAIBA-PJ-03PJ 0,00 0,00 8.810,89 0,00 0,00 0,00 0,00 2.583,00 11.393,89 908,85 1.832,05 0,00 0,00 2.740,90 8.652,99 31/01/2024
259 462100 ANDERSON LUIZ GUIMARAES CARDOSO ANALISTA DO MP BARBACENA - COMARCA; BARBACENA-PJ-02PJ 15.447,01 4.016,22 0,00 0,00 0,00 0,00 0,00 8.811,23 28.274,46 2.886,94 3.673,52 0,00 0,00 6.560,46 21.714,00 31/01/2024
260 429700 ANDERSON MELO DE SOUZA COORDENADOR II BELO HORIZONTE - COMARCA; DIRET DE ESTAGIOS E CONVENIOS ACADEMICOS 20.533,67 4.106,73 0,00 0,00 0,00 0,00 0,00 8.496,70 33.137,10 1.214,11 5.557,27 0,00 0,00 6.771,38 26.365,72 31/01/2024
261 545600 ANDERSON MENDES PROCOPIO FERREIRA ANALISTA DO MP BELO HORIZONTE - COMARCA; BH-12PJ JUIZO CRIMINAL-GAB 089PJ 12.343,61 2.468,72 0,00 0,00 0,00 0,00 0,00 8.507,93 23.320,26 2.142,79 2.599,16 0,00 0,00 4.741,95 18.578,31 31/01/2024
262 519900 ANDERSON MOREIRA DOEHLER ANALISTA DO MP TEÓFILO OTONI - COMARCA; COORD REG SAUDE MACRORREGIAO SANIT NORDESTE 12.343,61 4.937,44 0,00 0,00 0,00 0,00 0,00 2.583,00 19.864,05 2.537,79 3.169,44 0,00 0,00 5.707,23 14.156,82 31/01/2024
263 103000 ANDERSON TADEU DE DEUS ASSESSOR ADMINISTRATIVO II BELO HORIZONTE - COMARCA; BH-26 CRIME CONT CRIAN ADOL-SECRETARIA 0,00 6.005,36 7.506,70 0,00 0,00 0,00 544,99 9.429,11 23.486,16 908,85 3.124,87 0,00 0,00 4.033,72 19.452,44 31/01/2024
264 309200 ANDITYAS SOARES DE MOURA COSTA MATOS ANALISTA DO MP BELO HORIZONTE - COMARCA; GABINETE DE PROCURADOR DE JUSTIÇA - SALA 909 21.346,53 8.538,61 0,00 0,00 0,00 0,00 0,00 2.583,00 32.468,14 4.554,44 6.080,98 0,00 0,00 10.635,42 21.832,72 31/01/2024
265 519200 ANDRE BORJA LANA ANALISTA DO MP BELO HORIZONTE - COMARCA; DIR CONTEUDO JORNALISTICO 12.343,61 2.468,72 0,00 0,00 0,00 0,00 0,00 9.654,51 24.466,84 2.142,79 2.599,16 0,00 0,00 4.741,95 19.724,89 31/01/2024
266 637200 ANDRE FERNANDES DA CUNHA OFICIAL DO MP MORADA NOVA DE MINAS - COMARCA; MORADA NOVA DE MINAS-PJ-UNPJ 7.506,70 750,67 0,00 0,00 0,00 0,00 302,77 5.885,95 14.446,09 1.018,60 1.105,70 0,00 0,00 2.124,30 12.321,79 31/01/2024
267 651500 ANDRE GONCALVES MARANHAO OFICIAL DO MP ANDRADAS - COMARCA; ANDRADAS-PJ-02PJ 6.603,76 660,38 0,00 0,00 0,00 0,00 0,00 2.583,00 9.847,14 937,69 854,81 0,00 0,00 1.792,50 8.054,64 31/01/2024
268 521900 ANDRE LUIS GOMES SILVA ANALISTA DO MP FORMIGA - COMARCA; FORMIGA-PJ-02PJ 12.343,61 2.468,72 0,00 0,00 0,00 0,00 0,00 11.374,38 26.186,71 2.142,79 2.045,29 0,00 0,00 4.188,08 21.998,63 31/01/2024
269 304300 ANDRE LUIZ AVELAR ANALISTA DO MP BELO HORIZONTE - COMARCA; DIRETORIA DE REDES E BANCOS DE DADOS 10.341,72 3.102,52 0,00 0,00 0,00 0,00 0,00 2.583,00 16.027,24 1.923,90 2.231,00 0,00 0,00 4.154,90 11.872,34 31/01/2024
270 397400 ANDRE PATARO MYRRHA DE PAULA E SILVA ANALISTA DO MP BELO HORIZONTE - COMARCA; ASSESSORIA JURIDICO-ADMINISTRATIVA 20.533,67 6.160,10 0,00 0,00 0,00 0,00 0,00 9.068,33 35.762,10 4.043,82 5.343,78 0,00 0,00 9.387,60 26.374,50 31/01/2024
271 650100 ANDRE THOME VARGAS OFICIAL DO MP LEOPOLDINA - COMARCA; LEOPOLDINA-PJ-04PJ 7.270,07 727,01 0,00 0,00 0,00 0,00 0,00 8.660,78 16.657,86 1.018,60 1.034,12 0,00 0,00 2.052,72 14.605,14 31/01/2024
272 548500 ANDRE VINICIUS CARVALHO MEIRA ANALISTA DO MP JUIZ DE FORA - COMARCA; JUIZ DE FORA-PJ-24PJ 12.343,61 2.468,72 0,00 0,00 0,00 0,00 0,00 8.507,93 23.320,26 1.018,60 2.763,40 0,00 0,00 3.782,00 19.538,26 31/01/2024
273 297200 ANDRE WILLE ROSARIO ANALISTA DO MP BELO HORIZONTE - COMARCA; ASSESSORIA ESPECIAL DO PGJ 23.070,31 6.921,09 0,00 0,00 0,00 0,00 0,00 8.581,28 38.572,68 4.571,45 6.001,25 0,00 0,00 10.572,70 27.999,98 31/01/2024
274 423600 ANDREA COSTA GUALBERTO ALVES ANALISTA DO MP GOVERNADOR VALADARES - COMARCA; COORD REG PJ DEF EDU DIR CRIANCA ADOL RIODOCE 18.130,77 14.504,62 0,00 0,00 0,00 4.994,48 551,90 8.603,78 46.785,55 4.994,48 8.037,64 0,00 0,00 13.032,12 33.753,43 31/01/2024
275 467300 ANDREA DE CASSIA PENNA ALVERNAZ ANALISTA DO MP PONTE NOVA - COMARCA; PONTE NOVA-PJ-01PJ 12.343,61 2.468,72 0,00 0,00 0,00 0,00 0,00 8.507,93 23.320,26 2.142,79 2.547,03 0,00 0,00 4.689,82 18.630,44 31/01/2024
276 308000 ANDREA DE CASSIA SANTOS OLIVEIRA ANALISTA DO MP BELO HORIZONTE - COMARCA; COORD DE GABINETE DO PGJ 23.070,31 6.921,09 0,00 0,00 0,00 0,00 0,00 8.581,28 38.572,68 4.571,45 6.053,39 0,00 0,00 10.624,84 27.947,84 31/01/2024
277 349500 ANDREA DE OLIVEIRA LOIOLA REGIS OFICIAL DO MP IGUATAMA - COMARCA; IGUATAMA-PJ-UNPJ 12.343,61 3.703,08 0,00 0,00 0,00 0,00 0,00 2.583,00 18.629,69 2.340,29 2.780,03 0,00 0,00 5.120,32 13.509,37 31/01/2024
278 287900 ANDREA FERNANDES PENA MARTINS OFICIAL DO MP MONTES CLAROS - COMARCA; MONTES CLAROS-PJ-09PJ 12.343,61 4.937,44 0,00 1.234,36 411,45 0,00 1.234,36 8.804,18 28.965,40 2.735,29 3.402,44 0,00 197,50 6.335,23 22.630,17 31/01/2024
279 300800 ANDREA FERREIRA ANALISTA DO MP LAVRAS - COMARCA; LAVRAS-PJ-04PJ 22.191,68 6.657,50 0,00 0,00 0,00 0,00 0,00 8.352,84 37.202,02 4.388,69 5.841,67 0,00 0,00 10.230,36 26.971,66 31/01/2024
280 395100 ANDREA LANNA MENDES NOVAIS ANALISTA DO MP BELO HORIZONTE - COMARCA; PROMOT ESTADUAL DE DEF PATRI CULT E TUR DE MG 20.533,67 6.160,10 0,00 0,00 0,00 0,00 0,00 2.583,00 29.276,77 4.043,82 5.291,64 0,00 0,00 9.335,46 19.941,31 31/01/2024
281 67300 ANDREA LEAO MAGALHAES ROQUE ASSESSOR ADMINISTRATIVO IV BELO HORIZONTE - COMARCA; GRUPO ATUACAO ESP COMB CRIMES CIBER 0,00 11.590,57 14.488,22 0,00 0,00 0,00 0,00 2.583,00 28.661,79 908,85 6.528,59 0,00 0,00 7.437,44 21.224,35 31/01/2024
282 335700 ANDREA LOPES PEREIRA ANALISTA DO MP GOVERNADOR VALADARES - COMARCA; COORD REG DO MA DA BACIA DO RIO DOCE 23.070,31 6.921,09 0,00 0,00 0,00 0,00 0,00 2.583,00 32.574,40 4.571,45 6.105,53 0,00 0,00 10.676,98 21.897,42 31/01/2024
283 419000 ANDREIA BARBOSA DE ALMEIDA ANALISTA DO MP BELO HORIZONTE - COMARCA; CENT ESTAD COOPERACAO TECNICO-JURIDICA 18.130,77 5.439,23 0,00 0,00 0,00 0,00 0,00 8.239,80 31.809,80 3.544,02 4.622,18 0,00 0,00 8.166,20 23.643,60 31/01/2024
284 281501 ANDREIA CARLA COSTA ANALISTA DO MP UBÁ - COMARCA; UBA-PJ-02PJ 18.720,84 6.739,50 0,00 0,00 0,00 0,00 0,00 2.583,00 28.043,34 3.846,48 5.058,85 0,00 0,00 8.905,33 19.138,01 31/01/2024
285 477100 ANDREIA DE ALMEIDA RIBEIRO MELO OFICIAL DO MP CONTAGEM - COMARCA; CONTAGEM-PJ-SECRETARIA 10.858,90 3.257,67 0,00 0,00 0,00 0,00 0,00 8.794,29 22.910,86 2.031,47 2.438,44 0,00 0,00 4.469,91 18.440,95 31/01/2024
286 619000 ANDREIA FERREIRA NORONHA COORDENADOR II BELO HORIZONTE - COMARCA; DIRETORIA DE SERVICO CRIMINAL 20.533,67 2.053,37 0,00 0,00 0,00 0,00 0,00 8.003,89 30.590,93 1.094,00 5.025,63 0,00 0,00 6.119,63 24.471,30 31/01/2024
287 747000 ANDREIA FERREIRA TIAGO OFICIAL DO MP SÃO JOÃO DA PONTE - COMARCA; SAO JOAO DA PONTE-PJ-UNPJ 4.570,25 0,00 0,00 0,00 0,00 0,00 0,00 4.056,32 8.626,57 544,12 254,15 0,00 0,00 798,27 7.828,30 31/01/2024
288 424000 ANDREIA LUCIA COUTO ANALISTA DO MP BELO HORIZONTE - COMARCA; BH-18PJ DIREITOS HUMANOS-SECRETARIA 18.720,84 5.616,25 0,00 1.872,08 624,03 0,00 1.872,08 2.583,00 31.288,28 3.966,29 5.231,83 0,00 299,53 9.497,65 21.790,63 31/01/2024
289 370100 ANDREIA MARIA SILVA PINTO OFICIAL DO MP CORONEL FABRICIANO - COMARCA; CORONEL FABRICIANO-PJ-SECRETARIA 12.343,61 3.703,08 0,00 0,00 0,00 0,00 0,00 3.729,58 19.776,27 1.018,60 3.077,39 0,00 0,00 4.095,99 15.680,28 31/01/2024
290 382100 ANDREIA NATALI PEREIRA DE OLIVEIRA OFICIAL DO MP PRADOS - COMARCA; PRADOS-PJ-UNPJ 12.343,61 3.703,08 0,00 0,00 0,00 0,00 0,00 2.583,00 18.629,69 2.340,29 2.884,30 0,00 0,00 5.224,59 13.405,10 31/01/2024
291 275200 ANDREIA RIBEIRO FREITAS OFICIAL DO MP VIÇOSA - COMARCA; VICOSA-PJ-04PJ 13.588,97 5.435,59 0,00 0,00 0,00 0,00 558,05 8.670,86 28.253,47 2.816,75 3.520,05 0,00 0,00 6.336,80 21.916,67 31/01/2024
292 352200 ANDREIA XAVIER PEREIRA OFICIAL DO MP DIVINÓPOLIS - COMARCA; DIVINOPOLIS-PJ-08PJ 12.343,61 3.703,08 0,00 0,00 0,00 0,00 529,54 10.079,68 26.655,91 2.340,29 2.884,30 0,00 0,00 5.224,59 21.431,32 31/01/2024
293 638500 ANDRESA ALVES FEITOSA CASAGRANDE ANALISTA DO MP LAVRAS - COMARCA; COORD REG DO MA DA BACIA DO RIO GRANDE 11.577,56 1.157,76 0,00 0,00 0,00 0,00 0,00 2.583,00 15.318,32 1.018,60 2.337,14 0,00 0,00 3.355,74 11.962,58 31/01/2024
294 383700 ANDRESSA EDUARDO SOUZA ANALISTA DO MP OURO BRANCO - COMARCA; OURO BRANCO-PJ-SECRETARIA 20.533,67 6.160,10 0,00 0,00 0,00 0,00 0,00 3.729,58 30.423,35 4.043,82 5.343,78 0,00 0,00 9.387,60 21.035,75 31/01/2024
295 678400 ANDRESSA LUIZA SILVA LOPES ASSESSOR PROMOTOR JUSTICA CARMO DO PARANAÍBA - COMARCA; CARMO DO PARANAIBA-PJ-02PJ 0,00 0,00 8.810,89 0,00 0,00 0,00 0,00 2.583,00 11.393,89 908,85 1.832,05 0,00 0,00 2.740,90 8.652,99 31/01/2024
296 426200 ANDRESSA MENDES CASAL OFICIAL DO MP BELO HORIZONTE - COMARCA; DIR ESTRUTURA E PROCESSOS ORGANIZACIONAIS 10.516,49 2.103,30 0,00 0,00 0,00 0,00 0,00 3.729,58 16.349,37 1.791,99 2.040,55 0,00 0,00 3.832,54 12.516,83 31/01/2024
297 390100 ANDRESSA RIBEIRO PUCCI OFICIAL DO MP UBERABA - COMARCA; UBERABA-PJ-14PJ 9.699,77 1.939,95 0,00 0,00 0,00 0,00 0,00 8.635,65 20.275,37 1.635,18 1.866,29 0,00 0,00 3.501,47 16.773,90 31/01/2024
298 462500 ANDREZA APARECIDA COSTA E SILVA ANALISTA DO MP CONSELHEIRO LAFAIETE - COMARCA; CONSELHEIRO LAFAIETE-PJ-02PJ 12.343,61 2.468,72 0,00 0,00 0,00 0,00 0,00 4.876,16 19.688,49 1.018,60 2.763,40 0,00 0,00 3.782,00 15.906,49 31/01/2024
299 677700 ANDREZA DE LOURDES FERREIRA DE PAIVA ASSESSOR PROMOTOR JUSTICA ABRE CAMPO - COMARCA; ABRE CAMPO-PJ-01PJ 0,00 0,00 8.810,89 0,00 0,00 0,00 0,00 2.583,00 11.393,89 908,85 1.832,05 0,00 0,00 2.740,90 8.652,99 31/01/2024
300 537800 ANDREZZA LUZIA DE OLIVEIRA ALVES ANALISTA DO MP PATOS DE MINAS - COMARCA; COORD REG PJ DEF EDU DIR CRI ADO AL PAR NOROE 12.343,61 2.468,72 0,00 0,00 0,00 0,00 0,00 8.507,93 23.320,26 2.142,79 2.547,03 0,00 0,00 4.689,82 18.630,44 31/01/2024
301 491600 ANE PATRICIA RIBEIRO DUARTE ANALISTA DO MP SETE LAGOAS - COMARCA; SETE LAGOAS-PJ-11PJ 12.343,61 2.468,72 0,00 0,00 0,00 0,00 0,00 2.583,00 17.395,33 2.142,79 2.547,03 0,00 0,00 4.689,82 12.705,51 31/01/2024
302 465800 ANELISE GAMA ASSESSOR ADMINISTRATIVO III BELO HORIZONTE - COMARCA; BH-18PJ VIOLENCIA DOMESTICA-SECRETARIA 0,00 0,00 10.858,90 0,00 0,00 0,00 0,00 8.663,98 19.522,88 908,85 2.395,25 0,00 0,00 3.304,10 16.218,78 31/01/2024
303 535200 ANELIZE FERNANDA ALVES VILARINHO OFICIAL DO MP CAPINÓPOLIS - COMARCA; CAPINOPOLIS-PJ-UNPJ 7.506,70 1.501,34 0,00 0,00 0,00 0,00 0,00 9.855,05 18.863,09 1.214,11 1.258,37 0,00 0,00 2.472,48 16.390,61 31/01/2024
304 197200 ANGELA COELHO SALDANHA OFICIAL DO MP PARÁ DE MINAS - COMARCA; PARA DE MINAS-PJ-03PJ 22.191,68 11.095,84 0,00 0,00 0,00 0,00 0,00 2.583,00 35.870,52 5.098,82 6.866,93 0,00 0,00 11.965,75 23.904,77 31/01/2024
305 307400 ANGELA CRISTINA GONCALVES MUNIZ ANALISTA DO MP UBERLÂNDIA - COMARCA; UBERLANDIA-PJ-SEC FAMILIA 23.070,31 9.228,12 0,00 0,00 0,00 0,00 473,71 7.750,75 40.522,89 4.940,57 6.534,18 0,00 0,00 11.474,75 29.048,14 31/01/2024
306 191800 ANGELA MARIA DE OLIVEIRA OFICIAL DO MP GUARANÉSIA - COMARCA; GUARANESIA-PJ-SECRETARIA 22.191,68 17.753,35 0,00 0,00 0,00 5.787,22 0,00 7.788,26 53.520,51 5.787,22 9.236,39 2.355,07 0,00 17.378,68 36.141,83 31/01/2024
307 497400 ANGELA MARIA HENRIQUES ANALISTA DO MP BELO HORIZONTE - COMARCA; COORD REG BACIAS RIO VELHAS E PARAOPEBA 12.343,61 2.468,72 0,00 0,00 0,00 0,00 543,12 8.507,93 23.863,38 2.142,79 2.599,16 0,00 0,00 4.741,95 19.121,43 31/01/2024
308 260700 ANGELICA CRISTINA AZEVEDO MOREIRA MOUCO OFICIAL DO MP UBÁ - COMARCA; UBA-PJ-05PJ 18.130,77 7.252,31 0,00 0,00 0,00 0,00 0,00 8.674,94 34.058,02 3.834,11 5.041,01 0,00 0,00 8.875,12 25.182,90 31/01/2024
309 708300 ANGELICA NUNES VIEIRA DA SILVA ASSESSOR PROMOTOR JUSTICA IBIRITÉ - COMARCA; IBIRITE-PJ-02PJ 0,00 0,00 8.810,89 0,00 0,00 0,00 0,00 7.869,53 16.680,42 908,85 1.832,05 0,00 0,00 2.740,90 13.939,52 31/01/2024
310 334600 ANGELICA PANISSA DE FREITAS GALLATI OFICIAL DO MP GUAXUPÉ - COMARCA; GUAXUPE-PJ-02PJ 12.343,61 4.937,44 0,00 0,00 0,00 0,00 0,00 9.950,76 27.231,81 2.537,79 3.117,30 0,00 0,00 5.655,09 21.576,72 31/01/2024
311 521100 ANGELICA SALES MOREIRA OFICIAL DO MP BELO HORIZONTE - COMARCA; BH-02PJ FAMILIA-SECRETARIA 10.516,49 2.103,30 0,00 0,00 0,00 0,00 0,00 8.640,50 21.260,29 1.791,99 2.092,69 0,00 0,00 3.884,68 17.375,61 31/01/2024
312 466500 ANGELLO MARQUES AGRELLI ANALISTA DO MP MAR DE ESPANHA - COMARCA; MAR DE ESPANHA-PJ-UNPJ 12.343,61 2.468,72 0,00 0,00 0,00 0,00 0,00 3.729,58 18.541,91 2.142,79 2.599,16 0,00 0,00 4.741,95 13.799,96 31/01/2024
313 363300 ANGELO VERDOLIN HENRIQUES ANALISTA DO MP SETE LAGOAS - COMARCA; SETE LAGOAS-PJ-04PJ 22.191,68 8.876,67 0,00 0,00 0,00 0,00 0,00 8.796,67 39.865,02 4.743,76 6.354,30 0,00 0,00 11.098,06 28.766,96 31/01/2024
314 250900 ANISIO APARECIDO SANTOS OFICIAL DO MP BETIM - COMARCA; BETIM - SECRETARIA DAS PJS CRIMINAIS 7.506,70 3.002,68 0,00 0,00 0,00 0,00 0,00 8.468,25 18.977,63 1.454,32 934,13 0,00 0,00 2.388,45 16.589,18 31/01/2024
315 698100 ANNA CAROLINA POLICARIO BERTOLIN ASSESSOR PROCURADOR JUSTICA BELO HORIZONTE - COMARCA; PROC. JUSTICA DIR. DIFUSOS E COLETIVOS-SEC 0,00 0,00 8.810,89 0,00 0,00 0,00 0,00 2.583,00 11.393,89 908,85 1.832,05 0,00 0,00 2.740,90 8.652,99 31/01/2024
316 253400 ANNA FLAVIA LEHMAN ANALISTA DO MP BELO HORIZONTE - COMARCA; SUPRIN DE PLANEJAMENTO E COORDENACAO 23.070,31 9.228,12 8.404,02 0,00 0,00 0,00 0,00 8.597,39 49.299,84 4.940,57 7.651,90 3.112,49 0,00 15.704,96 33.594,88 31/01/2024
317 688800 ANNA LUIZA MATTOS DUARTE ASSESSOR PROCURADOR JUSTICA BELO HORIZONTE - COMARCA; GABINETE DE PROCURADOR DE JUSTICA - SALA 311 0,00 0,00 8.810,89 0,00 0,00 0,00 484,60 7.869,53 17.165,02 908,85 1.832,05 0,00 0,00 2.740,90 14.424,12 31/01/2024
318 752100 ANNABELLA ZAVOLI VILLARINHO CARDOSO OFICIAL DO MP ALÉM PARAÍBA - COMARCA; ALEM PARAIBA-PJ-01PJ 4.570,25 0,00 0,00 0,00 0,00 0,00 0,00 2.583,00 7.153,25 544,12 254,15 0,00 0,00 798,27 6.354,98 31/01/2024
319 447600 ANNGELUCE ALCANTARA DE CAMPOS OFICIAL DO MP DIVINÓPOLIS - COMARCA; DIVINOPOLIS-PJ-07PJ 10.516,49 3.154,95 0,00 0,00 0,00 0,00 0,00 8.598,43 22.269,87 1.960,25 2.335,62 0,00 0,00 4.295,87 17.974,00 31/01/2024
320 630300 ANTONIA GOMES RAMALHO OFICIAL DO MP NOVO CRUZEIRO - COMARCA; NOVO CRUZEIRO-PJ-UNPJ 7.506,70 750,67 0,00 0,00 0,00 0,00 0,00 4.876,16 13.133,53 1.094,00 1.084,97 0,00 0,00 2.178,97 10.954,56 31/01/2024
321 401600 ANTONIO CARLOS GUEDES AROUCA ANALISTA DO MP BELO HORIZONTE - COMARCA; ASSESSORIA JURIDICO-ADMINISTRATIVA 17.005,40 3.401,08 0,00 0,00 0,00 0,00 0,00 2.583,00 22.989,48 3.037,86 3.891,41 0,00 0,00 6.929,27 16.060,21 31/01/2024
322 333900 ANTONIO GONCALVES DE SOUZA FILHO OFICIAL DO MP BELO HORIZONTE - COMARCA; DIRETORIA DE CONTABILIDADE 12.343,61 3.703,08 0,00 0,00 0,00 0,00 0,00 2.583,00 18.629,69 2.340,29 2.884,30 0,00 0,00 5.224,59 13.405,10 31/01/2024
323 176100 ANTONIO MARCELO CAMPOS CAMPANELLA OFICIAL DO MP BELO HORIZONTE - COMARCA; COORD DE GABINETE DO PGJ 22.191,68 11.095,84 0,00 0,00 0,00 0,00 0,00 7.909,00 41.196,52 5.098,82 6.866,93 0,00 0,00 11.965,75 29.230,77 31/01/2024
324 321001 ANTONIO OLINTO VIEIRA MACHADO ANALISTA DO MP BELO HORIZONTE - COMARCA; CENTRAL DE APOIO TECN-SETOR DE MEIO AMBIENTE 20.533,67 6.160,10 0,00 0,00 0,00 4.043,82 0,00 8.730,52 39.468,11 4.043,82 6.351,55 0,00 0,00 10.395,37 29.072,74 31/01/2024
325 356200 ANTONIO PAULA DA SILVA OFICIAL DO MP JUIZ DE FORA - COMARCA; JUIZ DE FORA-PJ-20PJ 12.343,61 4.937,44 0,00 0,00 0,00 0,00 0,00 8.804,18 26.085,23 2.537,79 3.169,44 0,00 0,00 5.707,23 20.378,00 31/01/2024
326 119900 ANTONIO RODRIGUES DE PINHO OFICIAL DO MP GUANHÃES - COMARCA; GUANHAES-PJ-01PJ 21.346,53 17.077,23 0,00 0,00 0,00 0,00 0,00 8.597,39 47.021,15 5.787,22 7.732,23 833,80 0,00 14.353,25 32.667,90 31/01/2024
327 373300 ANTONIO SERGIO ANANIAS OFICIAL DO MP SÃO JOÃO NEPOMUCENO - COMARCA; SAO JOAO NEPOMUCENO-PJ-01PJ 12.343,61 3.703,08 0,00 0,00 0,00 0,00 0,00 2.583,00 18.629,69 1.018,60 3.195,63 0,00 0,00 4.214,23 14.415,46 31/01/2024
328 608100 ANTONIO SIDINEY VIEIRA LEMOS ANALISTA DO MP PIRAPORA - COMARCA; PIRAPORA-PJ-01PJ 12.343,61 6.171,81 0,00 0,00 0,00 0,00 0,00 9.654,51 28.169,93 2.735,29 3.402,44 0,00 0,00 6.137,73 22.032,20 31/01/2024
329 374700 ANTONIO SILVA NETO OFICIAL DO MP BELO HORIZONTE - COMARCA; GAECO - SECRETARIA 12.343,61 3.703,08 0,00 0,00 0,00 0,00 0,00 3.729,58 19.776,27 2.340,29 2.884,30 0,00 0,00 5.224,59 14.551,68 31/01/2024
330 636700 ANTONIUS VITORIANO FERNANDES OFICIAL DO MP BELO HORIZONTE - COMARCA; ASSESSORIA JURIDICA DO PROCON-MG 6.818,83 681,88 0,00 0,00 0,00 0,00 0,00 2.583,00 10.083,71 974,36 909,79 0,00 0,00 1.884,15 8.199,56 31/01/2024
331 413200 ANY PEREIRA SILVA ANALISTA DO MP TRÊS PONTAS - COMARCA; TRES PONTAS-PJ-01PJ 18.130,77 5.439,23 0,00 0,00 0,00 0,00 0,00 8.239,80 31.809,80 3.544,02 4.622,18 0,00 0,00 8.166,20 23.643,60 31/01/2024
332 151401 APARECIDA DE FATIMA MENDES DE ALMEIDA ASSESSOR ADMINISTRATIVO II JUIZ DE FORA - COMARCA; JUIZ DE FORA-PJ-SECRETARIA 0,00 0,00 7.506,70 0,00 0,00 0,00 0,00 2.583,00 10.089,70 908,85 1.473,40 0,00 0,00 2.382,25 7.707,45 31/01/2024
333 329300 APARECIDA MARIA MELO DE ASSIS OFICIAL DO MP BELO HORIZONTE - COMARCA; BH-18PJ DIREITOS HUMANOS-SECRETARIA 12.343,61 3.703,08 0,00 0,00 0,00 0,00 0,00 2.583,00 18.629,69 2.340,29 2.884,30 0,00 0,00 5.224,59 13.405,10 31/01/2024
334 653000 APARECIDA ROSA DE LIMA ASSESSOR ADMINISTRATIVO III BELO HORIZONTE - COMARCA; SECRETARIA PROCESSOS DISCIPES ADMINISTRATIVOS 0,00 0,00 10.858,90 0,00 0,00 0,00 0,00 8.663,98 19.522,88 908,85 2.395,25 0,00 0,00 3.304,10 16.218,78 31/01/2024
335 354500 APARECIDA VIEIRA DE CARVALHO OFICIAL DO MP BELO HORIZONTE - COMARCA; DIVISÃO DE EDUCAÇÃO PARA O CONSUMO 10.858,90 3.257,67 0,00 0,00 0,00 0,00 0,00 8.794,29 22.910,86 2.031,47 2.438,44 0,00 0,00 4.469,91 18.440,95 31/01/2024
336 551000 ARACELES BICALHO FELIX ANALISTA DO MP MANHUAÇU - COMARCA; MANHUACU-PJ-06PJ 12.343,61 2.468,72 0,00 0,00 0,00 0,00 0,00 4.876,16 19.688,49 2.142,79 2.599,16 0,00 0,00 4.741,95 14.946,54 31/01/2024
337 286200 ARACELI MEDRADO DOS SANTOS LIMA OFICIAL DO MP PARACATU - COMARCA; PARACATU-PJ-03PJ 7.506,70 3.002,68 0,00 0,00 0,00 0,00 0,00 9.614,83 20.124,21 1.454,32 1.605,18 0,00 0,00 3.059,50 17.064,71 31/01/2024
338 112200 ARAQUEM AUGUSTO DE MATOS AGENTE DO MP BELO HORIZONTE - COMARCA; BH-23PJ CIVEL-SEC EXP CIVEIS 13.588,97 12.230,08 0,00 0,00 0,00 3.903,87 0,00 2.583,00 32.305,92 3.903,87 6.111,00 0,00 0,00 10.014,87 22.291,05 31/01/2024
339 280600 ARDUINO FRATTEZI ANALISTA DO MP BELO HORIZONTE - COMARCA; CENTRAL DE APOIO TECNICO-SETOR CONTABIL 23.070,31 9.228,12 0,00 0,00 0,00 4.940,57 0,00 8.541,24 45.780,24 4.940,57 7.997,11 0,00 0,00 12.937,68 32.842,56 31/01/2024
340 520201 ARIANE DE FATIMA CARVALHO ALMEIDA RODRIGUES ANALISTA DO MP VESPASIANO - COMARCA; VESPASIANO-PJ-SECRETARIA 12.343,61 1.234,36 0,00 0,00 0,00 0,00 0,00 4.302,87 17.880,84 1.945,30 2.157,61 0,00 0,00 4.102,91 13.777,93 31/01/2024
341 537600 ARIELA FREIRE MONTIJO ANALISTA DO MP ARCOS - COMARCA; ARCOS-PJ-01PJ 12.343,61 2.468,72 0,00 0,00 0,00 0,00 0,00 2.583,00 17.395,33 2.142,79 2.494,89 0,00 0,00 4.637,68 12.757,65 31/01/2024
342 182000 ARILSON ALEXANDRE MARTINS MAGALHAES OFICIAL DO MP JOÃO MONLEVADE - COMARCA; JOAO MONLEVADE-PJ-01PJ 21.346,53 10.673,27 0,00 0,00 0,00 0,00 0,00 12.292,49 44.312,29 4.895,99 6.313,40 0,00 0,00 11.209,39 33.102,90 31/01/2024
343 511000 ARISLANE CAROLINA DA SILVA ANALISTA DO MP MONTE CARMELO - COMARCA; MONTE CARMELO-PJ-02PJ 12.343,61 2.468,72 0,00 0,00 0,00 0,00 543,12 10.801,09 26.156,54 2.142,79 2.599,16 0,00 0,00 4.741,95 21.414,59 31/01/2024
344 170000 ARLEY BRITES DA SILVA ASSESSOR ADMINISTRATIVO II BELO HORIZONTE - COMARCA; BH-14PJ DEFESA CONSUMIDOR-SECRETARIA 0,00 3.753,35 7.506,70 0,00 0,00 0,00 0,00 8.438,23 19.698,28 908,85 1.756,99 0,00 0,00 2.665,84 17.032,44 31/01/2024
345 243700 ARLINDO MARCIO LACERDA OFICIAL DO MP CONTAGEM - COMARCA; CONTAGEM-PJ-SECRETARIA 18.130,77 9.065,39 0,00 0,00 0,00 0,00 1.771,66 2.583,00 31.550,82 4.124,21 5.947,03 0,00 0,00 10.071,24 21.479,58 31/01/2024
346 392100 ARNALDO DE ANDRADE OFICIAL DO MP DIVINÓPOLIS - COMARCA; DIVINOPOLIS-PJ-02PJ 12.343,61 4.443,70 0,00 0,00 0,00 0,00 1.771,66 8.521,87 27.080,84 2.458,79 3.490,45 0,00 0,00 5.949,24 21.131,60 31/01/2024
347 642400 ARTANE INARDE DE SIQUEIRA DAMASCENO ANALISTA DO MP BELO HORIZONTE - COMARCA; SECRETARIA DE ASSUNTOS INTERNACIONAIS 10.341,72 1.034,17 0,00 0,00 0,00 0,00 0,00 4.302,87 15.678,76 1.018,60 1.889,25 0,00 0,00 2.907,85 12.770,91 31/01/2024
348 733000 ARTHUR BRANDAO ALBUQUERQUE ASSESSOR ADMINISTRATIVO II BELO HORIZONTE - COMARCA; DIRETORIA DE PAGAMENTO DE PESSOAL-DPAG 0,00 0,00 7.506,70 0,00 2.502,23 0,00 0,00 2.583,00 12.591,93 908,85 2.161,51 0,00 0,00 3.070,36 9.521,57 31/01/2024
349 302100 AUGUSTO ROUSSEAU DE CASTRO ANALISTA DO MP CATAGUASES - COMARCA; CATAGUASES-PJ-02PJ 23.070,31 6.921,09 0,00 0,00 0,00 0,00 0,00 8.581,28 38.572,68 4.571,45 6.105,53 0,00 0,00 10.676,98 27.895,70 31/01/2024
350 540200 AUREA AVELAR BITTENCOURT OFICIAL DO MP BELO HORIZONTE - COMARCA; GRUPO ESP PROM JUST DEF PROB ADM PAT PUB 7.506,70 1.501,34 0,00 0,00 0,00 0,00 0,00 8.708,47 17.716,51 1.018,60 1.209,59 0,00 0,00 2.228,19 15.488,32 31/01/2024
351 633501 AUREA GONTIJO BIRCHAL ASSESSOR DE GABINETE I BELO HORIZONTE - COMARCA; PROCURADOR-GERAL DE JUSTIÇA 0,00 0,00 18.130,77 0,00 0,00 0,00 0,00 8.384,85 26.515,62 908,85 4.395,02 0,00 0,00 5.303,87 21.211,75 31/01/2024
352 183200 AURELIANO MAGELA DE REZENDE OFICIAL DO MP BELO HORIZONTE - COMARCA; COORD DE GABINETE DO PGJ 23.070,31 9.228,12 6.160,10 0,00 0,00 0,00 551,32 8.597,39 47.607,24 4.940,57 8.014,00 868,57 0,00 13.823,14 33.784,10 31/01/2024
353 629400 AYESKA DA COSTA VAL MOURA DABIEN OFICIAL DO MP BELO HORIZONTE - COMARCA; BH-09PJ AUDITORIA MILITAR-SECRETARIA 7.506,70 750,67 0,00 0,00 0,00 0,00 0,00 2.583,00 10.840,37 1.094,00 1.084,97 0,00 0,00 2.178,97 8.661,40 31/01/2024
354 707400 AYMEE JOHANSSENN TYNEE CORREIA ALVES ASSESSOR PROMOTOR JUSTICA NOVA LIMA - COMARCA; NOVA LIMA-PJ-01PJ 0,00 0,00 8.810,89 0,00 0,00 0,00 0,00 8.574,41 17.385,30 908,85 1.832,05 0,00 0,00 2.740,90 14.644,40 31/01/2024
355 701600 BARBARA CHAVES OLIVEIRA ASSESSOR PROCURADOR JUSTICA BELO HORIZONTE - COMARCA; PROC. JUSTICA DIR. DIFUSOS E COLETIVOS-SEC 0,00 0,00 8.810,89 0,00 0,00 0,00 484,60 7.869,53 17.165,02 908,85 1.832,05 0,00 0,00 2.740,90 14.424,12 31/01/2024
356 691900 BARBARA COUTINHO REIS ASSESSOR PROCURADOR JUSTICA BELO HORIZONTE - COMARCA; GABINETE DE PROCURADOR DE JUSTIÇA - SALA 910 0,00 0,00 8.810,89 0,00 0,00 0,00 0,00 2.583,00 11.393,89 908,85 1.832,05 0,00 0,00 2.740,90 8.652,99 31/01/2024
357 692200 BARBARA CRISTINA MENDES BANDEIRA DE MELO DUTRA ASSESSOR PROCURADOR JUSTICA BELO HORIZONTE - COMARCA; GABINETE DE PROCURADOR DE JUSTIÇA - SALA 1009 0,00 0,00 8.810,89 0,00 0,00 0,00 0,00 8.574,41 17.385,30 908,85 1.832,05 0,00 0,00 2.740,90 14.644,40 31/01/2024
358 743300 BARBARA CRISTINA SOUZA E SOUSA ASSESSOR PROCURADOR JUSTICA BELO HORIZONTE - COMARCA; GABINETE DE PROCURADOR DE JUSTIÇA - SALA 513 0,00 0,00 8.810,89 0,00 0,00 0,00 0,00 2.583,00 11.393,89 908,85 1.832,05 0,00 0,00 2.740,90 8.652,99 31/01/2024
359 723400 BARBARA CRISTINA TAVARES CARNEIRO ASSESSOR PROCURADOR JUSTICA BELO HORIZONTE - COMARCA; GABINETE DE PROCURADOR DE JUSTIÇA - SALA 501 0,00 0,00 8.810,89 0,00 0,00 0,00 0,00 8.574,41 17.385,30 908,85 1.832,05 0,00 0,00 2.740,90 14.644,40 31/01/2024
360 652800 BARBARA JULIANNE MOREIRA CASTRO ASSESSOR PROCURADOR JUSTICA BELO HORIZONTE - COMARCA; ASSESS TECNICO-JUR JUNTO AS PROC. DE JUST 0,00 0,00 8.810,89 0,00 0,00 0,00 0,00 8.574,41 17.385,30 908,85 1.832,05 0,00 0,00 2.740,90 14.644,40 31/01/2024
361 707700 BARBARA LOUISE PUFF DE OLIVEIRA ASSESSOR PROMOTOR JUSTICA RIBEIRÃO DAS NEVES - COMARCA; RIBEIRAO DAS NEVES-PJ-02PJ 0,00 0,00 8.810,89 0,00 0,00 0,00 0,00 2.583,00 11.393,89 908,85 1.832,05 0,00 0,00 2.740,90 8.652,99 31/01/2024
362 663600 BARBARA REGINA PEREIRA DE PINHO MAGALHAES ASSESSOR PROMOTOR JUSTICA BELO HORIZONTE - COMARCA; CAO-DH CONT EXT ATIV POLIC E AP COMUNIT 0,00 0,00 8.810,89 0,00 0,00 0,00 0,00 2.583,00 11.393,89 908,85 1.832,05 0,00 0,00 2.740,90 8.652,99 31/01/2024
363 546500 BARBARA ZACARONI GOULART OFICIAL DO MP BETIM - COMARCA; BETIM-PJ-08PJ 7.506,70 1.501,34 0,00 0,00 0,00 0,00 0,00 8.708,47 17.716,51 1.214,11 1.258,37 0,00 0,00 2.472,48 15.244,03 31/01/2024
364 316500 BEATRIZ ABILVIA DA SILVA ANALISTA DO MP GOVERNADOR VALADARES - COMARCA; GOVERNADOR VALADARES-PJ-07PJ 23.070,31 6.921,09 0,00 0,00 0,00 4.571,45 0,00 8.113,05 42.675,90 4.571,45 7.362,68 0,00 0,00 11.934,13 30.741,77 31/01/2024
365 311800 BEATRIZ APARECIDA SOARES GANEM OFICIAL DO MP ITAMBACURI - COMARCA; ITAMBACURI-PJ-02PJ 14.960,00 5.984,00 0,00 0,00 0,00 0,00 0,00 8.447,32 29.391,32 3.123,86 3.911,30 0,00 0,00 7.035,16 22.356,16 31/01/2024
366 266800 BEATRIZ AUGUSTA VILACA GOMES DE HUBER OFICIAL DO MP BELO HORIZONTE - COMARCA; BH-05PJ-JUÍZO SUCESSÕES-SEC 12.343,61 4.937,44 0,00 0,00 0,00 0,00 0,00 2.583,00 19.864,05 2.537,79 3.169,44 0,00 0,00 5.707,23 14.156,82 31/01/2024
367 235200 BEATRIZ BOTELHO BATISTA OFICIAL DO MP MATEUS LEME - COMARCA; MATEUS LEME-PJ-02PJ 12.343,61 4.937,44 0,00 0,00 0,00 0,00 0,00 2.583,00 19.864,05 2.537,79 3.169,44 0,00 0,00 5.707,23 14.156,82 31/01/2024
368 182300 BEATRIZ PAULA SOUSA RAMOS OFICIAL DO MP MARIANA - COMARCA; MARIANA-PJ-01PJ 21.346,53 10.673,27 0,00 0,00 0,00 0,00 0,00 2.583,00 34.602,80 4.895,99 6.574,09 0,00 0,00 11.470,08 23.132,72 31/01/2024
369 507000 BELCHIOR FRANKLIN AMARAL LEITE ANALISTA DO MP BELO HORIZONTE - COMARCA; CAO ORGAOS MPMG DESIG FUNC ELEITORAIS-SEC 14.960,00 3.889,60 0,00 0,00 0,00 0,00 0,00 8.614,87 27.464,47 2.788,76 3.375,36 0,00 0,00 6.164,12 21.300,35 31/01/2024
370 345100 BENITO ELIAS RODRIGUES ANALISTA DO MP BARBACENA - COMARCA; BARBACENA - SECRETARIA DAS PJS CRIMINAIS 22.191,68 6.657,50 0,00 0,00 0,00 0,00 0,00 3.729,58 32.578,76 4.388,69 5.789,54 0,00 0,00 10.178,23 22.400,53 31/01/2024
371 207300 BENITO VIEIRA DOS SANTOS ANALISTA DO MP BELO HORIZONTE - COMARCA; PROC JUST ESP ACOES COMP ORIG CRIMINAL-ASSESS 23.070,31 11.535,16 0,00 0,00 0,00 5.309,70 0,00 7.372,83 47.288,00 5.309,70 7.092,97 0,00 0,00 12.402,67 34.885,33 31/01/2024
372 480200 BERNADETE NUNES DOS SANTOS ANALISTA DO MP GUANHÃES - COMARCA; GUANHAES-PJ-02PJ 12.343,61 4.937,44 0,00 0,00 0,00 0,00 0,00 2.583,00 19.864,05 2.537,79 3.169,44 0,00 0,00 5.707,23 14.156,82 31/01/2024
373 378400 BETANIA FARNESI DE SOUZA E SILVA OFICIAL DO MP CURVELO - COMARCA; CURVELO-PJ-01PJ 12.343,61 4.937,44 0,00 0,00 0,00 0,00 0,00 8.804,18 26.085,23 2.537,79 3.117,30 0,00 0,00 5.655,09 20.430,14 31/01/2024
374 387400 BETANIA MENDONCA DE ASSIS CARVALHO ANALISTA DO MP JUIZ DE FORA - COMARCA; JUIZ DE FORA-PJ-03PJ 20.533,67 6.160,10 0,00 0,00 0,00 0,00 0,00 3.729,58 30.423,35 4.043,82 5.291,64 0,00 0,00 9.335,46 21.087,89 31/01/2024
375 714400 BIANCA DE CASTRO RAMOS ASSESSOR PROMOTOR JUSTICA BETIM - COMARCA; BETIM-PJ-13PJ 0,00 0,00 8.810,89 0,00 0,00 0,00 0,00 6.107,36 14.918,25 908,85 1.832,05 0,00 0,00 2.740,90 12.177,35 31/01/2024
376 450300 BIANCA OLIVEIRA DE ALBUQUERQUE ANALISTA DO MP BELO HORIZONTE - COMARCA; BH-10PJ EXECUÇÃO PENAL-SECRETARIA 12.343,61 2.468,72 0,00 0,00 0,00 0,00 0,00 3.729,58 18.541,91 2.142,79 2.599,16 0,00 0,00 4.741,95 13.799,96 31/01/2024
377 535400 BIANCA SALOTO ROSSI ANALISTA DO MP SANTOS DUMONT - COMARCA; SANTOS DUMONT-PJ-01PJ 12.343,61 2.468,72 0,00 0,00 0,00 0,00 0,00 3.729,58 18.541,91 2.142,79 2.599,16 0,00 0,00 4.741,95 13.799,96 31/01/2024
378 120800 BRAS MARQUES DE SOUZA ANALISTA DO MP BELO HORIZONTE - COMARCA; SUPERINTENDENCIA DE GESTAO ADMINISTRATIVA 29.122,38 26.210,14 0,00 0,00 0,00 5.787,22 0,00 2.583,00 63.702,74 5.787,22 7.721,60 17.742,56 0,00 31.251,38 32.451,36 31/01/2024
379 756500 BRENDA LORRANA FRANCO ASSESSOR PROMOTOR JUSTICA UBERLÂNDIA - COMARCA; UBERLANDIA-PJ-20PJ 0,00 0,00 8.810,89 0,00 0,00 0,00 0,00 2.583,00 11.393,89 908,85 1.832,05 0,00 0,00 2.740,90 8.652,99 31/01/2024
380 724400 BRENDA PIMENTEL DE SOUZA VIANA ASSESSOR PROMOTOR JUSTICA MANHUMIRIM - COMARCA; MANHUMIRIM-PJ-01PJ 0,00 0,00 8.810,89 0,00 0,00 0,00 0,00 8.574,41 17.385,30 908,85 1.832,05 0,00 0,00 2.740,90 14.644,40 31/01/2024
381 710500 BRENNO VINICIUS MAGESTE ROSA ASSESSOR PROMOTOR JUSTICA MANHUAÇU - COMARCA; MANHUACU-PJ-02PJ 0,00 0,00 8.223,50 0,00 0,00 0,00 0,00 8.394,59 16.618,09 908,85 1.621,07 0,00 0,00 2.529,92 14.088,17 31/01/2024
382 460900 BRENO CRISTIANO DE SOUZA REZENDE ANALISTA DO MP ITAÚNA - COMARCA; ITAUNA-PJ-02PJ 12.343,61 2.468,72 0,00 0,00 0,00 0,00 543,12 8.507,93 23.863,38 2.142,79 2.599,16 0,00 0,00 4.741,95 19.121,43 31/01/2024
383 239000 BRENO VENANCIO ROMANINI OFICIAL DO MP BELO HORIZONTE - COMARCA; BH-20PJ ORD ECON TRIBUTARIA-SECRETARIA 12.343,61 4.937,44 0,00 0,00 0,00 0,00 506,91 8.112,94 25.900,90 2.537,79 3.169,44 0,00 0,00 5.707,23 20.193,67 31/01/2024
384 722100 BRUNA HENRIQUE DE SOUZA ASSESSOR PROMOTOR JUSTICA PIRAPETINGA - COMARCA; PIRAPETINGA-PJ-UNPJ 0,00 0,00 8.810,89 0,00 0,00 0,00 549,21 8.574,41 17.934,51 908,85 1.832,05 0,00 0,00 2.740,90 15.193,61 31/01/2024
385 642300 BRUNA IZABELITA DE FATIMA OLIVEIRA COSTA OFICIAL DO MP BELO HORIZONTE - COMARCA; BH-02PJ FAMILIA-SECRETARIA 7.506,70 750,67 0,00 0,00 0,00 0,00 544,99 8.528,31 17.330,67 1.094,00 1.084,97 0,00 0,00 2.178,97 15.151,70 31/01/2024
386 513600 BRUNA KARLA MARTINS CARVALHO ANALISTA DO MP GOVERNADOR VALADARES - COMARCA; GOVERNADOR VALADARES-PJ-14PJ 12.343,61 2.468,72 0,00 0,00 0,00 0,00 0,00 8.507,93 23.320,26 1.018,60 2.763,40 0,00 0,00 3.782,00 19.538,26 31/01/2024
387 415100 BRUNA MARIA SOARES OLIVEIRA COSTA RAMOS ANALISTA DO MP UBÁ - COMARCA; COORD REG BACIA DO RIO PARAIBA DO SUL 18.720,84 5.616,25 0,00 0,00 0,00 0,00 535,42 8.423,90 33.296,41 1.018,60 5.186,26 0,00 0,00 6.204,86 27.091,55 31/01/2024
388 692900 BRUNA MENDES COELHO ASSESSOR PROCURADOR JUSTICA BELO HORIZONTE - COMARCA; GABINETE DE PROCURADOR DE JUSTIÇA - SALA 801 0,00 0,00 8.810,89 0,00 0,00 0,00 0,00 2.583,00 11.393,89 908,85 1.832,05 0,00 0,00 2.740,90 8.652,99 31/01/2024
389 470000 BRUNA MORAES ANALISTA DO MP TOMBOS - COMARCA; TOMBOS-PJ-UNPJ 17.559,01 4.565,34 0,00 0,00 0,00 0,00 0,00 8.777,82 30.902,17 3.312,72 4.131,83 0,00 0,00 7.444,55 23.457,62 31/01/2024
390 614700 BRUNA NATTANY DE LIMA OFICIAL DO MP MANTENA - COMARCA; MANTENA-PJ-01PJ 7.506,70 750,67 0,00 0,00 0,00 0,00 0,00 9.674,89 17.932,26 1.094,00 1.084,97 0,00 0,00 2.178,97 15.753,29 31/01/2024
391 729800 BRUNA PAULA AMARAL CEOLIN ASSESSOR PROMOTOR JUSTICA COMARCA - JUATUBA; JUATUBA-PJ-UNPJ 0,00 0,00 8.810,89 0,00 0,00 0,00 0,00 2.583,00 11.393,89 908,85 1.832,05 0,00 0,00 2.740,90 8.652,99 31/01/2024
392 631800 BRUNA RAPOSO JORGE OFICIAL DO MP JUIZ DE FORA - COMARCA; JUIZ DE FORA-PJ-06PJ 7.506,70 750,67 0,00 0,00 0,00 0,00 0,00 9.674,89 17.932,26 1.094,00 1.084,97 0,00 0,00 2.178,97 15.753,29 31/01/2024
393 699300 BRUNA URSINE TIMO ASSESSOR PROCURADOR JUSTICA BELO HORIZONTE - COMARCA; PROC JUST ESP ACOES COMP ORIG CRIMINAL-GAB 0,00 0,00 8.810,89 0,00 0,00 0,00 323,07 6.107,36 15.241,32 908,85 1.832,05 0,00 0,00 2.740,90 12.500,42 31/01/2024
394 463800 BRUNO ALVES TEIXEIRA ANALISTA DO MP UBERLÂNDIA - COMARCA; UBERLANDIA-PJ-04PJ 12.343,61 2.468,72 0,00 0,00 0,00 0,00 0,00 8.507,93 23.320,26 2.142,79 2.599,16 0,00 0,00 4.741,95 18.578,31 31/01/2024
395 538500 BRUNO AUGUSTO DA SILVA OFICIAL DO MP SANTA LUZIA - COMARCA; SANTA LUZIA-PJ-03PJ 7.506,70 1.501,34 0,00 0,00 0,00 0,00 0,00 2.583,00 11.591,04 1.214,11 1.258,37 0,00 0,00 2.472,48 9.118,56 31/01/2024
396 318200 BRUNO BARROS DE SOUZA OFICIAL DO MP BELO HORIZONTE - COMARCA; DIRETORIA GESTAO CONTRATOS CONVENIOS 12.343,61 3.703,08 0,00 0,00 0,00 0,00 2.439,10 8.359,81 26.845,60 1.018,60 3.351,66 0,00 0,00 4.370,26 22.475,34 31/01/2024
397 459600 BRUNO CASTELAR LUGAO MENDES OFICIAL DO MP BELO HORIZONTE - COMARCA; PROC JUST ATUACAO TRIBUNAIS SUPERIORES 11.212,54 2.242,51 4.346,47 0,00 0,00 0,00 0,00 9.426,07 27.227,59 1.018,60 3.613,42 0,00 0,00 4.632,02 22.595,57 31/01/2024
398 427400 BRUNO CESAR RIBEIRO DE PAIVA ANALISTA DO MP BELO HORIZONTE - COMARCA; DIRETORIA DO COLEGIO E DA CAMARA DE PJ 18.720,84 3.744,17 0,00 0,00 0,00 0,00 0,00 7.974,60 30.439,61 3.367,22 4.366,93 0,00 0,00 7.734,15 22.705,46 31/01/2024
399 380900 BRUNO CIRILO ANTUNES OFICIAL DO MP VARGINHA - COMARCA; VARGINHA-PJ-05PJ 12.343,61 3.703,08 0,00 0,00 0,00 0,00 0,00 8.359,81 24.406,50 2.340,29 2.884,30 0,00 0,00 5.224,59 19.181,91 31/01/2024
400 329000 BRUNO DE MELO REIS ANALISTA DO MP PATROCÍNIO - COMARCA; PATROCINIO-PJ-02PJ 23.070,31 9.228,12 0,00 0,00 0,00 0,00 0,00 10.043,91 42.342,34 4.940,57 6.534,18 0,00 0,00 11.474,75 30.867,59 31/01/2024
401 697800 BRUNO GAZZOLA BEZERRA FALCAO ASSESSOR PROCURADOR JUSTICA BELO HORIZONTE - COMARCA; PROCURADOR-GERAL ADJUNTO JURIDICO- GABINETE 0,00 0,00 8.810,89 0,00 0,00 0,00 0,00 8.574,41 17.385,30 908,85 1.832,05 0,00 0,00 2.740,90 14.644,40 31/01/2024
402 378300 BRUNO HERDY LOPES DE OLIVEIRA ANALISTA DO MP GOVERNADOR VALADARES - COMARCA; GOVERNADOR VALADARES-PJ-03PJ 20.533,67 6.160,10 0,00 0,00 0,00 0,00 0,00 7.921,75 34.615,52 4.043,82 5.343,78 0,00 0,00 9.387,60 25.227,92 31/01/2024
403 529700 BRUNO JOSE BUENO DIAS OFICIAL DO MP SÃO SEBASTIÃO DO PARAÍSO - COMARCA; SAO SEBASTIAO DO PARAISO-PJ-02PJ 7.506,70 1.501,34 0,00 0,00 0,00 0,00 561,50 8.708,47 18.278,01 1.214,11 1.206,23 0,00 0,00 2.420,34 15.857,67 31/01/2024
404 691600 BRUNO JOSE RIBEIRO ASSESSOR PROMOTOR JUSTICA CLÁUDIO - COMARCA; CLAUDIO-PJ-UNPJ 0,00 0,00 8.810,89 0,00 0,00 0,00 0,00 2.583,00 11.393,89 908,85 1.832,05 0,00 0,00 2.740,90 8.652,99 31/01/2024
405 350100 BRUNO LAUD SERRANO DOS REIS OFICIAL DO MP UBÁ - COMARCA; UBA-PJ-02PJ 12.343,61 4.937,44 0,00 0,00 0,00 0,00 0,00 8.804,18 26.085,23 2.537,79 3.117,30 0,00 0,00 5.655,09 20.430,14 31/01/2024
406 728900 BRUNO LIMA PITANGA ASSESSOR PROMOTOR JUSTICA BELO HORIZONTE - COMARCA; NUCLEO DA EXECUCAO PENAL 0,00 0,00 8.810,89 0,00 0,00 0,00 0,00 3.194,51 12.005,40 908,85 1.832,05 0,00 0,00 2.740,90 9.264,50 31/01/2024
407 745900 BRUNO LUIZ MARQUES ROCHA OFICIAL DO MP RIBEIRÃO DAS NEVES - COMARCA; RIBEIRAO NEVES-SEC PJ EXECUCAO PENAL 4.570,25 0,00 0,00 0,00 0,00 0,00 0,00 2.583,00 7.153,25 544,12 254,15 0,00 0,00 798,27 6.354,98 31/01/2024
408 373800 BRUNO MARTINO DE ALBUQUERQUE ANALISTA DO MP PONTE NOVA - COMARCA; PONTE NOVA-PJ-03PJ 20.533,67 6.160,10 0,00 0,00 0,00 0,00 0,00 7.921,75 34.615,52 4.043,82 5.239,50 0,00 0,00 9.283,32 25.332,20 31/01/2024
409 732900 BRUNO NOGUEIRA GUIMARAES ASSESSOR ADMINISTRATIVO I BELO HORIZONTE - COMARCA; COORD DE INCLUSAO E MOBILIZACAO SOCIAIS 0,00 0,00 4.872,71 0,00 1.624,24 0,00 0,00 2.583,00 9.079,95 777,91 1.231,73 0,00 0,00 2.009,64 7.070,31 31/01/2024
410 470400 BRUNO NOVAIS CABRAL ANALISTA DO MP MUTUM - COMARCA; MUTUM-PJ-UNPJ 12.343,61 2.468,72 0,00 0,00 0,00 0,00 888,74 9.654,51 25.355,58 2.142,79 2.599,16 0,00 142,20 4.884,15 20.471,43 31/01/2024
411 648600 BRUNO RIBEIRO E MELO COORDENADOR I BELO HORIZONTE - COMARCA; DIR RELACOES INSTITUCIONAIS 0,00 0,00 16.469,17 0,00 0,00 0,00 0,00 8.511,90 24.981,07 908,85 3.938,08 0,00 0,00 4.846,93 20.134,14 31/01/2024
412 369200 BRUNO ROBERTO DIAS DE OLIVEIRA OFICIAL DO MP BELO HORIZONTE - COMARCA; BH-22PJ PES COM DEF E IDOSOS-SECRETARIA 12.343,61 3.703,08 0,00 0,00 0,00 0,00 0,00 8.359,81 24.406,50 1.018,60 3.077,39 0,00 0,00 4.095,99 20.310,51 31/01/2024
413 547700 BRUNO ROBERTO SOUZA GONCALVES ANALISTA DO MP PARACATU - COMARCA; PARACATU-PJ-03PJ 12.343,61 2.468,72 0,00 0,00 0,00 0,00 0,00 9.654,51 24.466,84 2.142,79 2.599,16 0,00 0,00 4.741,95 19.724,89 31/01/2024
414 546100 BRUNO SA VIEIRA ANALISTA DO MP BARBACENA - COMARCA; BARBACENA-PJ-SECRETARIA 12.343,61 2.468,72 0,00 0,00 0,00 0,00 0,00 3.729,58 18.541,91 2.142,79 2.494,89 0,00 0,00 4.637,68 13.904,23 31/01/2024
415 438200 BRUNO SALES PEREIRA ANALISTA DO MP BELO HORIZONTE - COMARCA; CENTRAL DE APOIO TECNICO-SETOR CONTABIL 17.559,01 3.511,80 0,00 0,00 0,00 0,00 540,82 8.482,83 30.094,46 3.144,15 3.992,73 0,00 0,00 7.136,88 22.957,58 31/01/2024
416 537400 BRUNO SANT'ANA CESAR ANALISTA DO MP BELO HORIZONTE - COMARCA; BH-12PJ JUIZO CRIMINAL-GAB 105PJ 12.343,61 2.468,72 0,00 0,00 0,00 0,00 0,00 8.507,93 23.320,26 2.142,79 2.599,16 0,00 0,00 4.741,95 18.578,31 31/01/2024
417 727700 BYANKA DA SILVA MORAIS ASSESSOR PROCURADOR JUSTICA BELO HORIZONTE - COMARCA; GABINETE DE PROCURADOR DE JUSTIÇA - SALA 805 0,00 0,00 8.810,89 0,00 0,00 0,00 0,00 2.583,00 11.393,89 908,85 1.832,05 0,00 0,00 2.740,90 8.652,99 31/01/2024
418 748100 CAETANO ALBERTO MARTINS BOTELHO ASSESSOR PROMOTOR JUSTICA COROMANDEL - COMARCA; COROMANDEL-PJ-02PJ 0,00 0,00 8.810,89 0,00 0,00 0,00 0,00 2.583,00 11.393,89 908,85 1.832,05 0,00 0,00 2.740,90 8.652,99 31/01/2024
419 405800 CAIO FERNANDO RODRIGUES DE OLIVEIRA ANALISTA DO MP BELO HORIZONTE - COMARCA; ASSESSORIA JURIDICO-ADMINISTRATIVA 18.720,84 5.616,25 0,00 0,00 0,00 0,00 0,00 8.423,90 32.760,99 1.018,60 5.368,32 0,00 0,00 6.386,92 26.374,07 31/01/2024
420 530000 CAIO GUEDES DE OLIVEIRA ANALISTA DO MP DIAMANTINA - COMARCA; DIAMANTINA-PJ-02PJ 12.343,61 2.468,72 0,00 0,00 0,00 0,00 0,00 8.507,93 23.320,26 2.142,79 2.547,03 0,00 0,00 4.689,82 18.630,44 31/01/2024
421 491400 CAIO MIRANDA JUNQUEIRA ANALISTA DO MP BELO HORIZONTE - COMARCA; CENT ESTAD COOPERACAO TECNICO-JURIDICA 12.343,61 2.468,72 0,00 0,00 0,00 0,00 543,12 8.507,93 23.863,38 2.142,79 2.494,89 0,00 0,00 4.637,68 19.225,70 31/01/2024
422 415800 CAMILA ALVES DA SILVA ANALISTA DO MP CAETÉ - COMARCA; CAETE-PJ-01PJ 18.720,84 5.616,25 0,00 0,00 0,00 0,00 0,00 8.423,90 32.760,99 3.666,76 4.799,38 0,00 0,00 8.466,14 24.294,85 31/01/2024
423 555800 CAMILA CAROLINE ROCHA CHAVES OFICIAL DO MP SALINAS - COMARCA; SALINAS-PJ-01PJ 7.506,70 1.501,34 0,00 0,00 0,00 0,00 561,50 9.855,05 19.424,59 1.214,11 1.258,37 0,00 0,00 2.472,48 16.952,11 31/01/2024
424 747700 CAMILA CATIA VILELA VIANA ASSESSOR DE CAO BELO HORIZONTE - COMARCA; CAO-SAUDE-ASSESSORIA 0,00 0,00 7.506,70 0,00 0,00 0,00 0,00 2.583,00 10.089,70 567,99 1.023,19 0,00 0,00 1.591,18 8.498,52 31/01/2024
425 445200 CAMILA CONDE ROCHA ANALISTA DO MP CONTAGEM - COMARCA; CONTAGEM-PJ-21PJ 14.960,00 2.992,00 0,00 0,00 0,00 0,00 0,00 8.327,64 26.279,64 2.645,14 3.324,43 0,00 0,00 5.969,57 20.310,07 31/01/2024
426 419900 CAMILA CUNNINGHAM PIMENTA DE PADUA ANALISTA DO MP BELO HORIZONTE - COMARCA; ASSESSORIA PSICOSSOCIAL 18.720,84 5.616,25 0,00 0,00 0,00 0,00 0,00 2.583,00 26.920,09 3.666,76 4.799,38 0,00 0,00 8.466,14 18.453,95 31/01/2024
427 742700 CAMILA DA SILVA GONCALVES ANALISTA DO MP BELO HORIZONTE - COMARCA; DIV FISCAL ADM CONT TERCEIRIZACAO 7.040,78 0,00 0,00 0,00 0,00 0,00 0,00 2.583,00 9.623,78 903,07 802,91 0,00 0,00 1.705,98 7.917,80 31/01/2024
428 714200 CAMILA DE SOUSA CUNHA ASSESSOR PROMOTOR JUSTICA PRADOS - COMARCA; PRADOS-PJ-UNPJ 0,00 0,00 8.810,89 0,00 0,00 0,00 0,00 8.574,41 17.385,30 908,85 1.832,05 0,00 0,00 2.740,90 14.644,40 31/01/2024
429 507700 CAMILA ELIZABETH RODRIGUES ANALISTA DO MP BELO HORIZONTE - COMARCA; BH-02PJ FAMILIA-SECRETARIA 15.447,01 3.089,40 0,00 0,00 0,00 0,00 0,00 8.514,65 27.051,06 2.738,65 3.459,42 0,00 0,00 6.198,07 20.852,99 31/01/2024
430 372700 CAMILA FONSECA LIMONGE ANALISTA DO MP BETIM - COMARCA; BETIM-PJ-01PJ 20.533,67 6.160,10 0,00 0,00 0,00 0,00 0,00 7.921,75 34.615,52 4.043,82 5.343,78 0,00 0,00 9.387,60 25.227,92 31/01/2024
431 621300 CAMILA GOLFETO DE SOUSA VALENTE OFICIAL DO MP CARANGOLA - COMARCA; CARANGOLA-PJ-SECRETARIA 7.506,70 750,67 0,00 0,00 0,00 0,00 0,00 10.248,18 18.505,55 1.094,00 980,69 0,00 0,00 2.074,69 16.430,86 31/01/2024
432 409800 CAMILA GONCALVES COSTA RIBEIRO ANALISTA DO MP IPATINGA - COMARCA; GAECO REGIONAL DE IPATINGA 12.343,61 3.703,08 0,00 0,00 0,00 0,00 0,00 9.506,39 25.553,08 2.340,29 2.780,03 0,00 0,00 5.120,32 20.432,76 31/01/2024
433 335000 CAMILA GONTIJO DE PAIVA ANALISTA DO MP BELO HORIZONTE - COMARCA; COORD DE CONTROLE CONSTITUCIONALIDADE 23.070,31 6.921,09 0,00 0,00 0,00 0,00 0,00 8.581,28 38.572,68 4.571,45 6.053,39 0,00 0,00 10.624,84 27.947,84 31/01/2024
434 693400 CAMILA HECKSHER MONTEIRO ASSESSOR PROCURADOR JUSTICA BELO HORIZONTE - COMARCA; GABINETE DE PROCURADOR DE JUSTIÇA - SALA 613 0,00 0,00 8.810,89 0,00 2.936,96 0,00 0,00 2.583,00 14.330,85 908,85 2.639,72 0,00 0,00 3.548,57 10.782,28 31/01/2024
435 696000 CAMILA IMACULADA OLIVEIRA ASSESSOR PROCURADOR JUSTICA BELO HORIZONTE - COMARCA; GABINETE DE PROCURADOR DE JUSTICA - SALA 312 0,00 0,00 8.810,89 0,00 0,00 0,00 0,00 8.574,41 17.385,30 908,85 1.832,05 0,00 0,00 2.740,90 14.644,40 31/01/2024
436 547800 CAMILA MATTARELLI DE ABREU E SILVA ANALISTA DO MP BELO HORIZONTE - COMARCA; CAO-VIOLENCIA DOMESTICA E FAMILIAR 12.343,61 2.468,72 0,00 0,00 0,00 0,00 543,12 8.507,93 23.863,38 2.142,79 2.599,16 0,00 0,00 4.741,95 19.121,43 31/01/2024
437 735800 CAMILA REGINA DE OLIVEIRA ASSESSOR ADMINISTRATIVO II BELO HORIZONTE - COMARCA; CENTRO AUTOCOMPOSICAO DE CONFLITOS 0,00 0,00 7.506,70 0,00 0,00 0,00 0,00 2.583,00 10.089,70 908,85 1.473,40 0,00 0,00 2.382,25 7.707,45 31/01/2024
438 752700 CAMILA RODRIGUES MAURO ASSESSOR PROMOTOR JUSTICA CONTAGEM - COMARCA; CONTAGEM-PJ-22PJ 0,00 0,00 8.810,89 0,00 0,00 0,00 0,00 2.583,00 11.393,89 908,85 1.832,05 0,00 0,00 2.740,90 8.652,99 31/01/2024
439 758300 CAMILA VENANCIO DIAS ASSESSOR PROCURADOR JUSTICA BELO HORIZONTE - COMARCA; SUPER DE GESTAO DE PESSOAS-LOTACAO TEMPORARIA 0,00 0,00 8.810,89 0,00 0,00 0,00 3.818,05 3.938,00 16.566,94 908,85 3.088,26 0,00 0,00 3.997,11 12.569,83 31/01/2024
440 430000 CANDIDA MARINA COSTA ANALISTA DO MP BELO HORIZONTE - COMARCA; DIRET DE INFORMACAO E CONHECIMENTO-DINC/CEAF 18.720,84 3.744,17 0,00 0,00 0,00 0,00 0,00 2.583,00 25.048,01 3.367,22 4.366,93 0,00 0,00 7.734,15 17.313,86 31/01/2024
441 614300 CARINA CORTIELHA OFICIAL DO MP BELO HORIZONTE - COMARCA; BH-23PJ CIVEL-FISC AC POL PUB I 7.506,70 750,67 0,00 0,00 0,00 0,00 0,00 8.528,31 16.785,68 1.094,00 1.084,97 0,00 0,00 2.178,97 14.606,71 31/01/2024
442 380400 CARINA DIAS FACANHA DE SOUZA ANALISTA DO MP SANTA RITA DO SAPUCAÍ - COMARCA; SANTA RITA DO SAPUCAI-PJ-01PJ 20.533,67 6.160,10 0,00 0,00 0,00 0,00 0,00 9.068,33 35.762,10 4.043,82 5.343,78 0,00 0,00 9.387,60 26.374,50 31/01/2024
443 255000 CARLA ADRIANA DE MENEZES OFICIAL DO MP BELO HORIZONTE - COMARCA; CENT DE APOIO TEC-SETOR DEF,IDOSO E INFANC 12.343,61 4.937,44 0,00 0,00 0,00 0,00 0,00 8.804,18 26.085,23 2.537,79 3.169,44 0,00 0,00 5.707,23 20.378,00 31/01/2024
444 425100 CARLA ADRIANA DINIZ AMARAL OFICIAL DO MP CONTAGEM - COMARCA; CONTAGEM-PJ-SECRETARIA 12.343,61 3.703,08 2.918,39 3.637,12 1.128,42 5.190,59 1.234,36 8.548,51 38.704,08 2.537,79 5.458,56 0,00 197,50 8.193,85 30.510,23 31/01/2024
445 508100 CARLA ALESSANDRA FONSECA ANALISTA DO MP BELO HORIZONTE - COMARCA; CAO-ORDEM ECONOMICA E TRIBUTARIA-SECRETARIA 12.343,61 2.468,72 0,00 0,00 0,00 0,00 0,00 8.507,93 23.320,26 2.142,79 2.599,16 0,00 0,00 4.741,95 18.578,31 31/01/2024
446 607100 CARLA ANGELICA DIAS MIRANDA OFICIAL DO MP SANTA LUZIA - COMARCA; SANTA LUZIA-PJ-SECRETARIA 7.506,70 1.501,34 0,00 750,67 250,22 0,00 750,67 7.987,82 18.747,42 1.334,22 1.275,36 0,00 120,11 2.729,69 16.017,73 31/01/2024
447 351500 CARLA APARECIDA MENDES RAMIRIO OFICIAL DO MP PASSOS - COMARCA; PASSOS-PJ-01PJ 12.343,61 3.703,08 0,00 0,00 0,00 0,00 0,00 2.583,00 18.629,69 2.340,29 2.832,16 0,00 0,00 5.172,45 13.457,24 31/01/2024
448 752600 CARLA CHRISTIAN DE LIMA OFICIAL DO MP MARTINHO CAMPOS - COMARCA; MARTINHO CAMPOS-PJ-UNPJ 4.570,25 0,00 0,00 0,00 0,00 0,00 0,00 2.583,00 7.153,25 544,12 254,15 0,00 0,00 798,27 6.354,98 31/01/2024
449 713100 CARLA DOS SANTOS SOUZA ASSESSOR PROMOTOR JUSTICA ESPERA FELIZ - COMARCA; ESPERA FELIZ-PJ-UNPJ 0,00 0,00 8.810,89 0,00 0,00 0,00 0,00 2.583,00 11.393,89 908,85 1.832,05 0,00 0,00 2.740,90 8.652,99 31/01/2024
450 442800 CARLA GONCALVES COSTA SOALHEIRO ANALISTA DO MP GOVERNADOR VALADARES - COMARCA; GOVERNADOR VALADARES-PJ-11PJ 13.419,43 2.717,79 0,00 0,00 0,00 0,00 0,00 9.600,01 25.737,23 2.381,90 2.845,62 0,00 0,00 5.227,52 20.509,71 31/01/2024
451 321500 CARLA GONCALVES MASSOTE OFICIAL DO MP CAMPO BELO - COMARCA; CAMPO BELO-PJ-02PJ 12.343,61 3.703,08 0,00 0,00 0,00 0,00 0,00 8.359,81 24.406,50 2.340,29 2.884,30 0,00 0,00 5.224,59 19.181,91 31/01/2024
452 429200 CARLA HAUTEQUESTT BECHARA ANALISTA DO MP BELO HORIZONTE - COMARCA; DIRETORIA DE INTELIGENCIA 18.720,84 3.744,17 0,00 0,00 0,00 0,00 0,00 7.974,60 30.439,61 3.367,22 4.366,93 0,00 0,00 7.734,15 22.705,46 31/01/2024
453 247500 CARLA MATILDE GUIMARAES DE OLIVEIRA OFICIAL DO MP ITAJUBA - COMARCA; ITAJUBA-PJ-SECRETARIA 12.343,61 4.937,44 0,00 0,00 0,00 0,00 0,00 2.583,00 19.864,05 2.537,79 3.117,30 0,00 0,00 5.655,09 14.208,96 31/01/2024
454 226100 CARLA MERLI DA CONCEICAO ANALISTA DO MP BELO HORIZONTE - COMARCA; CENTRAL DE APOIO TECNICO-SETOR CONTABIL 23.070,31 9.228,12 0,00 0,00 0,00 0,00 0,00 2.583,00 34.881,43 4.940,57 6.586,31 0,00 0,00 11.526,88 23.354,55 31/01/2024
455 181401 CARLO MICHEL GAUDENSI COELHO ANALISTA DO MP BELO HORIZONTE - COMARCA; BH-08PJ JUIZADO ESPECIAL-GAB 013PJ 18.130,77 7.252,31 0,00 0,00 0,00 0,00 0,00 8.674,94 34.058,02 3.834,11 5.041,01 0,00 0,00 8.875,12 25.182,90 31/01/2024
456 634000 CARLOS ALBERTO AMORMINO TRIGUEIRO ANALISTA DO MP BELO HORIZONTE - COMARCA; DIRET DE APOIO AS PROCURADORIAS DE JUSTICA 11.577,56 1.157,76 0,00 0,00 0,00 0,00 0,00 3.729,58 16.464,90 1.018,60 2.182,92 0,00 0,00 3.201,52 13.263,38 31/01/2024
457 637900 CARLOS ALBERTO DE MOURA OFICIAL DO MP SETE LAGOAS - COMARCA; SETE LAGOAS-PJ-07PJ 7.506,70 750,67 0,00 0,00 0,00 0,00 0,00 2.583,00 10.840,37 1.018,60 1.053,56 0,00 0,00 2.072,16 8.768,21 31/01/2024
458 638700 CARLOS ALBERTO FERREIRA BRAGA ANALISTA DO MP VESPASIANO - COMARCA; VESPASIANO-PJ-06PJ 11.577,56 1.157,76 0,00 0,00 0,00 0,00 0,00 8.695,95 21.431,27 1.018,60 2.232,86 0,00 0,00 3.251,46 18.179,81 31/01/2024
459 375801 CARLOS ALBERTO ROCHA ANALISTA DO MP VARGINHA - COMARCA; GAECO REGIONAL DE VARGINHA 12.343,61 3.703,08 0,00 0,00 0,00 0,00 0,00 10.652,97 26.699,66 2.340,29 2.780,03 0,00 0,00 5.120,32 21.579,34 31/01/2024
460 462800 CARLOS ANDREI SOARES FAGUNDES ANALISTA DO MP MONTES CLAROS - COMARCA; MONTES CLAROS-PJ-09PJ 12.343,61 2.468,72 0,00 0,00 0,00 0,00 0,00 8.507,93 23.320,26 2.142,79 2.547,03 0,00 0,00 4.689,82 18.630,44 31/01/2024
461 370300 CARLOS AUGUSTO BUENO DIAS ASSESSOR ADMINISTRATIVO IV BELO HORIZONTE - COMARCA; DIRETORIA DE FISCALIZACAO DE OBRAS 0,00 0,00 14.488,22 0,00 0,00 0,00 0,00 8.378,29 22.866,51 908,85 2.950,70 0,00 0,00 3.859,55 19.006,96 31/01/2024
462 505100 CARLOS CEZAR CARVALHO ANALISTA DO MP CONTAGEM - COMARCA; CONTAGEM-PJ-02PJ 12.343,61 6.171,81 0,00 0,00 0,00 0,00 0,00 8.507,93 27.023,35 2.735,29 3.350,30 0,00 0,00 6.085,59 20.937,76 31/01/2024
463 196800 CARLOS EDUARDO DE OLIVEIRA MARINHO OFICIAL DO MP ALPINÓPOLIS - COMARCA; ALPINOPOLIS-PJ-UNPJ 22.191,68 15.534,18 0,00 0,00 0,00 0,00 0,00 8.597,40 46.323,26 5.787,22 7.796,20 135,90 0,00 13.719,32 32.603,94 31/01/2024
464 650800 CARLOS EDUARDO NIZA DA SILVA OFICIAL DO MP IGARAPÉ - COMARCA; IGARAPE-PJ-01PJ 7.270,07 727,01 0,00 0,00 0,00 0,00 557,13 9.807,36 18.361,57 1.018,60 929,85 0,00 0,00 1.948,45 16.413,12 31/01/2024
465 491800 CARLOS EDUARDO ROMAN OFICIAL DO MP BARBACENA - COMARCA; BARBACENA-PJ-09PJ 10.858,90 3.257,67 0,00 0,00 0,00 0,00 0,00 2.583,00 16.699,57 2.031,47 2.438,44 0,00 0,00 4.469,91 12.229,66 31/01/2024
466 299300 CARLOS HENRIQUE BICALHO ANALISTA DO MP BELO HORIZONTE - COMARCA; BH-17PJ PATRIMONIO PUBLICO-SECRETARIA 23.070,31 11.535,16 0,00 0,00 0,00 0,00 507,55 9.266,46 44.379,48 5.309,70 7.171,38 0,00 0,00 12.481,08 31.898,40 31/01/2024
467 351600 CARLOS HENRIQUE FELICIO DA FONSECA OFICIAL DO MP JUIZ DE FORA - COMARCA; JUIZ DE FORA-PJ-21PJ 12.343,61 4.937,44 0,00 0,00 0,00 0,00 0,00 8.804,18 26.085,23 2.537,79 3.117,30 0,00 0,00 5.655,09 20.430,14 31/01/2024
468 729100 CARLOS HENRIQUE TEIXEIRA BRAGA ASSESSOR ADMINISTRATIVO II BELO HORIZONTE - COMARCA; DIRETORIA DE SUPORTE E MANUTENCAO 0,00 0,00 7.506,70 0,00 0,00 0,00 0,00 2.583,00 10.089,70 908,85 1.473,40 0,00 0,00 2.382,25 7.707,45 31/01/2024
469 85400 CARLOS JOSE VIEIRA OFICIAL DO MP BELO HORIZONTE - COMARCA; DIRETORIA DO COLEGIO E DA CAMARA DE PJ 29.122,38 26.210,15 0,00 0,00 0,00 5.787,22 0,00 7.788,26 68.908,01 5.787,22 7.825,87 17.742,57 0,00 31.355,66 37.552,35 31/01/2024
470 229100 CARLOS MERCES DE OLIVEIRA ANALISTA DO MP BELO HORIZONTE - COMARCA; CENTRAL DE APOIO TECN-SETOR DE MEIO AMBIENTE 23.070,31 9.228,12 0,00 0,00 0,00 0,00 0,00 2.583,00 34.881,43 4.940,57 5.248,18 0,00 0,00 10.188,75 24.692,68 31/01/2024
471 538300 CARLOS RANGEL SILVA DE MELO ANALISTA DO MP BELO HORIZONTE - COMARCA; DIVISAO DE CONTROLE IMOBILIARIO 12.343,61 4.937,44 0,00 0,00 0,00 0,00 0,00 4.876,16 22.157,21 2.537,79 3.169,44 0,00 0,00 5.707,23 16.449,98 31/01/2024
472 265100 CARLOS REIFF MIRANDA ANALISTA DO MP BELO HORIZONTE - COMARCA; BH-19PJ SAUDE-SECRETARIA 150PJ 23.070,31 9.228,12 0,00 0,00 0,00 0,00 0,00 2.583,00 34.881,43 4.940,57 6.638,45 0,00 0,00 11.579,02 23.302,41 31/01/2024
473 305400 CARLOS ROCHA DE SOUZA OFICIAL DO MP MONTALVÂNIA - COMARCA; MONTALVANIA-PJ-SECRETARIA 7.506,70 2.252,01 0,00 0,00 0,00 0,00 0,00 7.014,93 16.773,64 1.334,22 1.223,23 0,00 0,00 2.557,45 14.216,19 31/01/2024
474 744500 CARLOS THIAGO COSTA FIGUEREDO OFICIAL DO MP PARAOPEBA - COMARCA; PARAOPEBA-PJ-UNPJ 4.570,25 0,00 0,00 0,00 0,00 0,00 0,00 2.583,00 7.153,25 544,12 254,15 0,00 0,00 798,27 6.354,98 31/01/2024
475 399900 CARMELITA EVANGELISTA DE SOUZA OFICIAL DO MP JOÃO PINHEIRO - COMARCA; JOAO PINHEIRO-PJ-01PJ 11.212,54 2.242,51 0,00 0,00 0,00 0,00 0,00 8.503,22 21.958,27 1.925,63 2.285,63 0,00 0,00 4.211,26 17.747,01 31/01/2024
476 202000 CARMEN LUCIA MARIZ DE MACEDO OFICIAL DO MP BELO HORIZONTE - COMARCA; DIRETORIA GESTAO COMPRAS LICITACOES 21.346,53 17.077,22 5.434,83 0,00 0,00 5.787,22 0,00 7.788,27 57.434,07 5.787,22 8.773,38 6.268,62 0,00 20.829,22 36.604,85 31/01/2024
477 701900 CAROLINA CARVALHO COSTA ASSESSOR PROCURADOR JUSTICA BELO HORIZONTE - COMARCA; GABINETE DE PROCURADOR DE JUSTIÇA - SALA 811 0,00 0,00 8.810,89 0,00 0,00 0,00 0,00 2.583,00 11.393,89 908,85 1.832,05 0,00 0,00 2.740,90 8.652,99 31/01/2024
478 228500 CAROLINA CHIARELLA DOS SANTOS RIBEIRO COORDENADOR I BELO HORIZONTE - COMARCA; DIVISAO DE SERVICOS 16.469,17 6.587,67 0,00 0,00 0,00 0,00 0,00 8.116,64 31.173,48 2.537,79 4.653,50 0,00 0,00 7.191,29 23.982,19 31/01/2024
479 446500 CAROLINA COSTA VAL RODRIGUES ANALISTA DO MP BELO HORIZONTE - COMARCA; DIVISAO DE MATERIAIS 18.130,77 5.439,23 4.940,75 0,00 0,00 0,00 522,70 8.285,15 37.318,60 3.544,02 5.980,89 0,00 0,00 9.524,91 27.793,69 31/01/2024
480 751500 CAROLINA DA MATTA AMBROSIO OFICIAL DO MP MANHUMIRIM - COMARCA; MANHUMIRIM-PJ-02PJ 4.570,25 0,00 0,00 0,00 0,00 0,00 0,00 2.583,00 7.153,25 544,12 254,15 0,00 0,00 798,27 6.354,98 31/01/2024
481 603501 CAROLINA DOMINGOS BRANDAO RABELLO ANALISTA DO MP BARROSO - COMARCA; BARROSO-PJ-01PJ 12.343,61 2.468,72 0,00 0,00 0,00 0,00 0,00 4.876,16 19.688,49 2.142,79 2.599,16 0,00 0,00 4.741,95 14.946,54 31/01/2024
482 404300 CAROLINA DOS SANTOS VIEIRA ANALISTA DO MP BELO HORIZONTE - COMARCA; BH-08PJ JUIZADO ESPECIAL-SECRETARIA 20.533,67 6.160,10 0,00 0,00 0,00 0,00 0,00 2.583,00 29.276,77 4.043,82 5.239,50 0,00 0,00 9.283,32 19.993,45 31/01/2024
483 551200 CAROLINA LOPES ARANTES MASCARENHAS ANALISTA DO MP BELO HORIZONTE - COMARCA; CAO-VIOLENCIA DOMESTICA E FAMILIAR 12.343,61 2.468,72 0,00 0,00 0,00 0,00 0,00 9.654,51 24.466,84 2.142,79 2.494,89 0,00 0,00 4.637,68 19.829,16 31/01/2024
484 622600 CAROLINA LOREDO LOPES CATIZANI OFICIAL DO MP RIBEIRÃO DAS NEVES - COMARCA; RIBEIRAO DAS NEVES-PJ-12PJ 7.506,70 750,67 0,00 0,00 0,00 0,00 0,00 2.583,00 10.840,37 1.094,00 1.084,97 0,00 0,00 2.178,97 8.661,40 31/01/2024
485 382200 CAROLINA MENDES CHAVES LIN ANALISTA DO MP BELO HORIZONTE - COMARCA; BH-12PJ JUIZO CRIMINAL-GAB 088PJ 12.343,61 3.703,08 0,00 0,00 0,00 0,00 0,00 3.729,58 19.776,27 2.340,29 2.832,16 0,00 0,00 5.172,45 14.603,82 31/01/2024
486 461900 CAROLINA MURTA TEIXEIRA DIAS ANALISTA DO MP BELO HORIZONTE - COMARCA; DIR CRIACAO E MIDIAS 12.343,61 2.468,72 0,00 0,00 0,00 0,00 0,00 2.583,00 17.395,33 2.142,79 2.599,16 0,00 0,00 4.741,95 12.653,38 31/01/2024
487 509600 CAROLINA PINTO DE OLIVEIRA SOUZA ANALISTA DO MP MURIAÉ - COMARCA; MURIAE-PJ-01PJ 12.343,61 2.468,72 0,00 0,00 0,00 0,00 0,00 9.654,51 24.466,84 2.142,79 2.494,89 0,00 0,00 4.637,68 19.829,16 31/01/2024
488 629100 CAROLINA RODRIGUES AMARAL ANALISTA DO MP BELO HORIZONTE - COMARCA; PROC. JUSTICA DIR. DIFUSOS E COLETIVOS-SEC 12.343,61 1.234,36 0,00 0,00 0,00 0,00 0,00 8.557,31 22.135,28 1.945,30 2.314,02 0,00 0,00 4.259,32 17.875,96 31/01/2024
489 502600 CAROLINA RODRIGUES RUBEN ANALISTA DO MP BELO HORIZONTE - COMARCA; BH-18PJ VIOLENCIA DOMESTICA-GAB 007PJ 12.343,61 2.468,72 0,00 0,00 0,00 0,00 0,00 10.801,09 25.613,42 2.142,79 2.494,89 0,00 0,00 4.637,68 20.975,74 31/01/2024
490 754000 CAROLINA SILVA MASSON CURSI OFICIAL DO MP CANÁPOLIS - COMARCA; CANAPOLIS-PJ-UNPJ 4.570,25 0,00 0,00 0,00 0,00 0,00 0,00 2.583,00 7.153,25 544,12 254,15 0,00 0,00 798,27 6.354,98 31/01/2024
491 529600 CAROLINA VAZ DE MELO MAMBRINI ANALISTA DO MP BELO HORIZONTE - COMARCA; BH-14PJ DEFESA CONSUMIDOR-GAB 005PJ 12.343,61 2.468,72 0,00 0,00 0,00 0,00 0,00 2.583,00 17.395,33 2.142,79 2.599,16 0,00 0,00 4.741,95 12.653,38 31/01/2024
492 619100 CAROLINA ZAKHIA NARDELLI RODRIGUES ANALISTA DO MP NEPOMUCENO - COMARCA; NEPOMUCENO-PJ-UNPJ 12.343,61 1.234,36 0,00 0,00 0,00 0,00 0,00 9.703,89 23.281,86 1.945,30 2.261,89 0,00 0,00 4.207,19 19.074,67 31/01/2024
493 517600 CAROLINE ALVES DE OLIVEIRA MULLER ANALISTA DO MP VISCONDE DO RIO BRANCO - COMARCA; VISCONDE DO RIO BRANCO-PJ-01PJ 12.343,61 3.703,08 0,00 0,00 0,00 0,00 529,54 8.359,81 24.936,04 2.340,29 2.832,16 0,00 0,00 5.172,45 19.763,59 31/01/2024
494 373200 CAROLINE ANTUNES RIBEIRO OFICIAL DO MP JACUI - COMARCA; JACUI-PJ-UNPJ 12.343,61 3.703,08 0,00 0,00 0,00 0,00 0,00 8.359,81 24.406,50 2.340,29 2.832,16 0,00 0,00 5.172,45 19.234,05 31/01/2024
495 723500 CAROLINE CORDEIRO FERNANDES MACHADO ASSESSOR PROMOTOR JUSTICA BELO HORIZONTE - COMARCA; COORD DE INCLUSAO E MOBILIZACAO SOCIAIS 0,00 0,00 8.810,89 0,00 0,00 0,00 0,00 2.583,00 11.393,89 908,85 1.832,05 0,00 0,00 2.740,90 8.652,99 31/01/2024
496 556800 CAROLINE DE SOUZA CARDOSO DOMINGUES OFICIAL DO MP BRASÍLIA DE MINAS - COMARCA; BRASILIA DE MINAS-PJ-02PJ 7.506,70 1.501,34 0,00 0,00 0,00 0,00 0,00 2.583,00 11.591,04 1.214,11 1.258,37 0,00 0,00 2.472,48 9.118,56 31/01/2024
497 751700 CAROLINE GUIMARAES DAMASCENO ASSESSOR PROMOTOR JUSTICA SANTA LUZIA - COMARCA; SANTA LUZIA-PJ-07PJ 0,00 0,00 8.810,89 0,00 0,00 0,00 0,00 2.583,00 11.393,89 908,85 1.832,05 0,00 0,00 2.740,90 8.652,99 31/01/2024
498 499400 CAROLINE MARQUES DE LOURDES MARZULLO OFICIAL DO MP JUIZ DE FORA - COMARCA; JUIZ DE FORA-PJ-08PJ 10.858,90 2.171,78 0,00 0,00 0,00 0,00 0,00 10.557,60 23.588,28 1.018,60 2.310,19 0,00 0,00 3.328,79 20.259,49 31/01/2024
499 616800 CAROLINE MONTEIRO DE BARROS ANALISTA DO MP CONTAGEM - COMARCA; CONTAGEM-PJ-11PJ 12.343,61 1.234,36 0,00 0,00 0,00 0,00 0,00 9.703,89 23.281,86 1.018,60 2.449,41 0,00 0,00 3.468,01 19.813,85 31/01/2024
500 618100 CAROLINE VASCONCELOS COSTA LANZA ANALISTA DO MP PARAOPEBA - COMARCA; PARAOPEBA-PJ-UNPJ 12.343,61 1.234,36 0,00 0,00 0,00 0,00 547,65 10.850,47 24.976,09 1.945,30 2.314,02 0,00 0,00 4.259,32 20.716,77 31/01/2024
501 699000 CAROLLINA RODRIGUES SOUTO AMARAL ASSESSOR PROCURADOR JUSTICA BELO HORIZONTE - COMARCA; GABINETE DE PROCURADOR DE JUSTIÇA-SALA1105-T3 0,00 0,00 8.810,89 0,00 0,00 0,00 0,00 2.583,00 11.393,89 908,85 1.832,05 0,00 0,00 2.740,90 8.652,99 31/01/2024
502 604000 CASSIA APARECIDA DA SILVA OFICIAL DO MP PARACATU - COMARCA; PARACATU-PJ-01PJ 7.506,70 1.501,34 0,00 0,00 0,00 0,00 0,00 2.583,00 11.591,04 1.214,11 1.258,37 0,00 0,00 2.472,48 9.118,56 31/01/2024
503 268800 CASSIA BEATRIZ TEIXEIRA OFICIAL DO MP BELO HORIZONTE - COMARCA; PROC. JUSTICA DE HABEAS CORPUS 18.130,77 7.252,31 4.346,47 0,00 0,00 0,00 0,00 8.528,91 38.258,46 3.834,11 6.236,29 0,00 0,00 10.070,40 28.188,06 31/01/2024
504 500000 CASSIA DE OLIVEIRA COSTA VIANA ANALISTA DO MP SETE LAGOAS - COMARCA; SETE LAGOAS-PJ-09PJ 12.343,61 8.640,53 0,00 0,00 0,00 3.130,28 0,00 2.583,00 26.697,42 3.130,28 4.885,68 0,00 0,00 8.015,96 18.681,46 31/01/2024
505 368800 CASSIA LUISA BATISTA MENDONCA WEBER COORDENADOR II BELO HORIZONTE - COMARCA; DIVISÃO DE EDUCAÇÃO PARA O CONSUMO 20.533,67 6.160,10 0,00 0,00 0,00 0,00 0,00 7.921,75 34.615,52 1.923,90 5.926,75 0,00 0,00 7.850,65 26.764,87 31/01/2024
506 622200 CASSIA VAZ DE AZEVEDO LISBOA MARZANO ASSESSOR ADMINISTRATIVO III BELO HORIZONTE - COMARCA; CGMP-DIR ESTAGIO PROBATORIO E ORIENT 0,00 0,00 10.858,90 0,00 0,00 0,00 0,00 8.663,98 19.522,88 908,85 2.238,84 0,00 0,00 3.147,69 16.375,19 31/01/2024
507 121000 CASSIO HENRIQUE AFONSO DA SILVA OFICIAL DO MP BELO HORIZONTE - COMARCA; CGMP-ASSESSORIA TECNICA 23.070,31 18.456,25 0,00 0,00 0,00 0,00 0,00 8.597,39 50.123,95 5.787,22 7.395,66 3.936,60 0,00 17.119,48 33.004,47 31/01/2024
508 756700 CATARINA ANNONI CESAR ASSESSOR PROCURADOR JUSTICA BELO HORIZONTE - COMARCA; GABINETE DE PROCURADOR DE JUSTIÇA - SALA 610 0,00 0,00 8.810,89 0,00 0,00 0,00 0,00 2.583,00 11.393,89 908,85 1.832,05 0,00 0,00 2.740,90 8.652,99 31/01/2024
509 512001 CATARINA NATALINO CALIXTO COORDENADOR II BELO HORIZONTE - COMARCA; DIRETORIA GESTAO COMPRAS LICITACOES 20.533,67 3.285,39 0,00 0,00 0,00 0,00 524,02 9.446,15 33.789,23 2.063,80 5.097,74 0,00 0,00 7.161,54 26.627,69 31/01/2024
510 606200 CATARINE DE SIQUEIRA DE QUADROS ANALISTA DO MP CONTAGEM - COMARCA; CONTAGEM-PJ-08PJ 12.343,61 2.468,72 0,00 0,00 0,00 0,00 543,12 9.654,51 25.009,96 2.142,79 2.494,89 0,00 0,00 4.637,68 20.372,28 31/01/2024
511 622300 CECILIA APARECIDA PEREIRA ASSUNCAO OFICIAL DO MP TRÊS PONTAS - COMARCA; TRES PONTAS-PJ-SECRETARIA 8.264,07 826,41 0,00 0,00 0,00 0,00 0,00 3.729,58 12.820,06 1.227,30 1.225,28 0,00 0,00 2.452,58 10.367,48 31/01/2024
512 538000 CECILIA FONTES DE MATOS PIMENTEL ANALISTA DO MP PALMA - COMARCA; PALMA-PJ-UNPJ 12.343,61 2.468,72 0,00 0,00 0,00 0,00 0,00 9.654,51 24.466,84 2.142,79 2.599,16 0,00 0,00 4.741,95 19.724,89 31/01/2024
513 748900 CECILIA KRUEL DE MAGALHAES PINTO ASSESSOR ADMINISTRATIVO IV BELO HORIZONTE - COMARCA; CAO-MEIO AMBIENTE 0,00 0,00 14.488,22 0,00 0,00 0,00 0,00 4.876,16 19.364,38 908,85 3.393,32 0,00 0,00 4.302,17 15.062,21 31/01/2024
514 261300 CECILIO ANTONIO CAMPOS DOS REIS ANALISTA DO MP BELO HORIZONTE - COMARCA; AUDITORIA INTERNA 23.070,31 9.228,12 0,00 0,00 0,00 0,00 473,71 7.750,75 40.522,89 4.940,57 6.638,45 0,00 0,00 11.579,02 28.943,87 31/01/2024
515 386400 CEFAS AMORELI DE FIGUEIREDO OFICIAL DO MP CABO VERDE - COMARCA; CABO VERDE-PJ-SECRETARIA 7.506,70 2.252,01 0,00 0,00 0,00 0,00 0,00 8.828,57 18.587,28 1.334,22 1.431,77 0,00 0,00 2.765,99 15.821,29 31/01/2024
516 421000 CELINA BENEDITA DE SOUZA ALMEIDA OFICIAL DO MP CAMBUÍ - COMARCA; CAMBUI-PJ-01PJ 12.343,61 8.640,53 0,00 84,88 0,00 14.618,10 0,00 2.583,00 38.270,12 3.130,28 4.833,54 0,00 303,98 8.267,80 30.002,32 31/01/2024
517 252900 CELIO DE MELO CASTOR ANALISTA DO MP BELO HORIZONTE - COMARCA; DIVISAO FROTA 23.070,31 9.228,12 0,00 0,00 0,00 0,00 0,00 2.583,00 34.881,43 4.940,57 6.638,45 0,00 0,00 11.579,02 23.302,41 31/01/2024
518 395700 CELIO FERREIRA LIMA OFICIAL DO MP CONTAGEM - COMARCA; CONTAGEM-PJ-SECRETARIA 12.343,61 3.703,08 0,00 0,00 0,00 0,00 117,68 3.866,74 20.031,11 2.340,29 2.832,16 0,00 0,00 5.172,45 14.858,66 31/01/2024
519 281300 CELMA REGINA PEREIRA SANTOS ANALISTA DO MP BELO HORIZONTE - COMARCA; DIRET DE INFORMACAO E CONHECIMENTO-DINC/CEAF 23.070,31 9.228,12 0,00 0,00 0,00 0,00 0,00 2.583,00 34.881,43 4.940,57 6.638,45 0,00 0,00 11.579,02 23.302,41 31/01/2024
520 535600 CELSO MEDEIROS DE PAIVA OFICIAL DO MP RIO PRETO - COMARCA; RIO PRETO-PJ-SECRETARIA 7.506,70 1.501,34 0,00 0,00 0,00 0,00 561,50 8.708,47 18.278,01 1.214,11 1.206,23 0,00 0,00 2.420,34 15.857,67 31/01/2024
521 367000 CESAR NARVAES DE AVELAR OFICIAL DO MP BELO HORIZONTE - COMARCA; DIRET DE INFORMACAO E CONHECIMENTO-DINC/CEAF 12.343,61 3.703,08 0,00 0,00 0,00 0,00 0,00 2.583,00 18.629,69 2.340,29 2.884,30 0,00 0,00 5.224,59 13.405,10 31/01/2024
522 226500 CESAR SILVEIRA BARROUIN OFICIAL DO MP IGARAPÉ - COMARCA; IGARAPE-PJ-02PJ 18.130,77 9.065,39 0,00 0,00 0,00 0,00 0,00 8.022,23 35.218,39 4.124,21 5.459,83 0,00 0,00 9.584,04 25.634,35 31/01/2024
523 121400 CEZAR MORENO CONCEICAO TAVARES OFICIAL DO MP BELO HORIZONTE - COMARCA; COORD DE INCLUSAO E MOBILIZACAO SOCIAIS 23.070,31 18.456,25 0,00 0,00 0,00 5.787,22 0,00 8.934,85 56.248,63 5.787,22 8.987,14 3.936,60 0,00 18.710,96 37.537,67 31/01/2024
524 243800 CHARLES MARTINS MUNIZ OFICIAL DO MP BELO HORIZONTE - COMARCA; LAB TECNOLOGIA CONTRA LAVAGEM DINHEIRO 18.130,77 7.252,31 0,00 0,00 0,00 0,00 558,43 8.069,94 34.011,45 3.834,11 5.041,01 0,00 0,00 8.875,12 25.136,33 31/01/2024
525 193500 CHARLIN CESAR KOURLY OFICIAL DO MP ARAGUARI - COMARCA; ARAGUARI-PJ-07PJ 22.191,68 8.876,67 0,00 0,00 0,00 0,00 0,00 8.796,67 39.865,02 4.743,76 6.354,30 0,00 0,00 11.098,06 28.766,96 31/01/2024
526 385500 CHILLEN PEIXOTO DE MOURA OFICIAL DO MP BELO HORIZONTE - COMARCA; DIVISAO DE MATERIAIS 12.343,61 3.703,08 0,00 0,00 0,00 0,00 0,00 4.876,16 20.922,85 2.340,29 2.884,30 0,00 0,00 5.224,59 15.698,26 31/01/2024
527 534500 CHRISTIAN DOUGLAS BRITO RUAS OFICIAL DO MP BOCAIÚVA - COMARCA; BOCAIUVA-PJ-03PJ 7.506,70 1.501,34 0,00 0,00 0,00 0,00 0,00 8.708,47 17.716,51 1.214,11 1.258,37 0,00 0,00 2.472,48 15.244,03 31/01/2024
528 370600 CHRISTIAN KARINE FELIX PRATES ASSESSOR ADMINISTRATIVO IV BELO HORIZONTE - COMARCA; SUPRIN DE PLANEJAMENTO E COORDENACAO 0,00 0,00 14.488,22 0,00 0,00 0,00 531,23 8.378,29 23.397,74 908,85 3.393,32 0,00 0,00 4.302,17 19.095,57 31/01/2024
529 435800 CHRISTIANA BAHIA ANDRADE PINA ANALISTA DO MP BELO HORIZONTE - COMARCA; LABORATORIO TECNOLOGIA INTELIGENCIA 18.720,84 3.744,17 0,00 0,00 0,00 0,00 0,00 7.974,60 30.439,61 3.367,22 4.366,93 0,00 0,00 7.734,15 22.705,46 31/01/2024
530 516800 CHRISTIANE FERREIRA DO NASCIMENTO ANALISTA DO MP POUSO ALEGRE - COMARCA; POUSO ALEGRE-PJ-04PJ 12.343,61 2.468,72 0,00 0,00 0,00 0,00 0,00 2.583,00 17.395,33 2.142,79 2.599,16 0,00 0,00 4.741,95 12.653,38 31/01/2024
531 176000 CHRISTIANE JUNQUEIRA PULITI ANDRADE DE BARROS ASSESSOR ADM. ESPECIAL BELO HORIZONTE - COMARCA; PROCURADORIA-GERAL ADJUNTA INSTITUCIONAL 0,00 25.212,05 28.013,39 0,00 0,00 5.787,22 0,00 7.788,26 66.800,92 5.787,22 8.019,02 15.635,48 0,00 29.441,72 37.359,20 31/01/2024
532 319200 CHRISTIANE MARIA DE ASSIS RUSSO OFICIAL DO MP BELO HORIZONTE - COMARCA; CAO-ORDEM ECONOMICA E TRIBUTARIA-SECRETARIA 15.949,86 4.784,96 0,00 0,00 6.911,61 0,00 0,00 3.729,58 31.376,01 3.090,39 5.815,81 0,00 0,00 8.906,20 22.469,81 31/01/2024
533 510300 CHRISTIANE MARY DE CARVALHO FERREIRA ANALISTA DO MP BELO HORIZONTE - COMARCA; DIRETORIA DE SISTEMAS DE INFORMACAO 12.343,61 2.468,72 0,00 0,00 0,00 0,00 0,00 2.583,00 17.395,33 2.142,79 2.547,03 0,00 0,00 4.689,82 12.705,51 31/01/2024
534 424900 CHRISTIANE PEREIRA TURNER DE ARAUJO OFICIAL DO MP BELO HORIZONTE - COMARCA; CAO-PATRIMONIO PUBLICO 12.343,61 3.703,08 0,00 1.234,36 411,45 0,00 1.234,36 9.506,39 28.433,25 2.537,79 3.065,16 0,00 197,50 5.800,45 22.632,80 31/01/2024
535 731000 CHRISTIANE TEIXEIRA ANTUNA ASSESSOR ADMINISTRATIVO III BELO HORIZONTE - COMARCA; DIR CONTEUDO JORNALISTICO 0,00 0,00 10.858,90 0,00 0,00 0,00 0,00 2.583,00 13.441,90 908,85 2.395,25 0,00 0,00 3.304,10 10.137,80 31/01/2024
536 513700 CHRISTIANE VIEIRA SOARES PEDERSOLI COORDENADOR II BELO HORIZONTE - COMARCA; ASSESSORIA JURIDICA DO PROCON-MG 20.533,67 4.106,73 0,00 0,00 0,00 0,00 0,00 9.643,28 34.283,68 2.142,79 5.301,88 0,00 0,00 7.444,67 26.839,01 31/01/2024
537 412300 CHRYSTIAN MACHADO RIBEIRO ANALISTA DO MP VARGINHA - COMARCA; VARGINHA-PJ-04PJ 18.720,84 5.616,25 0,00 0,00 0,00 0,00 0,00 8.423,90 32.760,99 3.666,76 4.799,38 0,00 0,00 8.466,14 24.294,85 31/01/2024
538 513800 CHRYSTIANE DO NASCIMENTO DE MAGALHAES OFICIAL DO MP UBERLÂNDIA - COMARCA; UBERLANDIA-PJ-10PJ 10.516,49 2.103,30 0,00 0,00 0,00 0,00 0,00 8.640,50 21.260,29 1.791,99 1.988,41 0,00 0,00 3.780,40 17.479,89 31/01/2024
539 497900 CIBELE DE FREITAS SANCHES DIAS ANALISTA DO MP BELO HORIZONTE - COMARCA; BH-12PJ JUIZO CRIMINAL-GAB 103PJ 12.343,61 2.468,72 0,00 0,00 0,00 0,00 543,12 8.507,93 23.863,38 1.018,60 2.711,26 0,00 0,00 3.729,86 20.133,52 31/01/2024
540 500900 CIBELLE SILVA PRADO ALVARENGA ANALISTA DO MP ITANHANDU - COMARCA; ITANHANDU-PJ-UNPJ 12.343,61 2.468,72 0,00 0,00 0,00 0,00 0,00 9.654,51 24.466,84 2.142,79 2.599,16 0,00 0,00 4.741,95 19.724,89 31/01/2024
541 296400 CINTIA APARECIDA MOREIRA NAVES E RODRIGUES ANALISTA DO MP CAMPO BELO - COMARCA; CAMPO BELO-PJ-01PJ 23.070,31 6.921,09 0,00 0,00 0,00 0,00 0,00 8.581,28 38.572,68 4.571,45 6.105,53 0,00 0,00 10.676,98 27.895,70 31/01/2024
542 407900 CINTIA NETO COMELLI ANALISTA DO MP BELO HORIZONTE - COMARCA; CENTRAL DE APOIO TECNICO-SETOR CONTABIL 18.720,84 5.616,25 0,00 0,00 0,00 0,00 0,00 2.583,00 26.920,09 3.666,76 4.747,24 0,00 0,00 8.414,00 18.506,09 31/01/2024
543 304700 CINTIA QUEIROZ OFICIAL DO MP BELO HORIZONTE - COMARCA; OUVIDORIA DO MPMG 12.343,61 3.703,08 0,00 0,00 0,00 0,00 0,00 8.359,81 24.406,50 2.340,29 2.884,30 0,00 0,00 5.224,59 19.181,91 31/01/2024
544 286100 CIRO CANGUSSU CORDEIRO OFICIAL DO MP IPATINGA - COMARCA; IPATINGA-PJ-09PJ 10.858,90 4.343,56 0,00 0,00 0,00 0,00 0,00 3.729,58 18.932,04 2.205,22 2.585,01 0,00 0,00 4.790,23 14.141,81 31/01/2024
545 689900 CISSA NOGUEIRA COLEN ASSESSOR PROCURADOR JUSTICA BELO HORIZONTE - COMARCA; GABINETE DE PROCURADOR DE JUSTIÇA - SALA 608 0,00 0,00 8.810,89 0,00 0,00 0,00 0,00 2.583,00 11.393,89 908,85 1.832,05 0,00 0,00 2.740,90 8.652,99 31/01/2024
546 681700 CLARA FERREIRA ALKIMIM ASSESSOR PROMOTOR JUSTICA PEDRA AZUL - COMARCA; PEDRA AZUL-PJ-02PJ 0,00 0,00 8.810,89 0,00 0,00 0,00 549,21 8.574,41 17.934,51 908,85 1.832,05 0,00 0,00 2.740,90 15.193,61 31/01/2024
547 715500 CLARA ISABELLE SOUSA FARIA ASSESSOR PROCURADOR JUSTICA BELO HORIZONTE - COMARCA; GABINETE DE PROCURADOR DE JUSTIÇA - SALA 712 0,00 0,00 8.810,89 0,00 0,00 0,00 0,00 2.583,00 11.393,89 908,85 1.832,05 0,00 0,00 2.740,90 8.652,99 31/01/2024
548 756100 CLARA LIMA LIPOVETSKY ASSESSOR PROMOTOR JUSTICA BELO HORIZONTE - COMARCA; CAO-FUNDACOES-ASSESSORIA JURIDICA 0,00 0,00 8.810,89 0,00 0,00 0,00 0,00 2.583,00 11.393,89 908,85 1.832,05 0,00 0,00 2.740,90 8.652,99 31/01/2024
549 723100 CLARA PRADO CAMPOS ASSESSOR PROCURADOR JUSTICA BELO HORIZONTE - COMARCA; GABINETE DE PROCURADOR DE JUSTIÇA - SALA 1006 0,00 0,00 8.810,89 0,00 0,00 0,00 0,00 2.583,00 11.393,89 908,85 1.832,05 0,00 0,00 2.740,90 8.652,99 31/01/2024
550 695500 CLARA RODRIGUES BLACH ASSESSOR PROCURADOR JUSTICA BELO HORIZONTE - COMARCA; GABINETE DE PROCURADOR DE JUSTIÇA - SALA 1003 0,00 0,00 8.810,89 0,00 0,00 0,00 0,00 2.583,00 11.393,89 908,85 1.832,05 0,00 0,00 2.740,90 8.652,99 31/01/2024
551 412500 CLARICE GOMES MAROTTA ANALISTA DO MP BELO HORIZONTE - COMARCA; COORD ESTADUAL DE DEFESA DOS ANIMAIS 18.720,84 7.488,34 0,00 0,00 0,00 0,00 0,00 7.824,84 34.034,02 3.966,29 5.231,83 0,00 0,00 9.198,12 24.835,90 31/01/2024
552 605300 CLARISSA AZEVEDO ROCHA OFICIAL DO MP BELO HORIZONTE - COMARCA; BH-16PJ HABITACAO URBANISMO-GAB 117PJ 7.506,70 1.501,34 0,00 0,00 0,00 0,00 0,00 2.583,00 11.591,04 1.214,11 1.258,37 0,00 0,00 2.472,48 9.118,56 31/01/2024
553 308100 CLARISSA DUARTE BELLONI DIRETOR-GERAL BELO HORIZONTE - COMARCA; DIRETORIA-GERAL 34.667,33 10.400,20 0,00 0,00 0,00 0,00 0,00 10.317,26 55.384,79 4.571,45 7.405,42 7.477,57 0,00 19.454,44 35.930,35 31/01/2024
554 730500 CLARISSA FERNANDES ABREU ASSESSOR PROMOTOR JUSTICA SANTOS DUMONT - COMARCA; SANTOS DUMONT-PJ-02PJ 0,00 0,00 8.810,89 0,00 0,00 0,00 323,07 6.107,36 15.241,32 908,85 1.832,05 0,00 0,00 2.740,90 12.500,42 31/01/2024
555 743200 CLARISSA GODINHO PRATES ASSESSOR ADMINISTRATIVO I GOVERNADOR VALADARES - COMARCA; COOR REG APOIO COM INC MOB VALE DO RIO DOCE 0,00 0,00 4.872,71 0,00 0,00 0,00 0,00 2.583,00 7.455,71 777,91 785,06 0,00 0,00 1.562,97 5.892,74 31/01/2024
556 497100 CLARISSA ROCHA GUIDI ANALISTA DO MP BELO HORIZONTE - COMARCA; BH-02PJ FAMILIA-SECRETARIA 15.447,01 3.089,40 0,00 0,00 0,00 0,00 0,00 10.807,81 29.344,22 2.738,65 3.407,29 0,00 0,00 6.145,94 23.198,28 31/01/2024
557 641800 CLARISSE TAVARES GONCALVES OFICIAL DO MP BELO HORIZONTE - COMARCA; BH-07PJ 01 TRIBUNAL JURI-SECRETARIA 7.506,70 750,67 0,00 0,00 0,00 0,00 0,00 2.583,00 10.840,37 1.018,60 1.105,70 0,00 0,00 2.124,30 8.716,07 31/01/2024
558 463700 CLAUDIA ADRIANA FERRAO DIAS ANALISTA DO MP SETE LAGOAS - COMARCA; SETE LAGOAS-PJ-06PJ 12.343,61 2.468,72 0,00 0,00 0,00 0,00 0,00 2.583,00 17.395,33 2.142,79 2.599,16 0,00 0,00 4.741,95 12.653,38 31/01/2024
559 415400 CLAUDIA ALMEIDA DE VASCONCELLOS BARROS OFICIAL DO MP BELO HORIZONTE - COMARCA; DIVISAO DE SERVICOS 11.212,54 3.363,76 4.020,58 0,00 0,00 0,00 1.201,88 8.534,00 28.332,76 2.105,03 3.830,80 0,00 0,00 5.935,83 22.396,93 31/01/2024
560 207000 CLAUDIA APARECIDA VILELA MACHADO ANALISTA DO MP BELO HORIZONTE - COMARCA; CENTRAL DE APOIO TECNICO-SETOR CONTABIL 23.070,31 11.535,16 0,00 0,00 0,00 5.309,70 439,07 7.372,83 47.727,07 5.309,70 8.527,27 0,00 0,00 13.836,97 33.890,10 31/01/2024
561 365700 CLAUDIA BREGUEZ CUNHA ANALISTA DO MP VARGINHA - COMARCA; VARGINHA-PJ-07PJ 21.346,53 6.403,96 0,00 0,00 0,00 0,00 0,00 3.729,58 31.480,07 4.212,90 5.587,88 0,00 0,00 9.800,78 21.679,29 31/01/2024
562 430500 CLAUDIA CECILIA SANTANA VENCESLAU OFICIAL DO MP BELO HORIZONTE - COMARCA; LAB TECNOLOGIA CONTRA LAVAGEM DINHEIRO 12.343,61 2.468,72 0,00 0,00 0,00 0,00 0,00 8.507,93 23.320,26 2.142,79 2.547,03 0,00 0,00 4.689,82 18.630,44 31/01/2024
563 213601 CLAUDIA GONCALVES CALIXTO ASSESSOR PROCURADOR JUSTICA BELO HORIZONTE - COMARCA; PROC. JUSTICA DIR. DIFUSOS E COLETIVOS-SEC 0,00 0,00 8.810,89 0,00 0,00 0,00 0,00 6.459,79 15.270,68 908,85 1.832,05 0,00 0,00 2.740,90 12.529,78 31/01/2024
564 480400 CLAUDIA GOULART DE SOUZA OFICIAL DO MP PASSOS - COMARCA; PASSOS-PJ-06PJ 10.858,90 3.257,67 0,00 0,00 0,00 0,00 0,00 8.794,29 22.910,86 2.031,47 2.438,44 0,00 0,00 4.469,91 18.440,95 31/01/2024
565 519800 CLAUDIA HELENA CORREA DE ALMEIDA ANALISTA DO MP BELO HORIZONTE - COMARCA; BH-12PJ JUIZO CRIMINAL-GAB 096PJ 12.343,61 2.468,72 0,00 0,00 0,00 0,00 0,00 8.507,93 23.320,26 2.142,79 2.599,16 0,00 0,00 4.741,95 18.578,31 31/01/2024
566 422100 CLAUDIA IACOMINI CABRAL ANALISTA DO MP BELO HORIZONTE - COMARCA; CENT DE APOIO TEC-SETOR DEF,IDOSO E INFANC 18.720,84 13.104,58 0,00 0,00 0,00 0,00 466,77 7.675,07 39.967,26 4.864,89 6.529,19 0,00 0,00 11.394,08 28.573,18 31/01/2024
567 258200 CLAUDIA LAGE MICHALAROS ANALISTA DO MP BELO HORIZONTE - COMARCA; CENTRAL DE APOIO TECN-SETOR DE MEIO AMBIENTE 23.070,31 18.456,25 0,00 0,00 0,00 5.787,22 0,00 2.583,00 49.896,78 5.787,22 9.091,42 3.936,60 0,00 18.815,24 31.081,54 31/01/2024
568 433600 CLAUDIA LUIZA SANTIAGO FELICIO ANALISTA DO MP BELO HORIZONTE - COMARCA; CENT DE APOIO TEC-SETOR DEF,IDOSO E INFANC 18.720,84 3.744,17 0,00 0,00 0,00 0,00 0,00 7.974,60 30.439,61 3.367,22 4.262,66 0,00 0,00 7.629,88 22.809,73 31/01/2024
569 317000 CLAUDIA MACHADO ALVES OFICIAL DO MP BELO HORIZONTE - COMARCA; DIR GOVERNANCA TECNOLOGIA INFORMACAO 12.343,61 3.703,08 4.020,58 0,00 0,00 0,00 0,00 8.201,84 28.269,11 2.340,29 3.989,96 0,00 0,00 6.330,25 21.938,86 31/01/2024
570 155300 CLAUDIA MACIEL MIRANDA OFICIAL DO MP CONGONHAS - COMARCA; CONGONHAS-PJ-02PJ 23.070,31 16.149,22 0,00 0,00 0,00 0,00 0,00 2.583,00 41.802,53 5.787,22 7.607,14 1.629,57 0,00 15.023,93 26.778,60 31/01/2024
571 746300 CLAUDIA MAGDA SANTANA ANALISTA DO MP BELO HORIZONTE - COMARCA; DIRETORIA DE ADMINISTRACAO FINANCEIRA 7.040,78 0,00 0,00 0,00 0,00 0,00 0,00 2.583,00 9.623,78 903,07 802,91 0,00 0,00 1.705,98 7.917,80 31/01/2024
572 242200 CLAUDIA MICHELLE DIAS MUNIZ BALEEIRO OFICIAL DO MP MONTE AZUL - COMARCA; MONTE AZUL-PJ-SECRETARIA 18.130,77 9.065,39 0,00 0,00 0,00 0,00 0,00 8.022,23 35.218,39 4.124,21 5.407,69 0,00 0,00 9.531,90 25.686,49 31/01/2024
573 755900 CLAUDIA NATIVIDADE ASSESSOR ADMINISTRATIVO II BELO HORIZONTE - COMARCA; CENTRO ESTADUAL DE APOIO AS VITIMAS 0,00 0,00 7.506,70 0,00 0,00 0,00 0,00 2.583,00 10.089,70 908,85 1.473,40 0,00 0,00 2.382,25 7.707,45 31/01/2024
574 623000 CLAUDIA PATRICIA SILVA RODRIGUES RAPOSEIRAS OFICIAL DO MP BELO HORIZONTE - COMARCA; DIVISÃO DE EDUCAÇÃO PARA O CONSUMO 7.506,70 750,67 0,00 0,00 0,00 0,00 0,00 3.729,58 11.986,95 1.094,00 1.032,83 0,00 0,00 2.126,83 9.860,12 31/01/2024
575 418400 CLAUDIA REGINA MARTINS BONIFACIO OFICIAL DO MP ITUIUTABA - COMARCA; ITUIUTABA-PJ-06PJ 12.343,61 3.703,08 0,00 0,00 0,00 0,00 0,00 8.359,81 24.406,50 2.340,29 2.780,03 0,00 0,00 5.120,32 19.286,18 31/01/2024
576 498300 CLAUDIA SOUTO FARIAS BRAUN OFICIAL DO MP TEÓFILO OTONI - COMARCA; TEOFILO OTONI-PJ-SECRETARIA 7.506,70 1.501,34 0,00 0,00 0,00 0,00 0,00 8.708,47 17.716,51 1.214,11 1.154,10 0,00 0,00 2.368,21 15.348,30 31/01/2024
577 206500 CLAUDIA VALERIA FONSECA ANDRADE ANALISTA DO MP BELO HORIZONTE - COMARCA; BH-23PJ INF-FISC MED SOC FEC 23.070,31 16.149,22 0,00 0,00 0,00 5.787,22 0,00 7.788,26 52.795,01 5.787,22 9.302,90 1.629,57 0,00 16.719,69 36.075,32 31/01/2024
578 277500 CLAUDIO ANTONIO BORGES BRUNSWICK ALVARES OFICIAL DO MP BELO HORIZONTE - COMARCA; ASSESSORIA JURIDICA DO PROCON-MG 12.343,61 3.703,08 0,00 0,00 0,00 0,00 0,00 2.583,00 18.629,69 2.340,29 2.884,30 0,00 0,00 5.224,59 13.405,10 31/01/2024
579 444800 CLAUDIO ARESIO DO CARMO ANALISTA DO MP SETE LAGOAS - COMARCA; SETE LAGOAS-PJ-05PJ 15.447,01 6.178,80 0,00 0,00 0,00 0,00 0,00 8.638,23 30.264,04 3.232,95 4.120,94 0,00 0,00 7.353,89 22.910,15 31/01/2024
580 545100 CLAUDIO HENRIQUE MACEDO DE SOUZA FRANSOZO ANALISTA DO MP OURO PRETO - COMARCA; OURO PRETO-PJ-03PJ 12.343,61 2.468,72 0,00 0,00 0,00 0,00 0,00 3.729,58 18.541,91 1.018,60 2.763,40 0,00 0,00 3.782,00 14.759,91 31/01/2024
581 353500 CLAUDIO HENRIQUE PEDRO DA ROCHA OFICIAL DO MP BELO HORIZONTE - COMARCA; DIVISAO DE SERVICOS 12.343,61 3.703,08 0,00 0,00 0,00 0,00 0,00 8.359,81 24.406,50 2.340,29 2.780,03 0,00 0,00 5.120,32 19.286,18 31/01/2024
582 265800 CLAUDIO KUPIDLOWSKY FERNANDES OFICIAL DO MP BELO HORIZONTE - COMARCA; SECRETARIA DO PROCON-MG 12.343,61 4.937,44 0,00 0,00 0,00 0,00 0,00 8.804,18 26.085,23 2.537,79 1.701,35 0,00 0,00 4.239,14 21.846,09 31/01/2024
583 193600 CLAUDIO LEITE FONTES OFICIAL DO MP ITUIUTABA - COMARCA; ITUIUTABA-PJ-02PJ 12.343,61 6.171,81 0,00 0,00 0,00 0,00 0,00 9.654,51 28.169,93 2.735,29 3.066,28 0,00 0,00 5.801,57 22.368,36 31/01/2024
584 329400 CLAUDIO MARCIO BERNARDES OFICIAL DO MP ITAÚNA - COMARCA; ITAUNA-PJ-03PJ 12.343,61 9.874,89 0,00 0,00 0,00 0,00 0,00 3.729,58 25.948,08 3.327,78 4.257,85 0,00 0,00 7.585,63 18.362,45 31/01/2024
585 270200 CLAUDIO RABELO ALVES OFICIAL DO MP FORMIGA - COMARCA; FORMIGA-PJ-03PJ 15.447,01 6.178,80 0,00 0,00 0,00 0,00 0,00 8.638,23 30.264,04 3.232,95 4.016,66 0,00 0,00 7.249,61 23.014,43 31/01/2024
586 264700 CLAUDIO ROBERTO KFURI DE ARAUJO ANALISTA DO MP BELO HORIZONTE - COMARCA; CENTRAL DE APOIO TECNICO-SETOR DE INFORMATICA 23.070,31 9.228,12 0,00 0,00 0,00 0,00 0,00 2.583,00 34.881,43 4.940,57 6.534,18 0,00 0,00 11.474,75 23.406,68 31/01/2024
587 543300 CLAUDIO SILVA DE CARVALHO ANALISTA DO MP CAMPO BELO - COMARCA; CAMPO BELO-PJ-03PJ 11.954,43 1.195,44 0,00 0,00 0,00 0,00 0,00 8.368,94 21.518,81 1.876,80 2.163,00 0,00 0,00 4.039,80 17.479,01 31/01/2024
588 160700 CLAUDIO VICENTE HESS ASSESSOR DE GABINETE I BELO HORIZONTE - COMARCA; CENTRAL DE APOIO TECNICO-SETOR DE INFORMATICA 0,00 9.065,39 18.130,77 0,00 0,00 0,00 0,00 8.022,23 35.218,39 908,85 6.783,73 0,00 0,00 7.692,58 27.525,81 31/01/2024
589 312900 CLAUDIO VIEIRA FIRPE OFICIAL DO MP BELO HORIZONTE - COMARCA; DIR RELACOES INSTITUCIONAIS 12.343,61 3.703,08 0,00 0,00 0,00 0,00 0,00 8.359,81 24.406,50 2.340,29 2.884,30 0,00 0,00 5.224,59 19.181,91 31/01/2024
590 634100 CLEA CRISTINA GUERRA DE FREITAS COSTA OFICIAL DO MP BELO HORIZONTE - COMARCA; BH-18PJ VIOLENCIA DOMESTICA-SECRETARIA 7.506,70 750,67 0,00 0,00 0,00 0,00 0,00 2.583,00 10.840,37 1.094,00 1.032,83 0,00 0,00 2.126,83 8.713,54 31/01/2024
591 459200 CLEIA ZILLE PEREIRA ANALISTA DO MP BELO HORIZONTE - COMARCA; BH-07PJ 01 TRIBUNAL DO JURI-GAB 059PJ 12.343,61 2.468,72 0,00 0,00 0,00 0,00 0,00 10.227,80 25.040,13 2.142,79 2.599,16 0,00 0,00 4.741,95 20.298,18 31/01/2024
592 481800 CLEIDE CARDOSO DA SILVA ANALISTA DO MP MANHUAÇU - COMARCA; MANHUACU-PJ-04PJ 12.343,61 2.468,72 0,00 0,00 0,00 0,00 0,00 8.507,93 23.320,26 2.142,79 2.494,89 0,00 0,00 4.637,68 18.682,58 31/01/2024
593 347600 CLEIDIMAR DE OLIVEIRA SILVA OFICIAL DO MP PATOS DE MINAS - COMARCA; PATOS DE MINAS-PJ-03PJ 12.343,61 4.937,44 0,00 0,00 0,00 0,00 0,00 8.804,18 26.085,23 2.537,79 3.013,02 0,00 0,00 5.550,81 20.534,42 31/01/2024
594 396500 CLEIDISON BATISTA DE ANDRADE OFICIAL DO MP RESPLENDOR - COMARCA; RESPLENDOR-PJ-UNPJ 11.577,56 3.473,27 0,00 0,00 0,00 0,00 0,00 8.603,33 23.654,16 2.180,95 2.549,98 0,00 0,00 4.730,93 18.923,23 31/01/2024
595 535100 CLEISON ALVES DA SILVA ANALISTA DO MP BOA ESPERANÇA - COMARCA; BOA ESPERANCA-PJ-01PJ 12.343,61 3.703,08 0,00 0,00 0,00 0,00 0,00 8.359,81 24.406,50 2.340,29 2.780,03 0,00 0,00 5.120,32 19.286,18 31/01/2024
596 298100 CLEONICE AUGUSTA BARROS DE OLIVEIRA ANALISTA DO MP JUIZ DE FORA - COMARCA; JUIZ DE FORA-PJ-08PJ 23.070,31 6.921,09 0,00 0,00 0,00 0,00 0,00 2.583,00 32.574,40 4.571,45 6.105,53 0,00 0,00 10.676,98 21.897,42 31/01/2024
597 114301 CLERES PEREIRA DA SILVA JUNIOR ASSESSOR ADMINISTRATIVO I BELO HORIZONTE - COMARCA; GAECO - SECRETARIA 0,00 2.436,35 4.872,71 0,00 0,00 0,00 0,00 2.583,00 9.892,06 908,85 959,23 0,00 0,00 1.868,08 8.023,98 31/01/2024
598 264100 CLETO HENRIQUE ANDRADE SILVA ANALISTA DO MP BELO HORIZONTE - COMARCA; DIRETORIA DE SISTEMAS DE INFORMACAO 23.070,31 9.228,12 0,00 0,00 0,00 0,00 473,71 7.750,75 40.522,89 4.940,57 6.534,18 0,00 0,00 11.474,75 29.048,14 31/01/2024
599 334400 CLEUBA DE OLIVEIRA BARCELOS GONCALVES OFICIAL DO MP DIVINÓPOLIS - COMARCA; COORD REG SAUDE MACRORREGIAO SANITARIA OESTE 12.343,61 3.703,08 0,00 0,00 0,00 0,00 0,00 8.359,81 24.406,50 2.340,29 2.832,16 0,00 0,00 5.172,45 19.234,05 31/01/2024
600 347500 CLEUSA CORDEIRO DA MATA PIMENTA OFICIAL DO MP CAMPO BELO - COMARCA; CAMPO BELO-PJ-01PJ 12.343,61 11.109,25 0,00 0,00 0,00 3.525,28 0,00 7.978,63 34.956,77 3.525,28 5.512,44 0,00 0,00 9.037,72 25.919,05 31/01/2024
601 510200 CLEZIO SALES SILVA OFICIAL DO MP BRASÓPOLIS - COMARCA; BRASOPOLIS-PJ-UNPJ 7.506,70 1.501,34 0,00 0,00 0,00 0,00 0,00 9.855,05 18.863,09 1.214,11 1.258,37 0,00 0,00 2.472,48 16.390,61 31/01/2024
602 323000 CLOTILDE DE PADUA VIEIRA OFICIAL DO MP BELO HORIZONTE - COMARCA; BH-19PJ SAUDE-SECRETARIA 129PJ 12.343,61 3.703,08 0,00 0,00 0,00 0,00 0,00 2.583,00 18.629,69 2.340,29 2.884,30 0,00 0,00 5.224,59 13.405,10 31/01/2024
603 285200 CLOVIS ANDRE LUDTKE OFICIAL DO MP BELO HORIZONTE - COMARCA; DIVISAO DE MANUTENCAO PREDIAL 13.588,97 5.435,59 0,00 0,00 0,00 0,00 0,00 8.670,86 27.695,42 2.816,75 3.572,19 0,00 0,00 6.388,94 21.306,48 31/01/2024
604 381100 CONCEICAO APARECIDA TEIXEIRA ARANTES ANALISTA DO MP BELO HORIZONTE - COMARCA; BH-23PJ INFRACIONAL-ASS JURIDICA 19.751,60 5.925,48 0,00 0,00 0,00 0,00 3.961,61 3.729,58 33.368,27 4.515,01 5.971,91 0,00 0,00 10.486,92 22.881,35 31/01/2024
605 249900 CONSTANTINO CEZAR GOMES MOTA OFICIAL DO MP MONTES CLAROS - COMARCA; COORD REG BACIA RIOS VERDE GRANDE E PARDO 12.343,61 4.937,44 0,00 0,00 0,00 0,00 0,00 11.097,34 28.378,39 2.537,79 3.065,16 0,00 0,00 5.602,95 22.775,44 31/01/2024
606 481000 CRISHMA ANALIA LOMBELLO ANALISTA DO MP JUIZ DE FORA - COMARCA; JUIZ DE FORA-PJ-13PJ 12.343,61 2.468,72 0,00 0,00 0,00 0,00 543,12 8.507,93 23.863,38 2.142,79 2.547,03 0,00 0,00 4.689,82 19.173,56 31/01/2024
607 523900 CRISTHYANE BAZOLI COSTA GUEDES COUTO OFICIAL DO MP BELO HORIZONTE - COMARCA; BH-04PJ JUIZO REG PÚBLICOS-SECRETARIA 10.516,49 2.103,30 0,00 0,00 0,00 0,00 0,00 8.640,50 21.260,29 1.791,99 2.092,69 0,00 0,00 3.884,68 17.375,61 31/01/2024
608 187000 CRISTIAN DAYVSON EVANGELISTA OFICIAL DO MP JUIZ DE FORA - COMARCA; JUIZ DE FORA-PJ-13PJ 21.346,53 8.538,61 0,00 0,00 0,00 0,00 1.771,66 7.648,09 39.304,89 4.554,44 6.516,05 0,00 0,00 11.070,49 28.234,40 31/01/2024
609 682100 CRISTIAN TRISTAO DE ANDRADE ASSESSOR PROMOTOR JUSTICA TRÊS CORACOES - COMARCA; TRES CORACOES-PJ-04PJ 0,00 0,00 8.810,89 0,00 0,00 0,00 0,00 6.107,36 14.918,25 908,85 1.832,05 0,00 0,00 2.740,90 12.177,35 31/01/2024
610 319800 CRISTIANA GONCALVES DOS SANTOS GUSMAO OFICIAL DO MP SETE LAGOAS - COMARCA; SETE LAGOAS-PJ-04PJ 12.343,61 3.703,08 0,00 0,00 0,00 0,00 0,00 2.583,00 18.629,69 2.340,29 2.780,03 0,00 0,00 5.120,32 13.509,37 31/01/2024
611 520600 CRISTIANA JANAINA BARBOZA JUVENCIO DOS SANTOS ANALISTA DO MP BELO HORIZONTE - COMARCA; BH-02PJ FAMILIA-SECRETARIA 12.343,61 2.468,72 0,00 0,00 0,00 0,00 0,00 8.507,93 23.320,26 2.142,79 2.599,16 0,00 0,00 4.741,95 18.578,31 31/01/2024
612 195600 CRISTIANA SOARES HALABI OFICIAL DO MP UBERABA - COMARCA; UBERABA-PJ-01PJ 23.070,31 9.228,12 0,00 0,00 0,00 0,00 0,00 7.750,75 40.049,18 4.940,57 6.638,45 0,00 0,00 11.579,02 28.470,16 31/01/2024
613 218900 CRISTIANE ALVES BELLES OFICIAL DO MP JUIZ DE FORA - COMARCA; JUIZ DE FORA-PJ-10PJ 7.506,70 3.002,68 0,00 0,00 0,00 0,00 0,00 10.188,12 20.697,50 1.454,32 1.500,91 0,00 0,00 2.955,23 17.742,27 31/01/2024
614 263600 CRISTIANE CARVALHO COUTINHO OFICIAL DO MP BELO HORIZONTE - COMARCA; BH-23PJ INFRACIONAL-SEC EXP 14.960,00 5.984,00 0,00 0,00 0,00 0,00 0,00 2.583,00 23.527,00 3.123,86 3.963,44 0,00 0,00 7.087,30 16.439,70 31/01/2024
615 541000 CRISTIANE COELHO ALVES OFICIAL DO MP ITABIRA - COMARCA; ITABIRA-PJ-03PJ 7.506,70 1.501,34 0,00 0,00 0,00 0,00 561,50 8.708,47 18.278,01 1.214,11 1.206,23 0,00 0,00 2.420,34 15.857,67 31/01/2024
616 441700 CRISTIANE CORRADO DE ANDRADE ANALISTA DO MP BELO HORIZONTE - COMARCA; DIRETORIA DE SISTEMAS DE INFORMACAO 18.720,84 3.744,17 4.020,58 0,00 0,00 0,00 0,00 7.880,12 34.365,71 3.367,22 5.472,59 0,00 0,00 8.839,81 25.525,90 31/01/2024
617 375100 CRISTIANE DAS DORES ERCIO DE LIMA OFICIAL DO MP GOVERNADOR VALADARES - COMARCA; COOR REG APOIO COM INC MOB VALE DO RIO DOCE 11.954,43 3.586,33 0,00 0,00 0,00 0,00 0,00 8.799,30 24.340,06 2.259,34 2.767,43 0,00 0,00 5.026,77 19.313,29 31/01/2024
618 178800 CRISTIANE DE LIMA HOSKEN OFICIAL DO MP BELO HORIZONTE - COMARCA; DIRETORIA DE INTELIGENCIA 22.191,68 8.876,67 0,00 0,00 0,00 0,00 0,00 8.796,67 39.865,02 4.743,76 6.302,17 0,00 0,00 11.045,93 28.819,09 31/01/2024
619 494000 CRISTIANE DE MELO MARQUEZ OLIVEIRA ANALISTA DO MP UBERLÂNDIA - COMARCA; UBERLANDIA-PJ-06PJ 15.949,86 4.146,96 0,00 0,00 0,00 0,00 515,82 9.356,69 29.969,33 2.988,31 3.819,88 0,00 0,00 6.808,19 23.161,14 31/01/2024
620 266100 CRISTIANE DE OLIVEIRA CASTRO OFICIAL DO MP BELO HORIZONTE - COMARCA; BH-14PJ DEFESA CONSUMIDOR-SECRETARIA 18.130,77 7.252,31 0,00 0,00 0,00 0,00 1.771,66 2.583,00 29.737,74 3.834,11 5.423,94 0,00 0,00 9.258,05 20.479,69 31/01/2024
621 329500 CRISTIANE DOS REIS SILVA OFICIAL DO MP ARAXÁ - COMARCA; ARAXA-PJ-04PJ 12.343,61 3.703,08 0,00 0,00 0,00 0,00 0,00 8.359,81 24.406,50 2.340,29 2.780,03 0,00 0,00 5.120,32 19.286,18 31/01/2024
622 301600 CRISTIANE GODINHO PIRES ANALISTA DO MP BETIM - COMARCA; BETIM-PJ-06PJ 23.070,31 6.921,09 0,00 0,00 0,00 0,00 0,00 8.581,28 38.572,68 4.571,45 6.105,53 0,00 0,00 10.676,98 27.895,70 31/01/2024
623 406100 CRISTIANE GONCALVES CHAVES ANALISTA DO MP BELO HORIZONTE - COMARCA; BH-06PJ JUIZO CIVEL-SECRETARIA 20.533,67 8.213,47 0,00 0,00 0,00 0,00 0,00 2.583,00 31.330,14 4.372,36 5.818,10 0,00 0,00 10.190,46 21.139,68 31/01/2024
624 487600 CRISTIANE LOPES DE OLIVEIRA OFICIAL DO MP DIVINÓPOLIS - COMARCA; DIVINOPOLIS-PJ-03PJ 9.097,81 1.819,56 0,00 0,00 0,00 0,00 0,00 8.696,73 19.614,10 1.519,60 1.699,43 0,00 0,00 3.219,03 16.395,07 31/01/2024
625 502500 CRISTIANE MACIEL DE OLIVEIRA GOMES ANALISTA DO MP JUIZ DE FORA - COMARCA; JUIZ DE FORA-PJ-02PJ 12.343,61 2.468,72 0,00 0,00 0,00 0,00 0,00 9.654,51 24.466,84 2.142,79 2.599,16 0,00 0,00 4.741,95 19.724,89 31/01/2024
626 285500 CRISTIANE MAGALHAES LOURENCO ANALISTA DO MP BELO HORIZONTE - COMARCA; CENTRAL DE APOIO TECNICO-SETOR CONTABIL 23.070,31 9.228,12 0,00 0,00 0,00 0,00 473,71 7.750,75 40.522,89 4.940,57 6.586,31 0,00 0,00 11.526,88 28.996,01 31/01/2024
627 536500 CRISTIANE MICHELE DE SOUZA ANALISTA DO MP BARÃO DE COCAIS - COMARCA; BARAO DE COCAIS-PJ-UNPJ 12.343,61 2.468,72 0,00 0,00 0,00 0,00 0,00 2.583,00 17.395,33 2.142,79 2.494,89 0,00 0,00 4.637,68 12.757,65 31/01/2024
628 346600 CRISTIANE NOGUEIRA ANDRADE ANALISTA DO MP BELO HORIZONTE - COMARCA; CENTRAL DE APOIO TECNICO-SETOR CONTABIL 22.191,68 6.657,50 0,00 0,00 0,00 0,00 0,00 2.583,00 31.432,18 4.388,69 5.841,67 0,00 0,00 10.230,36 21.201,82 31/01/2024
629 234000 CRISTIANE OLIVEIRA TOSTES OFICIAL DO MP JUIZ DE FORA - COMARCA; JUIZ DE FORA-PJ-08PJ 20.533,67 8.213,47 0,00 0,00 0,00 0,00 0,00 9.479,01 38.226,15 4.372,36 5.818,10 0,00 0,00 10.190,46 28.035,69 31/01/2024
630 445800 CRISTIANE ORZIL COSTA OFICIAL DO MP SANTA LUZIA - COMARCA; SANTA LUZIA-PJ-05PJ 10.015,59 2.003,12 0,00 0,00 0,00 0,00 0,00 9.979,31 21.998,02 1.695,82 1.953,83 0,00 0,00 3.649,65 18.348,37 31/01/2024
631 616100 CRISTIANE PAES RODRIGUES MARCICANO ANALISTA DO MP CATAGUASES - COMARCA; CATAGUASES-PJ-05PJ 11.577,56 1.157,76 0,00 0,00 0,00 0,00 560,35 9.842,53 23.138,20 1.810,47 2.119,37 0,00 0,00 3.929,84 19.208,36 31/01/2024
632 612300 CRISTIANE RIBEIRO DOS REIS ARCANJO OFICIAL DO MP BELO HORIZONTE - COMARCA; DIRETORIA DE PAGAMENTO DE PESSOAL-DPAG 7.506,70 750,67 0,00 0,00 0,00 0,00 0,00 0,00 8.257,37 1.708,94 811,58 0,00 0,00 2.520,52 5.736,85 31/01/2024
633 257700 CRISTIANE RODRIGUES PAES NUNES ANALISTA DO MP BELO HORIZONTE - COMARCA; BH-22PJ PES COM DEF E IDOSOS-ORIENTACAO PSIC 23.070,31 9.228,12 0,00 0,00 0,00 0,00 473,71 8.897,33 41.669,47 4.940,57 6.586,31 0,00 0,00 11.526,88 30.142,59 31/01/2024
634 510800 CRISTIANE SANTOS FERNANDES ORNELES ANALISTA DO MP BELO HORIZONTE - COMARCA; BH-03PJ EMPRESARIAL-SECRETARIA 12.343,61 2.468,72 0,00 0,00 0,00 0,00 0,00 8.507,93 23.320,26 2.142,79 2.599,16 0,00 0,00 4.741,95 18.578,31 31/01/2024
635 535701 CRISTIANE SANTOS MIRANDA ANALISTA DO MP CONTAGEM - COMARCA; CONTAGEM-PJ-03PJ 11.212,54 1.794,00 0,00 0,00 0,00 0,00 0,00 8.826,14 21.832,68 1.853,87 2.182,02 0,00 0,00 4.035,89 17.796,79 31/01/2024
636 536200 CRISTIANO DE OLIVEIRA ANALISTA DO MP CONCEIÇÃO DO MATO DENTRO - COMARCA; CONCEICAO DO MATO DENTRO-PJ-UNPJ 12.343,61 2.468,72 0,00 0,00 0,00 0,00 0,00 10.801,09 25.613,42 2.142,79 2.494,89 0,00 0,00 4.637,68 20.975,74 31/01/2024
637 477400 CRISTIANO SOARES ELEUTERIO ANALISTA DO MP BELO HORIZONTE - COMARCA; GABINETE DE PROCURADOR DE JUSTIÇA-SALA1109-T3 15.949,86 3.189,97 0,00 0,00 0,00 0,00 0,00 8.707,75 27.847,58 2.835,19 3.598,82 0,00 0,00 6.434,01 21.413,57 31/01/2024
638 449400 CRISTIANO TEIXEIRA RODRIGUES LANA ANALISTA DO MP BELO HORIZONTE - COMARCA; BH-18PJ VIOLENCIA DOMESTICA-SECRETARIA 14.960,00 3.889,60 0,00 0,00 0,00 0,00 0,00 8.614,87 27.464,47 2.788,76 3.531,77 0,00 0,00 6.320,53 21.143,94 31/01/2024
639 239400 CRISTINA DE FATIMA CRUZ E SILVA OFICIAL DO MP MONTE SANTO DE MINAS - COMARCA; MONTE SANTO DE MINAS-PJ-SECRETARIA 18.130,77 7.252,31 0,00 0,00 0,00 3.834,11 0,00 2.583,00 31.800,19 3.834,11 6.095,39 0,00 0,00 9.929,50 21.870,69 31/01/2024
640 544000 CRISTINA DE OLIVEIRA TERRA ANALISTA DO MP BELO HORIZONTE - COMARCA; BH-18PJ VIOLENCIA DOMESTICA-SECRETARIA 12.343,61 2.468,72 0,00 0,00 0,00 0,00 0,00 8.507,93 23.320,26 2.142,79 2.599,16 0,00 0,00 4.741,95 18.578,31 31/01/2024
641 356800 CRISTINA DE PINHO BARROSO OFICIAL DO MP SABINÓPOLIS - COMARCA; SABINOPOLIS-PJ-UNPJ 11.577,56 4.631,02 0,00 0,00 0,00 0,00 0,00 3.729,58 19.938,16 2.366,19 2.817,42 0,00 0,00 5.183,61 14.754,55 31/01/2024
642 649500 CRISTINA DO DIVINO ESPIRITO SANTOS OFICIAL DO MP DIVINÓPOLIS - COMARCA; DIVINOPOLIS-PJ-12PJ 7.270,07 727,01 0,00 0,00 0,00 0,00 0,00 8.660,78 16.657,86 1.052,35 1.024,84 0,00 0,00 2.077,19 14.580,67 31/01/2024
643 727100 CRISTINA DORNELLES CLARET ASSESSOR ADMINISTRATIVO III BELO HORIZONTE - COMARCA; CAO-MEIO AMBIENTE 0,00 0,00 10.858,90 0,00 0,00 0,00 0,00 2.583,00 13.441,90 908,85 2.395,25 0,00 0,00 3.304,10 10.137,80 31/01/2024
644 348201 CRISTINA MARIA DA SILVA ANALISTA DO MP BELO HORIZONTE - COMARCA; CENT ESTAD COOPERACAO TECNICO-JURIDICA 12.343,61 2.468,72 0,00 0,00 0,00 0,00 0,00 4.302,87 19.115,20 2.142,79 2.599,16 0,00 0,00 4.741,95 14.373,25 31/01/2024
645 434900 CRISTINA MELO DE MADUREIRA ANALISTA DO MP BELO HORIZONTE - COMARCA; BH-07PJ 01 TRIBUNAL JURI-SECRETARIA 18.720,84 3.744,17 0,00 0,00 0,00 0,00 0,00 2.583,00 25.048,01 3.367,22 4.366,93 0,00 0,00 7.734,15 17.313,86 31/01/2024
646 307700 CRISTINA TEIXEIRA MARQUES OFICIAL DO MP BELO HORIZONTE - COMARCA; CENTRAL DE APOIO TECNICO-SETOR CONTABIL 12.343,61 3.703,08 0,00 0,00 0,00 0,00 0,00 8.359,81 24.406,50 2.340,29 2.884,30 0,00 0,00 5.224,59 19.181,91 31/01/2024
647 743100 CRISTOVAO JOSE DOS SANTOS JUNIOR ANALISTA DO MP BELO HORIZONTE - COMARCA; CGMP-DIR ESTAGIO PROBATORIO E ORIENT 7.040,78 0,00 0,00 0,00 0,00 0,00 0,00 2.583,00 9.623,78 903,07 802,91 0,00 0,00 1.705,98 7.917,80 31/01/2024
648 265300 CRISTOVAO SANCHES DE MEDEIROS ANALISTA DO MP BELO HORIZONTE - COMARCA; DIRETORIA DE CONTABILIDADE 23.070,31 9.228,12 0,00 0,00 0,00 0,00 0,00 2.583,00 34.881,43 4.940,57 6.638,45 0,00 0,00 11.579,02 23.302,41 31/01/2024
649 349800 CROZEIR LUIZ DA SILVA OFICIAL DO MP UNAÍ - COMARCA; UNAI-PJ-SECRETARIA 12.343,61 3.703,08 0,00 0,00 0,00 0,00 529,54 9.506,39 26.082,62 2.340,29 2.832,16 0,00 0,00 5.172,45 20.910,17 31/01/2024
650 490500 CYNTHIA CRISTINA DE SOUZA OLIVEIRA VALENTE ANALISTA DO MP BELO HORIZONTE - COMARCA; BH-09PJ AUDITORIA MILITAR-GAB 074PJ 12.343,61 2.468,72 0,00 0,00 0,00 0,00 0,00 2.583,00 17.395,33 2.142,79 2.599,16 0,00 0,00 4.741,95 12.653,38 31/01/2024
651 389800 CYNTHIA GARIGLIO DOS SANTOS OFICIAL DO MP PERDIZES - COMARCA; PERDIZES-PJ-SECRETARIA 11.212,54 3.363,76 0,00 0,00 0,00 0,00 0,00 8.413,52 22.989,82 2.105,03 2.388,23 0,00 0,00 4.493,26 18.496,56 31/01/2024
652 335101 CYNTHIA GONTIJO D ASSUNCAO ANALISTA DO MP BELO HORIZONTE - COMARCA; FEPDC-SECRETARIA EXECUTIVA 12.343,61 3.703,08 4.020,58 0,00 0,00 0,00 0,00 3.729,58 23.796,85 2.340,29 3.989,96 0,00 0,00 6.330,25 17.466,60 31/01/2024
653 269700 CYNTIA ROCHA CAVALCANTI OFICIAL DO MP UBERLÂNDIA - COMARCA; UBERLANDIA-PJ-06PJ 18.130,77 7.252,31 0,00 0,00 0,00 0,00 0,00 9.821,52 35.204,60 3.834,11 5.041,01 0,00 0,00 8.875,12 26.329,48 31/01/2024
654 278000 DAIRTON LOPES MARTINS FILHO COORDENADOR II BELO HORIZONTE - COMARCA; DIRETORIA DE SISTEMAS DE INFORMACAO 20.533,67 8.213,47 0,00 0,00 0,00 0,00 0,00 8.332,43 37.079,57 2.537,79 6.322,61 0,00 0,00 8.860,40 28.219,17 31/01/2024
655 392700 DALIANA CHAVES IBRAIM MARINHO OFICIAL DO MP ITAÚNA - COMARCA; ITAUNA-PJ-04PJ 10.341,72 2.068,34 0,00 0,00 0,00 0,00 546,04 8.539,83 21.495,93 1.758,43 2.044,24 0,00 0,00 3.802,67 17.693,26 31/01/2024
656 558101 DALLEY TASSIA SILVA ANALISTA DO MP MORADA NOVA DE MINAS - COMARCA; MORADA NOVA DE MINAS-PJ-UNPJ 12.343,61 1.234,36 0,00 0,00 0,00 0,00 0,00 3.729,58 17.307,55 1.945,30 2.209,75 0,00 0,00 4.155,05 13.152,50 31/01/2024
657 476700 DALTON DAUD ANALISTA DO MP ARAGUARI - COMARCA; ARAGUARI-PJ-05PJ 12.343,61 2.468,72 0,00 0,00 0,00 0,00 543,12 8.507,93 23.863,38 2.142,79 2.494,89 0,00 0,00 4.637,68 19.225,70 31/01/2024
658 750500 DANIEL ALMEIDA RIBEIRO OFICIAL DO MP ESPERA FELIZ - COMARCA; ESPERA FELIZ-PJ-UNPJ 4.570,25 0,00 0,00 0,00 0,00 0,00 0,00 4.057,81 8.628,06 544,12 254,15 0,00 0,00 798,27 7.829,79 31/01/2024
659 426900 DANIEL ALVES DA SILVA OFICIAL DO MP BELO HORIZONTE - COMARCA; DIVISÃO DE FISCALIZAÇÃO DAS RELAÇÕES DE CONSU 7.506,70 1.501,34 0,00 0,00 0,00 0,00 1.771,66 2.583,00 13.362,70 1.214,11 1.641,30 0,00 0,00 2.855,41 10.507,29 31/01/2024
660 536302 DANIEL BATISTA MARIANO OFICIAL DO MP LAGOA SANTA - COMARCA; LAGOA SANTA-PJ-SECRETARIA 4.570,25 731,24 0,00 0,00 0,00 0,00 0,00 2.583,00 7.884,49 646,49 395,65 0,00 0,00 1.042,14 6.842,35 31/01/2024
661 714000 DANIEL FERREIRA CAMARA ASSESSOR PROMOTOR JUSTICA RIBEIRÃO DAS NEVES - COMARCA; RIBEIRAO DAS NEVES-PJ-12PJ 0,00 0,00 8.810,89 0,00 0,00 0,00 0,00 2.583,00 11.393,89 908,85 1.832,05 0,00 0,00 2.740,90 8.652,99 31/01/2024
662 411000 DANIEL FERREIRA DA SILVA ANALISTA DO MP GOVERNADOR VALADARES - COMARCA; GOVERNADOR VALADARES-PJ-15PJ 18.130,77 7.252,31 0,00 0,00 0,00 0,00 0,00 11.541,39 36.924,47 3.834,11 4.832,46 0,00 0,00 8.666,57 28.257,90 31/01/2024
663 703500 DANIEL FILIPE DE DEUS SOARES ASSESSOR PROMOTOR JUSTICA ITABIRITO - COMARCA; ITABIRITO-PJ-02PJ 0,00 0,00 8.810,89 0,00 0,00 0,00 0,00 8.574,41 17.385,30 908,85 1.832,05 0,00 0,00 2.740,90 14.644,40 31/01/2024
664 309000 DANIEL GOMES DOS SANTOS ANALISTA DO MP POÇOS DE CALDAS - COMARCA; POCOS DE CALDAS-PJ-05PJ 23.070,31 6.921,09 0,00 0,00 0,00 0,00 0,00 8.581,28 38.572,68 4.571,45 6.105,53 0,00 0,00 10.676,98 27.895,70 31/01/2024
665 554500 DANIEL GOMES PEREIRA OFICIAL DO MP NANUQUE - COMARCA; NANUQUE-PJ-02PJ 7.506,70 1.501,34 0,00 0,00 0,00 0,00 0,00 8.708,47 17.716,51 1.214,11 1.258,37 0,00 0,00 2.472,48 15.244,03 31/01/2024
666 453000 DANIEL GONCALVES PEREIRA ANALISTA DO MP UNAÍ - COMARCA; UNAI-PJ-02PJ 12.343,61 3.209,34 0,00 0,00 0,00 0,00 0,00 11.670,63 27.223,58 2.261,29 2.770,25 0,00 0,00 5.031,54 22.192,04 31/01/2024
667 495500 DANIEL GUIMARAES CABRAL OFICIAL DO MP BELO HORIZONTE - COMARCA; BH-17PJ PATRIMONIO PUBLICO-SECRETARIA 10.341,72 2.068,34 0,00 0,00 0,00 0,00 0,00 3.729,58 16.139,64 1.758,43 2.044,24 0,00 0,00 3.802,67 12.336,97 31/01/2024
668 442900 DANIEL GUIMARAES GONCALVES ANALISTA DO MP UBERLÂNDIA - COMARCA; UBERLANDIA-PJ-03PJ 18.130,77 4.714,00 0,00 0,00 0,00 0,00 0,00 8.065,74 30.910,51 1.018,60 4.806,65 0,00 0,00 5.825,25 25.085,26 31/01/2024
669 655900 DANIEL LUIZ DA SILVA ASSESSOR ADMINISTRATIVO II BELO HORIZONTE - COMARCA; DIV FISCAL ADM CONT TERCEIRIZACAO 0,00 0,00 7.506,70 0,00 0,00 0,00 0,00 8.588,36 16.095,06 908,85 1.473,40 0,00 0,00 2.382,25 13.712,81 31/01/2024
670 464600 DANIEL PIACENTINI STIVANIN ANALISTA DO MP ANDRADAS - COMARCA; ANDRADAS-PJ-02PJ 12.343,61 2.468,72 0,00 0,00 0,00 0,00 0,00 2.583,00 17.395,33 2.142,79 2.599,16 0,00 0,00 4.741,95 12.653,38 31/01/2024
671 417000 DANIEL QUEIROZ FERREIRA ANALISTA DO MP PASSOS - COMARCA; PASSOS-PJ-06PJ 18.130,77 5.439,23 0,00 0,00 0,00 0,00 0,00 9.386,38 32.956,38 1.018,60 4.991,13 0,00 0,00 6.009,73 26.946,65 31/01/2024
672 396700 DANIEL SILVA CARNEVALLI SUPERINTENDENTE BELO HORIZONTE - COMARCA; SUPERINTENDENCIA DE TECNOLOGIA DA INFORMACAO 28.013,39 8.404,02 0,00 0,00 0,00 0,00 0,00 9.556,37 45.973,78 4.043,82 8.017,78 0,00 0,00 12.061,60 33.912,18 31/01/2024
673 489300 DANIEL TABOZA ROCHA ANALISTA DO MP IPATINGA - COMARCA; IPATINGA-PJ-08PJ 12.343,61 2.468,72 0,00 0,00 0,00 0,00 0,00 3.729,58 18.541,91 1.018,60 2.618,48 0,00 0,00 3.637,08 14.904,83 31/01/2024
674 414100 DANIEL TARDELI VALADAO ANALISTA DO MP TRÊS CORACOES - COMARCA; TRES CORACOES-PJ-02PJ 18.130,77 5.439,23 0,00 0,00 0,00 0,00 0,00 4.876,16 28.446,16 1.018,60 4.782,58 0,00 0,00 5.801,18 22.644,98 31/01/2024
675 731800 DANIEL VASCONCELOS ARAUJO SILVA ASSESSOR ADMINISTRATIVO IV BELO HORIZONTE - COMARCA; DIRETORIA DE REDES E BANCOS DE DADOS 0,00 0,00 14.488,22 0,00 0,00 0,00 531,23 8.378,29 23.397,74 908,85 3.393,32 0,00 0,00 4.302,17 19.095,57 31/01/2024
676 446601 DANIEL VIEIRA BUENO ANALISTA DO MP SÃO DOMINGOS DO PRATA - COMARCA; SAO DOMINGOS DO PRATA-PJ-UNPJ 12.343,61 2.468,72 0,00 0,00 0,00 0,00 0,00 3.729,58 18.541,91 2.142,79 2.547,03 0,00 0,00 4.689,82 13.852,09 31/01/2024
677 253200 DANIELA BATISTA LIMA BARBOSA ASSESSOR ADMINISTRATIVO II BELO HORIZONTE - COMARCA; CENTRAL DE APOIO TECN-SETOR DE MEIO AMBIENTE 0,00 3.002,68 7.506,70 0,00 0,00 0,00 0,00 2.583,00 13.092,38 908,85 2.299,14 0,00 0,00 3.207,99 9.884,39 31/01/2024
678 505800 DANIELA BORGES DE MATTOS RESENDE ANALISTA DO MP JUIZ DE FORA - COMARCA; JUIZ DE FORA-PJ-20PJ 12.343,61 2.468,72 0,00 0,00 0,00 0,00 0,00 8.507,93 23.320,26 2.142,79 2.599,16 0,00 0,00 4.741,95 18.578,31 31/01/2024
679 478000 DANIELA CARVALHO SOARES ANALISTA DO MP SÃO JOÃO DEL REI - COMARCA; SAO JOAO DEL REI-PJ-01PJ 12.343,61 2.468,72 0,00 0,00 0,00 0,00 0,00 2.583,00 17.395,33 2.142,79 2.599,16 0,00 0,00 4.741,95 12.653,38 31/01/2024
680 275900 DANIELA CHAGAS SODRE ANALISTA DO MP BELO HORIZONTE - COMARCA; CENTRAL DE APOIO TECNICO-SETOR CONTABIL 23.070,31 9.228,12 0,00 0,00 0,00 0,00 0,00 2.583,00 34.881,43 4.940,57 6.586,31 0,00 0,00 11.526,88 23.354,55 31/01/2024
681 234301 DANIELA CRUZ SOARES ANALISTA DO MP BELO HORIZONTE - COMARCA; LABORATORIO TECNOLOGIA INTELIGENCIA 23.070,31 9.228,12 0,00 0,00 0,00 0,00 0,00 7.750,75 40.049,18 4.940,57 6.638,45 0,00 0,00 11.579,02 28.470,16 31/01/2024
682 638000 DANIELA DE ALMEIDA BATISTA ANALISTA DO MP ANDRELÂNDIA - COMARCA; ANDRELANDIA-PJ-UNPJ 11.577,56 1.157,76 0,00 0,00 0,00 0,00 560,35 9.842,53 23.138,20 1.018,60 2.337,14 0,00 0,00 3.355,74 19.782,46 31/01/2024
683 301000 DANIELA DE ALMEIDA E OLIVEIRA ANALISTA DO MP BELO HORIZONTE - COMARCA; DIRETORIA DE SISTEMAS DE INFORMACAO 23.070,31 6.921,09 0,00 0,00 0,00 4.571,45 0,00 2.583,00 37.145,85 4.571,45 7.362,68 0,00 0,00 11.934,13 25.211,72 31/01/2024
684 296000 DANIELA DE AZEVEDO SILVA ANALISTA DO MP BRASÓPOLIS - COMARCA; BRASOPOLIS-PJ-UNPJ 23.070,31 9.228,12 0,00 0,00 0,00 0,00 0,00 2.583,00 34.881,43 4.940,57 6.638,45 0,00 0,00 11.579,02 23.302,41 31/01/2024
685 453500 DANIELA DE CASTRO SOUSA BARBOSA ANALISTA DO MP BELO HORIZONTE - COMARCA; BH-08PJ JUIZADO ESPECIAL-GAB 070PJ 14.960,00 3.889,60 0,00 0,00 0,00 0,00 0,00 8.614,87 27.464,47 2.788,76 3.531,77 0,00 0,00 6.320,53 21.143,94 31/01/2024
686 506000 DANIELA DE OLIVEIRA CAVALIERI ANALISTA DO MP BELO HORIZONTE - COMARCA; BH-14PJ DEFESA CONSUMIDOR-GAB 005PJ 12.343,61 2.468,72 0,00 0,00 0,00 0,00 0,00 8.507,93 23.320,26 2.142,79 2.599,16 0,00 0,00 4.741,95 18.578,31 31/01/2024
687 546200 DANIELA DE VILHENA LEMES GONCALVES OFICIAL DO MP TRÊS CORACOES - COMARCA; TRES CORACOES-PJ-05PJ 7.506,70 750,67 0,00 0,00 0,00 0,00 0,00 8.528,31 16.785,68 1.094,00 980,69 0,00 0,00 2.074,69 14.710,99 31/01/2024
688 356400 DANIELA LEAL FERRAZ ANALISTA DO MP MONTES CLAROS - COMARCA; COORD REG PJ DEF EDUC DIR CRIANCA ADOL NORTE 21.346,53 6.403,96 0,00 0,00 0,00 0,00 0,00 3.729,58 31.480,07 4.212,90 5.587,88 0,00 0,00 9.800,78 21.679,29 31/01/2024
689 501000 DANIELA LOURENCO SANTOS DA SILVA GUIMARAES ANALISTA DO MP BELO HORIZONTE - COMARCA; BH-12PJ JUIZO CRIMINAL-GAB 095PJ 12.343,61 2.468,72 0,00 0,00 0,00 0,00 0,00 2.583,00 17.395,33 2.142,79 2.547,03 0,00 0,00 4.689,82 12.705,51 31/01/2024
690 195801 DANIELA MARIA DE OLIVEIRA QUEIROZ ANALISTA DO MP ARAGUARI - COMARCA; ARAGUARI-PJ-06PJ 18.720,84 7.488,34 0,00 0,00 0,00 0,00 0,00 7.824,84 34.034,02 3.966,29 5.231,83 0,00 0,00 9.198,12 24.835,90 31/01/2024
691 511400 DANIELA MARIA LARA DE OLIVEIRA ANALISTA DO MP BOA ESPERANÇA - COMARCA; BOA ESPERANCA-PJ-02PJ 12.343,61 3.703,08 0,00 0,00 0,00 0,00 0,00 9.506,39 25.553,08 2.340,29 2.832,16 0,00 0,00 5.172,45 20.380,63 31/01/2024
692 252101 DANIELA PAULA ALVES PENA ANALISTA DO MP CONTAGEM - COMARCA; CONTAGEM-PJ-APO TECNICO 20.533,67 8.213,47 0,00 0,00 0,00 0,00 0,00 2.583,00 31.330,14 4.372,36 5.818,10 0,00 0,00 10.190,46 21.139,68 31/01/2024
693 604700 DANIELA PEIXOTO NOGUEIRA COORDENADOR II BELO HORIZONTE - COMARCA; DIRET DE FORMACAO, APERFEIC. E POS-GRADUACAO 20.533,67 4.106,73 0,00 0,00 0,00 0,00 0,00 9.643,28 34.283,68 1.214,11 5.557,27 0,00 0,00 6.771,38 27.512,30 31/01/2024
694 755700 DANIELA PIMENTEL PEREIRA ASSESSOR ADMINISTRATIVO I BELO HORIZONTE - COMARCA; DIRET DE ESTAGIOS E CONVENIOS ACADEMICOS 0,00 0,00 4.872,71 0,00 0,00 0,00 0,00 2.583,00 7.455,71 777,91 785,06 0,00 0,00 1.562,97 5.892,74 31/01/2024
695 662000 DANIELA RIBAS DE AVILA ASSESSOR ADMINISTRATIVO III BELO HORIZONTE - COMARCA; JUNTA RECURSAL DO PROCON ESTADUAL 0,00 0,00 10.858,90 0,00 0,00 0,00 0,00 7.795,27 18.654,17 908,85 2.395,25 0,00 0,00 3.304,10 15.350,07 31/01/2024
696 462000 DANIELA SOUSA GOMES DO AMARAL ANALISTA DO MP BETIM - COMARCA; BETIM-PJ-04PJ 15.447,01 3.089,40 0,00 0,00 0,00 0,00 0,00 8.514,65 27.051,06 2.738,65 3.459,42 0,00 0,00 6.198,07 20.852,99 31/01/2024
697 427000 DANIELA TEIXEIRA DINIZ ANDRADE ANALISTA DO MP BELO HORIZONTE - COMARCA; DIRETORIA DE PROJETOS DE EDIFICACOES 13.588,97 2.717,79 4.020,58 0,00 0,00 0,00 0,00 8.274,66 28.602,00 2.381,90 3.997,90 0,00 0,00 6.379,80 22.222,20 31/01/2024
698 337200 DANIELA TOLEDO SENIUK ANALISTA DO MP BELO HORIZONTE - COMARCA; GABINETE DE PROCURADOR DE JUSTIÇA - SALA 412 23.070,31 6.921,09 0,00 0,00 0,00 0,00 0,00 8.581,28 38.572,68 4.571,45 6.105,53 0,00 0,00 10.676,98 27.895,70 31/01/2024
699 605600 DANIELE ALZIRA SILVA CABRAL MOREIRA OFICIAL DO MP BELO HORIZONTE - COMARCA; BH-10PJ EXECUÇÃO PENAL-SECRETARIA 7.506,70 1.501,34 0,00 0,00 0,00 0,00 0,00 2.583,00 11.591,04 1.214,11 1.258,37 0,00 0,00 2.472,48 9.118,56 31/01/2024
700 195500 DANIELE CHAVES FONSECA OFICIAL DO MP BELO HORIZONTE - COMARCA; CGMP-DIR INSP CORR PROCED PROC DISC 23.070,31 9.228,12 0,00 0,00 0,00 0,00 0,00 7.750,75 40.049,18 4.940,57 6.638,45 0,00 0,00 11.579,02 28.470,16 31/01/2024
701 323400 DANIELE MEGALE SANTINI OFICIAL DO MP BELO HORIZONTE - COMARCA; CGMP-DIR INSP CORR PROCED PROC DISC 14.960,00 4.488,00 0,00 0,00 0,00 0,00 0,00 8.806,36 28.254,36 2.884,50 3.617,87 0,00 0,00 6.502,37 21.751,99 31/01/2024
702 357900 DANIELE REJANE PINTO VERSIEUX OFICIAL DO MP BELO HORIZONTE - COMARCA; BH-12PJ JUIZO CRIMINAL-SECRETARIA 12.343,61 3.703,08 0,00 0,00 0,00 0,00 0,00 8.359,81 24.406,50 2.340,29 2.884,30 0,00 0,00 5.224,59 19.181,91 31/01/2024
703 389500 DANIELE VASCONCELOS AMORIM OFICIAL DO MP SÃO SEBASTIÃO DO PARAÍSO - COMARCA; SAO SEBASTIAO DO PARAISO-PJ-04PJ 12.343,61 3.703,08 0,00 0,00 0,00 0,00 0,00 2.583,00 18.629,69 2.340,29 2.884,30 0,00 0,00 5.224,59 13.405,10 31/01/2024
704 629700 DANIELLA BASTOS MARTINS BICALHO OFICIAL DO MP GOVERNADOR VALADARES - COMARCA; GOVERNADOR VALADARES-PJ-16PJ 7.506,70 750,67 0,00 0,00 0,00 0,00 0,00 8.528,31 16.785,68 1.094,00 1.084,97 0,00 0,00 2.178,97 14.606,71 31/01/2024
705 725500 DANIELLE CAMILE OLIVEIRA FONSECA ASSESSOR PROCURADOR JUSTICA BELO HORIZONTE - COMARCA; PROC JUST ATUACAO TRIBUNAIS SUPERIORES-GAB007 0,00 0,00 8.810,89 0,00 0,00 0,00 0,00 8.574,41 17.385,30 908,85 1.832,05 0,00 0,00 2.740,90 14.644,40 31/01/2024
706 265000 DANIELLE CASTANHEIRA SCALABRINI OFICIAL DO MP BELO HORIZONTE - COMARCA; JUNTA RECURSAL DO PROCON ESTADUAL 12.343,61 4.937,44 0,00 0,00 0,00 0,00 0,00 2.583,00 19.864,05 2.537,79 3.117,30 0,00 0,00 5.655,09 14.208,96 31/01/2024
707 490100 DANIELLE DE AVILA SILVA LOPES ANALISTA DO MP BELO HORIZONTE - COMARCA; PROC. JUSTICA DIR. DIFUSOS E COLETIVOS-SEC 12.343,61 4.937,44 0,00 0,00 0,00 0,00 0,00 3.729,58 21.010,63 2.537,79 3.169,44 0,00 0,00 5.707,23 15.303,40 31/01/2024
708 549600 DANIELLE GOMES LOPES RODRIGUES OFICIAL DO MP BELO HORIZONTE - COMARCA; COORD DE GABINETE DO PGJ 7.506,70 1.501,34 0,00 0,00 0,00 0,00 0,00 2.583,00 11.591,04 1.214,11 1.258,37 0,00 0,00 2.472,48 9.118,56 31/01/2024
709 613000 DANIELLE SILVA OLIVEIRA FRANKLIN COORDENADOR II BELO HORIZONTE - COMARCA; DIRETORIA DE ADMINISTRACAO FINANCEIRA 20.533,67 2.053,37 0,00 0,00 0,00 0,00 0,00 3.729,58 26.316,62 1.227,30 4.988,97 0,00 0,00 6.216,27 20.100,35 31/01/2024
710 722800 DANIELLE VALENTIM SOUZA ASSESSOR PROCURADOR JUSTICA BELO HORIZONTE - COMARCA; GABINETE DE PROCURADOR DE JUSTIÇA - SALA 606 0,00 0,00 8.810,89 0,00 0,00 0,00 0,00 2.583,00 11.393,89 908,85 1.832,05 0,00 0,00 2.740,90 8.652,99 31/01/2024
711 736400 DANIELLY VITORIA MARIA RUELA ASSESSOR PROMOTOR JUSTICA PARACATU - COMARCA; COORD REG PP NOROESTE MINAS GERAIS PARACATU 0,00 0,00 8.810,89 0,00 0,00 0,00 0,00 2.583,00 11.393,89 908,85 1.832,05 0,00 0,00 2.740,90 8.652,99 31/01/2024
712 380800 DANILLO RIBEIRO ANTUNES ANALISTA DO MP MONTES CLAROS - COMARCA; MONTES CLAROS-PJ-SECRETARIA 20.533,67 6.160,10 0,00 0,00 0,00 0,00 1.771,66 8.276,09 36.741,52 4.043,82 5.778,85 0,00 0,00 9.822,67 26.918,85 31/01/2024
713 453700 DANILO BOTELHO DE CARVALHO SUPERINTENDENTE BELO HORIZONTE - COMARCA; SUPERINTENDENCIA DE FINANCAS 28.013,39 5.602,68 0,00 0,00 0,00 0,00 0,00 7.961,57 41.577,64 3.253,93 7.464,63 0,00 0,00 10.718,56 30.859,08 31/01/2024
714 391200 DANILO D'AVILA MENDES ANALISTA DO MP MONTES CLAROS - COMARCA; GAECO REGIONAL DE MONTES CLAROS 20.533,67 6.160,10 0,00 0,00 0,00 0,00 0,00 9.068,33 35.762,10 4.043,82 5.343,78 0,00 0,00 9.387,60 26.374,50 31/01/2024
715 710900 DANILO DE SOUZA RODRIGUES ASSESSOR PROMOTOR JUSTICA IPANEMA - COMARCA; IPANEMA-PJ-01PJ 0,00 0,00 8.810,89 0,00 0,00 0,00 0,00 2.583,00 11.393,89 908,85 1.832,05 0,00 0,00 2.740,90 8.652,99 31/01/2024
716 494900 DANILO GAVIAO AVELINO DE MELLO ANALISTA DO MP POUSO ALEGRE - COMARCA; GAECO REGIONAL DE POUSO ALEGRE 12.343,61 2.468,72 0,00 0,00 0,00 0,00 543,12 8.507,93 23.863,38 2.142,79 2.599,16 0,00 0,00 4.741,95 19.121,43 31/01/2024
717 604300 DANILO NASCIMENTO SALGADO ANALISTA DO MP JANAÚBA - COMARCA; JANAUBA-PJ-01PJ 12.343,61 2.468,72 0,00 0,00 0,00 0,00 0,00 8.507,93 23.320,26 2.142,79 2.599,16 0,00 0,00 4.741,95 18.578,31 31/01/2024
718 298300 DANUZA MONICA DE SOUZA DINIZ ANALISTA DO MP BELO HORIZONTE - COMARCA; CAO-FUNDACOES-ASSESSORIA JURIDICA 23.070,31 6.921,09 0,00 0,00 0,00 0,00 0,00 2.583,00 32.574,40 4.571,45 6.053,39 0,00 0,00 10.624,84 21.949,56 31/01/2024
719 398700 DARCY LUIZ MILEO GREGATTI OFICIAL DO MP LAMBARI - COMARCA; LAMBARI-PJ-SECRETARIA 12.343,61 3.703,08 0,00 0,00 0,00 0,00 529,54 8.359,81 24.936,04 2.340,29 2.884,30 0,00 0,00 5.224,59 19.711,45 31/01/2024
720 406200 DARIANA AUGUSTA DE TOLEDO PATROCINIO RUIZ OFICIAL DO MP BELO HORIZONTE - COMARCA; DIRETORIA GESTAO COMPRAS LICITACOES 12.343,61 3.703,08 5.538,92 0,00 0,00 0,00 0,00 9.931,76 31.517,37 2.340,29 4.407,50 0,00 0,00 6.747,79 24.769,58 31/01/2024
721 586901 DARIO VITORINO DE CARVALHO SILVA ASSESSOR ADM. ESPECIAL BELO HORIZONTE - COMARCA; NUCLEO DE OPERACOES DE SEGURANCA DE PESSOAL 0,00 0,00 28.013,39 0,00 0,00 0,00 0,00 8.185,68 36.199,07 908,85 7.060,60 0,00 0,00 7.969,45 28.229,62 31/01/2024
722 305000 DARLI LEITE DE OLIVEIRA OFICIAL DO MP ARAÇUAÍ - COMARCA; ARACUAI-PJ-01PJ 7.506,70 2.252,01 0,00 0,00 0,00 0,00 0,00 8.828,57 18.587,28 1.334,22 1.275,36 0,00 0,00 2.609,58 15.977,70 31/01/2024
723 729400 DAVI PIMENTA ASSESSOR PROMOTOR JUSTICA CANDEIAS - COMARCA; CANDEIAS-PJ-UNPJ 0,00 0,00 8.810,89 0,00 0,00 0,00 0,00 8.574,41 17.385,30 908,85 1.832,05 0,00 0,00 2.740,90 14.644,40 31/01/2024
724 122200 DAVID RIBEIRO DOS SANTOS ANALISTA DO MP BORDA DA MATA - COMARCA; BORDA DA MATA-PJ-UNPJ 23.070,31 23.070,31 0,00 0,00 0,00 5.787,22 0,00 7.788,26 59.716,10 5.787,22 8.668,46 8.550,66 0,00 23.006,34 36.709,76 31/01/2024
725 389400 DAWSON CANEDO MARQUES OFICIAL DO MP POUSO ALEGRE - COMARCA; POUSO ALEGRE-PJ-08PJ 12.343,61 3.703,08 0,00 0,00 0,00 0,00 0,00 3.729,58 19.776,27 2.340,29 1.020,46 0,00 0,00 3.360,75 16.415,52 31/01/2024
726 537200 DAYANE TEIXEIRA DE OLIVEIRA CASELLI ANALISTA DO MP BELO HORIZONTE - COMARCA; ASSESS TECNICO-JUR JUNTO AS PROC. DE JUST 11.212,54 1.121,25 0,00 0,00 0,00 0,00 0,00 2.583,00 14.916,79 1.746,23 2.026,62 0,00 0,00 3.772,85 11.143,94 31/01/2024
727 256100 DAYSE ROSALY PEREIRA BATISTA OFICIAL DO MP BELO HORIZONTE - COMARCA; BH-08PJ JUIZADO ESPECIAL-SECRETARIA 12.343,61 4.937,44 0,00 0,00 0,00 0,00 0,00 8.804,18 26.085,23 2.537,79 3.169,44 0,00 0,00 5.707,23 20.378,00 31/01/2024
728 311901 DEBORA APARECIDA DA SILVA ASSESSOR ADMINISTRATIVO I BELO HORIZONTE - COMARCA; BH-23PJ CIVEL-SETOR JURIDICO 0,00 0,00 4.872,71 0,00 0,00 0,00 0,00 2.583,00 7.455,71 908,85 749,05 0,00 0,00 1.657,90 5.797,81 31/01/2024
729 194301 DEBORA APARECIDA DOS SANTOS ANALISTA DO MP UBERLÂNDIA - COMARCA; UBERLANDIA-PJ-SEC FAMILIA 23.070,31 9.228,12 0,00 0,00 0,00 0,00 0,00 7.750,75 40.049,18 4.940,57 6.638,45 0,00 0,00 11.579,02 28.470,16 31/01/2024
730 518800 DEBORA CARVALHO FIORATTO COORDENADOR II BELO HORIZONTE - COMARCA; DIRETORIA MATERIAIS E SERVICOS 20.533,67 4.106,73 0,00 0,00 0,00 0,00 0,00 8.496,70 33.137,10 1.791,99 5.398,35 0,00 0,00 7.190,34 25.946,76 31/01/2024
731 444900 DEBORA CLAUDIA PEREIRA ALVES ANALISTA DO MP BELO HORIZONTE - COMARCA; BH-08PJ JUIZADO ESPECIAL-GAB 168PJ 14.960,00 2.992,00 0,00 0,00 0,00 0,00 0,00 8.327,64 26.279,64 2.645,14 3.324,43 0,00 0,00 5.969,57 20.310,07 31/01/2024
732 617700 DEBORA COMANDUCI SCHREIDER ANALISTA DO MP BICAS - COMARCA; BICAS-PJ-UNPJ 12.343,61 1.234,36 0,00 0,00 0,00 0,00 0,00 2.583,00 16.160,97 1.945,30 2.261,89 0,00 0,00 4.207,19 11.953,78 31/01/2024
733 555700 DEBORA CRISTINA BUITRAGO PEREIRA ANALISTA DO MP BELO HORIZONTE - COMARCA; DIRETORIA GESTAO CONTRATOS CONVENIOS 12.343,61 2.468,72 4.020,58 0,00 0,00 0,00 69,05 4.482,90 23.384,86 2.142,79 3.704,82 0,00 0,00 5.847,61 17.537,25 31/01/2024
734 513100 DEBORA CRISTINA PEREIRA DE OLIVEIRA ANALISTA DO MP BELO HORIZONTE - COMARCA; BH-23PJ CIVEL-SETOR JURIDICO 14.960,00 2.992,00 0,00 0,00 0,00 0,00 0,00 4.302,87 22.254,87 2.645,14 3.324,43 0,00 0,00 5.969,57 16.285,30 31/01/2024
735 612100 DEBORA DUARTE SILVA DE SOUZA OFICIAL DO MP BELO HORIZONTE - COMARCA; BH-12PJ JUIZO CRIMINAL-SECRETARIA 7.506,70 3.002,68 0,00 0,00 0,00 0,00 0,00 8.468,25 18.977,63 1.454,32 1.500,91 0,00 0,00 2.955,23 16.022,40 31/01/2024
736 717500 DEBORA ENDREFFY ORSI PARENZI ASSESSOR PROMOTOR JUSTICA MATEUS LEME - COMARCA; MATEUS LEME-PJ-01PJ 0,00 0,00 8.810,89 0,00 0,00 0,00 0,00 2.583,00 11.393,89 908,85 1.832,05 0,00 0,00 2.740,90 8.652,99 31/01/2024
737 539700 DEBORA SALES CARVALHO ANALISTA DO MP PATOS DE MINAS - COMARCA; COORD REG PJ DEF EDU DIR CRI ADO AL PAR NOROE 12.343,61 2.468,72 0,00 0,00 0,00 0,00 0,00 2.583,00 17.395,33 1.018,60 2.763,40 0,00 0,00 3.782,00 13.613,33 31/01/2024
738 424100 DEBORA SANTOS E ALVES ANALISTA DO MP JANUÁRIA - COMARCA; JANUARIA-PJ-01PJ 18.720,84 5.616,25 0,00 0,00 0,00 0,00 535,42 9.570,48 34.442,99 3.666,76 4.799,38 0,00 0,00 8.466,14 25.976,85 31/01/2024
739 426301 DEBORA SCUCATO MACHADO SOARES OFICIAL DO MP ITABIRA - COMARCA; ITABIRA-PJ-01PJ 7.506,70 1.501,34 0,00 0,00 0,00 0,00 0,00 9.855,05 18.863,09 1.214,11 1.258,37 0,00 0,00 2.472,48 16.390,61 31/01/2024
740 678100 DEBORA SOUZA COSTA ASSESSOR PROMOTOR JUSTICA BOTELHOS - COMARCA; BOTELHOS-PJ-UNPJ 0,00 0,00 8.781,52 0,00 0,00 0,00 0,00 2.583,00 11.364,52 908,85 1.771,84 0,00 0,00 2.680,69 8.683,83 31/01/2024
741 550200 DEBORA TRINDADE LEITE ANALISTA DO MP MANHUAÇU - COMARCA; MANHUACU-PJ-05PJ 12.343,61 2.468,72 0,00 0,00 0,00 0,00 0,00 8.507,93 23.320,26 2.142,79 2.494,89 0,00 0,00 4.637,68 18.682,58 31/01/2024
742 438000 DEBORAH COSTA LAGE ANALISTA DO MP BELO HORIZONTE - COMARCA; PROC JUST ATUACAO TRIBUNAIS SUPERIORES-GAB006 18.720,84 3.744,17 0,00 0,00 0,00 0,00 0,00 2.583,00 25.048,01 3.367,22 4.366,93 0,00 0,00 7.734,15 17.313,86 31/01/2024
743 613700 DEISER MARIA FERREIRA ROSCOE OFICIAL DO MP BELO HORIZONTE - COMARCA; DIVISÃO DE EDUCAÇÃO PARA O CONSUMO 7.506,70 750,67 0,00 0,00 0,00 0,00 0,00 8.528,31 16.785,68 1.094,00 1.084,97 0,00 0,00 2.178,97 14.606,71 31/01/2024
744 753300 DEISIANE MARA DE OLIVEIRA OFICIAL DO MP CONSELHEIRO PENA - COMARCA; CONSELHEIRO PENA-PJ-01PJ 4.570,25 0,00 0,00 0,00 0,00 0,00 0,00 2.583,00 7.153,25 544,12 254,15 0,00 0,00 798,27 6.354,98 31/01/2024
745 551900 DEISY ROCHA DA SILVA ANALISTA DO MP JANAÚBA - COMARCA; JANAUBA-PJ-02PJ 12.343,61 2.468,72 0,00 0,00 0,00 0,00 0,00 8.507,93 23.320,26 2.142,79 2.547,03 0,00 0,00 4.689,82 18.630,44 31/01/2024
746 736800 DELANZIA APARECIDA JUNHO ASSESSOR DE CAO BELO HORIZONTE - COMARCA; CAO-FUNDACOES 0,00 0,00 7.506,70 0,00 0,00 0,00 0,00 2.583,00 10.089,70 908,85 1.473,40 0,00 0,00 2.382,25 7.707,45 31/01/2024
747 501900 DELI RAQUEL RODRIGUES ANALISTA DO MP ITUIUTABA - COMARCA; ITUIUTABA-PJ-04PJ 12.343,61 2.468,72 0,00 0,00 0,00 0,00 0,00 2.583,00 17.395,33 2.142,79 2.599,16 0,00 0,00 4.741,95 12.653,38 31/01/2024
748 378600 DELIANE LOPES VIEIRA BREIJAO ANALISTA DO MP JUIZ DE FORA - COMARCA; JUIZ DE FORA-PJ-04PJ 20.533,67 6.160,10 0,00 0,00 0,00 0,00 0,00 7.921,75 34.615,52 4.043,82 5.291,64 0,00 0,00 9.335,46 25.280,06 31/01/2024
749 730100 DELIENE FRACETE GUTIERREZ ASSESSOR ADMINISTRATIVO I TEÓFILO OTONI - COMARCA; COORD REG APOIO COM INC MOB SOC VALE MUCURI 0,00 0,00 4.872,71 0,00 0,00 0,00 0,00 2.583,00 7.455,71 908,85 749,05 0,00 0,00 1.657,90 5.797,81 31/01/2024
750 756600 DELZIRA DE OLIVEIRA BALDOINO ASSESSOR DE CAO BELO HORIZONTE - COMARCA; CENTRO ESTADUAL DE APOIO AS VITIMAS 0,00 0,00 7.506,70 0,00 0,00 0,00 0,00 2.583,00 10.089,70 908,85 1.473,40 0,00 0,00 2.382,25 7.707,45 31/01/2024
751 487700 DENIA FERREIRA MAIA SILVA OFICIAL DO MP TRÊS CORACOES - COMARCA; TRES CORACOES-PJ-04PJ 8.264,07 1.652,81 0,00 0,00 0,00 0,00 0,00 8.533,13 18.450,01 1.359,52 1.364,04 0,00 0,00 2.723,56 15.726,45 31/01/2024
752 726300 DENILZA RODRIGUES MORAES ASSESSOR ADMINISTRATIVO I BELO HORIZONTE - COMARCA; CENT DE ATENDIMENTO AS PROMOTORIAS DE JUSTICA 0,00 0,00 4.872,71 0,00 0,00 0,00 0,00 7.455,71 12.328,42 777,91 785,06 0,00 0,00 1.562,97 10.765,45 31/01/2024
753 424800 DENIS APARECIDO CAMPOS DELFINO ANALISTA DO MP LUZ - COMARCA; LUZ-PJ-UNPJ 18.130,77 5.439,23 0,00 1.813,08 604,36 0,00 1.813,08 8.239,80 36.040,32 3.834,11 4.832,46 0,00 290,09 8.956,66 27.083,66 31/01/2024
754 381400 DENISE ANGELICA MELLO DE PAULA OFICIAL DO MP BELO HORIZONTE - COMARCA; BH-18PJ DIREITOS HUMANOS-SECRETARIA 12.343,61 3.703,08 4.346,47 0,00 0,00 0,00 0,00 3.729,58 24.122,74 2.340,29 4.079,58 0,00 0,00 6.419,87 17.702,87 31/01/2024
755 196300 DENISE DE ALMEIDA VILELA FURTADO OFICIAL DO MP BELO HORIZONTE - COMARCA; CENTRAL DE APOIO TECNICO-SECRETARIA 21.346,53 8.538,61 0,00 0,00 0,00 0,00 0,00 10.279,90 40.165,04 4.554,44 6.080,98 0,00 0,00 10.635,42 29.529,62 31/01/2024
756 271100 DENISE ELOY PEIXOTO OFICIAL DO MP BELO HORIZONTE - COMARCA; DIRETORIA DE INTELIGENCIA 18.130,77 7.252,31 5.538,92 0,00 0,00 0,00 0,00 8.767,40 39.689,40 3.834,11 6.564,21 0,00 0,00 10.398,32 29.291,08 31/01/2024
757 385400 DENISE FREITAS DE ASSIS OFICIAL DO MP CARATINGA - COMARCA; CARATINGA-PJ-SECRETARIA 12.343,61 3.703,08 3.004,68 0,00 0,00 0,00 0,00 2.583,00 21.634,37 2.340,29 3.710,59 0,00 0,00 6.050,88 15.583,49 31/01/2024
758 437100 DENISE NOGUEIRA MAGRI MENDES ANALISTA DO MP BELO HORIZONTE - COMARCA; LAB TECNOLOGIA CONTRA LAVAGEM DINHEIRO 18.720,84 7.488,34 0,00 0,00 0,00 0,00 0,00 2.583,00 28.792,18 3.966,29 5.127,56 0,00 0,00 9.093,85 19.698,33 31/01/2024
759 524700 DENISE RAMOS GUIMARAES OFICIAL DO MP BELO HORIZONTE - COMARCA; BH-07PJ 01 TRIBUNAL JURI-SECRETARIA 7.506,70 1.501,34 0,00 0,00 0,00 0,00 0,00 2.583,00 11.591,04 1.214,11 1.258,37 0,00 0,00 2.472,48 9.118,56 31/01/2024
760 239100 DENISE RIBEIRO DOS SANTOS CAETANO OFICIAL DO MP ITANHANDU - COMARCA; ITANHANDU-PJ-SECRETARIA 18.130,77 7.252,31 0,00 0,00 0,00 0,00 0,00 8.674,94 34.058,02 3.834,11 4.988,87 0,00 0,00 8.822,98 25.235,04 31/01/2024
761 325500 DENISE ROSA TORRES OFICIAL DO MP BELO HORIZONTE - COMARCA; DIRETORIA DE PESSOAL ADMINISTRATIVO - DPAD 14.960,00 4.488,00 0,00 0,00 0,00 0,00 0,00 8.806,36 28.254,36 2.884,50 3.670,00 0,00 0,00 6.554,50 21.699,86 31/01/2024
762 437200 DENISE VIVIANE DOS SANTOS ANALISTA DO MP BELO HORIZONTE - COMARCA; CGMP-DIR ESTAGIO PROBATORIO E ORIENT 15.949,86 3.189,97 0,00 0,00 0,00 0,00 0,00 4.302,87 23.442,70 2.835,19 3.546,68 0,00 0,00 6.381,87 17.060,83 31/01/2024
763 267900 DENISIA ALMEIDA SALES OFICIAL DO MP BELO HORIZONTE - COMARCA; BH-18PJ DIREITOS HUMANOS-SECRETARIA 12.343,61 4.937,44 0,00 0,00 0,00 0,00 0,00 8.804,18 26.085,23 2.537,79 3.117,30 0,00 0,00 5.655,09 20.430,14 31/01/2024
764 755500 DENNER GUEDES NEIVA ASSESSOR PROMOTOR JUSTICA NOVO CRUZEIRO - COMARCA; NOVO CRUZEIRO-PJ-UNPJ 0,00 0,00 8.810,89 0,00 0,00 0,00 0,00 2.583,00 11.393,89 908,85 1.832,05 0,00 0,00 2.740,90 8.652,99 31/01/2024
765 355300 DEYSE CRISTINA MORAIS OFICIAL DO MP PASSOS - COMARCA; PASSOS-PJ-02PJ 12.343,61 3.703,08 0,00 0,00 0,00 0,00 0,00 8.359,81 24.406,50 2.340,29 2.884,30 0,00 0,00 5.224,59 19.181,91 31/01/2024
766 523700 DIANA CAMPOS RESENDE OFICIAL DO MP SÃO JOÃO DEL REI - COMARCA; SAO JOAO DEL REI-PJ-04PJ 10.516,49 7.361,54 0,00 0,00 0,00 0,00 327,76 6.158,61 24.364,40 2.633,31 3.255,20 0,00 0,00 5.888,51 18.475,89 31/01/2024
767 241900 DIANA CARDOSO MARTINS OFICIAL DO MP BELO HORIZONTE - COMARCA; CAO-DH CONT EXT ATIV POLIC E AP COMUNIT 12.343,61 4.937,44 0,00 0,00 0,00 0,00 0,00 2.583,00 19.864,05 2.537,79 3.169,44 0,00 0,00 5.707,23 14.156,82 31/01/2024
768 410100 DIANA GORDILHO SILVEIRA SENA ANALISTA DO MP BELO HORIZONTE - COMARCA; BH-14PJ DEFESA CONSUMIDOR-GAB 112PJ 18.720,84 5.616,25 0,00 0,00 0,00 0,00 0,00 8.423,90 32.760,99 3.666,76 4.799,38 0,00 0,00 8.466,14 24.294,85 31/01/2024
769 553000 DIANA MARIA MARQUES ANALISTA DO MP BETIM - COMARCA; BETIM-PJ-07PJ 12.343,61 2.468,72 0,00 0,00 0,00 0,00 0,00 2.583,00 17.395,33 2.142,79 2.547,03 0,00 0,00 4.689,82 12.705,51 31/01/2024
770 520000 DIARLE TOSTE DOS SANTOS ANALISTA DO MP RIO POMBA - COMARCA; RIO POMBA-PJ-UNPJ 12.343,61 2.468,72 0,00 0,00 0,00 0,00 0,00 8.507,93 23.320,26 2.142,79 1.822,56 0,00 0,00 3.965,35 19.354,91 31/01/2024
771 539800 DIEGO CAMARGOS RODRIGUES OFICIAL DO MP CONTAGEM - COMARCA; CONTAGEM-PJ-05PJ 7.506,70 1.501,34 0,00 0,00 0,00 0,00 0,00 2.583,00 11.591,04 1.214,11 1.258,37 0,00 0,00 2.472,48 9.118,56 31/01/2024
772 607300 DIEGO CERVEIRA DE SOUZA ANALISTA DO MP PATOS DE MINAS - COMARCA; COORD REG BACIAS PARACATU,URUCUIA E ABAETE 12.343,61 2.468,72 0,00 1.234,36 411,45 0,00 1.234,36 8.507,93 26.200,43 1.018,60 3.077,39 0,00 0,00 4.095,99 22.104,44 31/01/2024
773 446900 DIEGO DE FREITAS OFICIAL DO MP UBERABA - COMARCA; UBERABA-PJ-06PJ 11.577,56 2.315,51 0,00 0,00 0,00 0,00 0,00 8.695,95 22.589,02 1.995,71 2.386,81 0,00 0,00 4.382,52 18.206,50 31/01/2024
774 288800 DILENE NEPOMUCENO ALVES OFICIAL DO MP BELO HORIZONTE - COMARCA; DIRETORIA DE PESSOAL ADMINISTRATIVO - DPAD 12.343,61 4.937,44 0,00 0,00 0,00 0,00 0,00 8.804,18 26.085,23 2.537,79 3.169,44 0,00 0,00 5.707,23 20.378,00 31/01/2024
775 270101 DILSON DO AMARAL ANALISTA DO MP RIO CASCA - COMARCA; RIO CASCA-PJ-UNPJ 12.343,61 3.703,08 0,00 0,00 0,00 0,00 0,00 2.583,00 18.629,69 2.340,29 2.884,30 0,00 0,00 5.224,59 13.405,10 31/01/2024
776 466000 DIMITRI GUDE MARCIAL ANALISTA DO MP NANUQUE - COMARCA; NANUQUE-PJ-02PJ 12.343,61 2.468,72 0,00 0,00 0,00 0,00 0,00 10.801,09 25.613,42 2.142,79 2.442,75 0,00 0,00 4.585,54 21.027,88 31/01/2024
777 516300 DINORA APARECIDA MACEDO BRANDAO ANALISTA DO MP BELO HORIZONTE - COMARCA; BH-19PJ SAUDE-SECRETARIA 150PJ 12.343,61 2.468,72 0,00 0,00 0,00 0,00 0,00 8.507,93 23.320,26 2.142,79 2.599,16 0,00 0,00 4.741,95 18.578,31 31/01/2024
778 511700 DIOGENES HENRIQUES PEREIRA LOURENCO ANALISTA DO MP BELO HORIZONTE - COMARCA; BH-03PJ EMPRESARIAL-SECRETARIA 12.343,61 2.468,72 0,00 0,00 0,00 0,00 0,00 9.654,51 24.466,84 1.018,60 2.763,40 0,00 0,00 3.782,00 20.684,84 31/01/2024
779 604100 DIOGO CESAR DE OLIVEIRA HONORIO ASSESSOR ADMINISTRATIVO III PIUMHI - COMARCA; PIUMHI-PJ-02PJ 0,00 0,00 10.858,90 0,00 0,00 0,00 0,00 2.583,00 13.441,90 908,85 2.395,25 0,00 0,00 3.304,10 10.137,80 31/01/2024
780 259600 DIOGO MESQUITA MAIA ANALISTA DO MP BELO HORIZONTE - COMARCA; DIRET DE APOIO AS PROCURADORIAS DE JUSTICA 23.070,31 20.763,28 0,00 0,00 0,00 5.787,22 477,15 7.788,26 57.886,22 5.787,22 8.827,81 6.243,63 0,00 20.858,66 37.027,56 31/01/2024
781 386700 DIRCIMAR FERNANDES CARNEIRO OFICIAL DO MP BELO HORIZONTE - COMARCA; BH-16PJ HABITACAO URBANISMO-GAB 117PJ 12.343,61 9.874,89 0,00 0,00 0,00 0,00 0,00 8.804,18 31.022,68 3.327,78 4.309,99 0,00 0,00 7.637,77 23.384,91 31/01/2024
782 216700 DOMICIO VALDETE PEREIRA OFICIAL DO MP TEÓFILO OTONI - COMARCA; COORD REG PJ DEF EDU DIR CRIAN ADOL JEQUI MUC 21.346,53 8.538,61 0,00 0,00 0,00 0,00 0,00 8.560,03 38.445,17 4.554,44 5.976,71 0,00 0,00 10.531,15 27.914,02 31/01/2024
783 192701 DONIZETTI APARECIDO AMORIM ANALISTA DO MP PRATÁPOLIS - COMARCA; PRATAPOLIS-PJ-UNPJ 12.343,61 4.937,44 0,00 0,00 0,00 0,00 0,00 2.583,00 19.864,05 2.537,79 3.117,30 0,00 0,00 5.655,09 14.208,96 31/01/2024
784 558700 DORCILIA FATIMA DE OLIVEIRA OFICIAL DO MP DIVINÓPOLIS - COMARCA; DIVINOPOLIS-PJ-02PJ 7.506,70 1.501,34 0,00 0,00 0,00 1.214,11 0,00 8.716,29 18.938,44 1.214,11 1.540,11 0,00 0,00 2.754,22 16.184,22 31/01/2024
785 555300 DOUGLAS CUNHA DE SOUZA ANALISTA DO MP VARZEA DA PALMA - COMARCA; VARZEA DA PALMA-PJ-01PJ 12.343,61 2.468,72 0,00 0,00 0,00 0,00 0,00 9.654,51 24.466,84 1.018,60 2.763,40 0,00 0,00 3.782,00 20.684,84 31/01/2024
786 265900 DOUGLAS GOMES MOREIRA ANALISTA DO MP BELO HORIZONTE - COMARCA; CENTRAL DE APOIO TECNICO-SETOR DE ENGENHARIA 23.070,31 9.228,12 0,00 0,00 0,00 0,00 0,00 2.583,00 34.881,43 4.940,57 6.638,45 0,00 0,00 11.579,02 23.302,41 31/01/2024
787 241000 DOUGLAS MEIRELLES DE CASTRO OFICIAL DO MP CONCEIÇÃO DO RIO VERDE - COMARCA; CONCEICAO DO RIO VERDE-PJ-UNPJ 18.130,77 9.065,39 0,00 0,00 0,00 0,00 0,00 8.022,23 35.218,39 4.124,21 5.407,69 0,00 0,00 9.531,90 25.686,49 31/01/2024
788 534900 DOUGLAS SILVA E SOUZA ANALISTA DO MP CAMPOS GERAIS - COMARCA; CAMPOS GERAIS-PJ-02PJ 12.343,61 2.468,72 0,00 0,00 0,00 0,00 0,00 8.507,93 23.320,26 1.018,60 2.711,26 0,00 0,00 3.729,86 19.590,40 31/01/2024
789 638900 DOUGLAS WALLAS CONCEICAO NEVES OFICIAL DO MP RIBEIRÃO DAS NEVES - COMARCA; RIBEIRAO DAS NEVES-PJ-03PJ 6.818,83 681,88 0,00 0,00 0,00 0,00 0,00 2.583,00 10.083,71 974,36 909,79 0,00 0,00 1.884,15 8.199,56 31/01/2024
790 146800 DUCINALVA AMARAL LOPES REIS OFICIAL DO MP PARAISÓPOLIS - COMARCA; PARAISOPOLIS-PJ-UNPJ 23.070,31 18.456,25 0,00 0,00 0,00 5.787,22 0,00 7.788,27 55.102,05 5.787,22 8.987,14 3.936,60 0,00 18.710,96 36.391,09 31/01/2024
791 122500 DUILIO CARLOS FERREIRA UTSCH OFICIAL DO MP CONCEIÇÃO DO MATO DENTRO - COMARCA; CONCEICAO DO MATO DENTRO-PJ-UNPJ 21.346,53 19.211,88 0,00 0,00 0,00 5.787,22 159,05 4.318,09 50.822,77 5.787,22 9.180,17 2.968,45 0,00 17.935,84 32.886,93 31/01/2024
792 201800 DULCINEIA ANDRE DE SOUZA OFICIAL DO MP JEQUITINHONHA - COMARCA; JEQUITINHONHA-PJ-SECRETARIA 21.346,53 8.538,61 0,00 0,00 0,00 0,00 0,00 8.560,03 38.445,17 4.554,44 5.924,57 0,00 0,00 10.479,01 27.966,16 31/01/2024
793 395800 DUVIDIER MEDIRCIO JUNIOR ANALISTA DO MP BELO HORIZONTE - COMARCA; CAO-PATRIMONIO PUBLICO 20.533,67 6.160,10 0,00 0,00 0,00 0,00 0,00 2.583,00 29.276,77 4.043,82 5.343,78 0,00 0,00 9.387,60 19.889,17 31/01/2024
794 604800 ECIA RAMILIS ISSA DE ABREU ANALISTA DO MP BRASÍLIA DE MINAS - COMARCA; BRASILIA DE MINAS-PJ-01PJ 12.343,61 2.468,72 0,00 0,00 0,00 0,00 0,00 3.729,58 18.541,91 2.142,79 2.599,16 0,00 0,00 4.741,95 13.799,96 31/01/2024
795 273000 EDELFINA APARECIDA GUIMARAES OFICIAL DO MP CACHOEIRA DE MINAS - COMARCA; CACHOEIRA DE MINAS-PJ-UNPJ 14.960,00 11.968,00 0,00 0,00 0,00 0,00 0,00 2.583,00 29.511,00 4.081,30 5.345,75 0,00 0,00 9.427,05 20.083,95 31/01/2024
796 523300 EDER DOS SANTOS PATRICIO ANALISTA DO MP NOVA SERRANA - COMARCA; NOVA SERRANA-PJ-03PJ 12.343,61 2.468,72 0,00 0,00 0,00 0,00 0,00 9.654,51 24.466,84 1.018,60 2.711,26 0,00 0,00 3.729,86 20.736,98 31/01/2024
797 356700 EDER JOSE PACHECO OFICIAL DO MP CAMPO BELO - COMARCA; CAMPO BELO-PJ-04PJ 12.343,61 3.703,08 0,00 0,00 0,00 0,00 0,00 8.359,81 24.406,50 2.340,29 2.832,16 0,00 0,00 5.172,45 19.234,05 31/01/2024
798 507900 EDERSON SILVA LOPES OFICIAL DO MP BELO HORIZONTE - COMARCA; LABORATORIO TECNOLOGIA INTELIGENCIA 10.015,59 2.003,12 0,00 0,00 0,00 0,00 0,00 8.832,73 20.851,44 1.695,82 1.849,56 0,00 0,00 3.545,38 17.306,06 31/01/2024
799 296200 EDGARD GOULART MATOSINHO DE LAET JR ANALISTA DO MP GOVERNADOR VALADARES - COMARCA; GOVERNADOR VALADARES-PJ-12PJ 23.070,31 6.921,09 0,00 0,00 0,00 0,00 0,00 8.581,28 38.572,68 4.571,45 6.001,25 0,00 0,00 10.572,70 27.999,98 31/01/2024
800 332300 EDILA MARILAC MIRANDA PRADO OFICIAL DO MP DIAMANTINA - COMARCA; DIAMANTINA-PJ-01PJ 12.343,61 8.640,53 0,00 0,00 0,00 0,00 0,00 2.583,00 23.567,14 3.130,28 3.920,58 0,00 0,00 7.050,86 16.516,28 31/01/2024
801 376600 EDILANE CONSOLACAO ROSA NAZARETH ANALISTA DO MP BETIM - COMARCA; BETIM-PJ-10PJ 20.533,67 6.160,10 0,00 0,00 0,00 0,00 0,00 2.583,00 29.276,77 1.018,60 5.785,74 0,00 0,00 6.804,34 22.472,43 31/01/2024
802 309800 EDILZA DOS REIS OFICIAL DO MP UBERLÂNDIA - COMARCA; UBERLANDIA-PJ-03PJ 12.343,61 3.703,08 0,00 0,00 0,00 0,00 0,00 8.359,81 24.406,50 2.340,29 2.832,16 0,00 0,00 5.172,45 19.234,05 31/01/2024
803 200500 EDINEIA MARIA DE OLIVEIRA ANTUNES OFICIAL DO MP MONTES CLAROS - COMARCA; MONTES CLAROS-PJ-10PJ 21.346,53 10.673,27 0,00 0,00 0,00 0,00 469,62 7.706,17 40.195,59 4.895,99 6.574,09 0,00 0,00 11.470,08 28.725,51 31/01/2024
804 427700 EDISANGELA SOARES LOPES OFICIAL DO MP PIRAPORA - COMARCA; PIRAPORA-PJ-02PJ 7.506,70 1.501,34 0,00 0,00 0,00 0,00 0,00 2.583,00 11.591,04 1.214,11 1.258,37 0,00 0,00 2.472,48 9.118,56 31/01/2024
805 555400 EDISON MONTEIRO SAMPAIO NETO ANALISTA DO MP BELO HORIZONTE - COMARCA; BH-12PJ JUIZO CRIMINAL-GAB 098PJ 12.343,61 2.468,72 0,00 0,00 0,00 0,00 0,00 8.507,93 23.320,26 2.142,79 2.599,16 0,00 0,00 4.741,95 18.578,31 31/01/2024
806 517700 EDMILSON TADEU FERNANDES OFICIAL DO MP POUSO ALEGRE - COMARCA; GAECO REGIONAL DE POUSO ALEGRE 9.699,77 1.939,95 0,00 0,00 0,00 0,00 0,00 9.782,23 21.421,95 1.635,18 1.866,29 0,00 0,00 3.501,47 17.920,48 31/01/2024
807 358400 EDNA APARECIDA SILVA FERREIRA OFICIAL DO MP CORONEL FABRICIANO - COMARCA; CORONEL FABRICIANO-PJ-02PJ 14.960,00 4.488,00 0,00 0,00 0,00 0,00 0,00 8.806,36 28.254,36 2.884,50 3.617,87 0,00 0,00 6.502,37 21.751,99 31/01/2024
808 331800 EDNA MARCIA CAMILO DA SILVA OFICIAL DO MP SETE LAGOAS - COMARCA; SETE LAGOAS-PJ-SEC CRIMINAIS 12.343,61 3.703,08 0,00 0,00 0,00 0,00 0,00 2.583,00 18.629,69 2.340,29 2.832,16 0,00 0,00 5.172,45 13.457,24 31/01/2024
809 327900 EDRIEL SANTANA PEREIRA OFICIAL DO MP TUPACIGUARA - COMARCA; TUPACIGUARA-PJ-02PJ 12.343,61 3.703,08 0,00 0,00 0,00 0,00 0,00 9.506,39 25.553,08 2.340,29 2.884,30 0,00 0,00 5.224,59 20.328,49 31/01/2024
810 482400 EDSON GARCIA OFICIAL DO MP MACHADO - COMARCA; MACHADO-PJ-02PJ 7.506,70 1.501,34 0,00 0,00 0,00 0,00 0,00 2.583,00 11.591,04 1.214,11 1.154,10 0,00 0,00 2.368,21 9.222,83 31/01/2024
811 225601 EDSON LABRE FILHO ANALISTA DO MP VARGINHA - COMARCA; VARGINHA-PJ-01PJ 23.070,31 9.228,12 0,00 0,00 0,00 0,00 0,00 7.750,75 40.049,18 4.940,57 6.586,31 0,00 0,00 11.526,88 28.522,30 31/01/2024
812 602700 EDSON NOGUEIRA BUENO OFICIAL DO MP PITANGUI - COMARCA; PITANGUI-PJ-02PJ 7.506,70 1.501,34 0,00 0,00 0,00 0,00 0,00 2.583,00 11.591,04 1.214,11 1.258,37 0,00 0,00 2.472,48 9.118,56 31/01/2024
813 716500 EDUARDA CORREA MOREIRA ASSESSOR ADMINISTRATIVO I BELO HORIZONTE - COMARCA; DIRET DE FORMACAO, APERFEIC. E POS-GRADUACAO 0,00 0,00 4.872,71 0,00 0,00 0,00 0,00 3.729,58 8.602,29 908,85 749,05 0,00 0,00 1.657,90 6.944,39 31/01/2024
814 414400 EDUARDO ABRANTES CAMPOS ANALISTA DO MP SÃO JOÃO DEL REI - COMARCA; SAO JOAO DEL REI-PJ-02PJ 18.720,84 5.616,25 0,00 0,00 0,00 0,00 0,00 8.423,90 32.760,99 3.666,76 4.799,38 0,00 0,00 8.466,14 24.294,85 31/01/2024
815 476800 EDUARDO ALVES DE MOURA ANALISTA DO MP UBERLÂNDIA - COMARCA; UBERLANDIA-PJ-01PJ 12.343,61 2.468,72 0,00 0,00 0,00 0,00 0,00 9.654,51 24.466,84 1.018,60 2.606,99 0,00 0,00 3.625,59 20.841,25 31/01/2024
816 390800 EDUARDO AMORIM PETTERSEN OFICIAL DO MP CARANGOLA - COMARCA; CARANGOLA-PJ-SECRETARIA 12.343,61 3.703,08 0,00 0,00 0,00 0,00 0,00 8.359,81 24.406,50 2.340,29 2.884,30 0,00 0,00 5.224,59 19.181,91 31/01/2024
817 461600 EDUARDO ANTONIO DE ASSIS FARIA ASSESSOR ADMINISTRATIVO III BELO HORIZONTE - COMARCA; ASSESS EXECUTIVA DO CONSELHO SUPERIOR DO MP 0,00 0,00 10.858,90 0,00 0,00 0,00 0,00 8.663,98 19.522,88 908,85 2.343,12 0,00 0,00 3.251,97 16.270,91 31/01/2024
818 248800 EDUARDO DE CASTRO AMORIM ANALISTA DO MP BELO HORIZONTE - COMARCA; SUPER DE GESTAO DE PESSOAS-LOTACAO TEMPORARIA 23.070,31 9.228,12 0,00 0,00 0,00 0,00 473,71 7.750,75 40.522,89 4.940,57 6.638,45 0,00 0,00 11.579,02 28.943,87 31/01/2024
819 209100 EDUARDO DE SOUZA MAIA ANALISTA DO MP BELO HORIZONTE - COMARCA; SUPER DE GESTAO DE PESSOAS-LOTACAO TEMPORARIA 23.070,31 9.228,12 0,00 0,00 0,00 0,00 0,00 7.750,75 40.049,18 4.940,57 6.534,18 0,00 0,00 11.474,75 28.574,43 31/01/2024
820 633900 EDUARDO GONCALVES PIRES OFICIAL DO MP BELO HORIZONTE - COMARCA; DIRETORIA DE PAGAMENTO DE PESSOAL-DPAG 9.097,81 3.639,12 0,00 0,00 0,00 0,00 0,00 2.583,00 15.319,93 1.810,73 2.119,75 0,00 0,00 3.930,48 11.389,45 31/01/2024
821 350500 EDUARDO GONCALVES RIBEIRO OFICIAL DO MP VESPASIANO - COMARCA; VESPASIANO-PJ-SECRETARIA 12.343,61 3.703,08 3.004,68 0,00 0,00 0,00 0,00 8.679,44 27.730,81 2.340,29 3.710,59 0,00 0,00 6.050,88 21.679,93 31/01/2024
822 115800 EDUARDO HENRIQUE DE CAMPOS MAIA OFICIAL DO MP BELO HORIZONTE - COMARCA; DIV FISCAL ADM CONT TERCEIRIZACAO 23.070,31 16.149,22 0,00 0,00 0,00 0,00 0,00 8.597,39 47.816,92 5.787,22 7.555,01 1.629,57 0,00 14.971,80 32.845,12 31/01/2024
823 392600 EDUARDO HENRIQUE DOS SANTOS COSTA ELIAZAR OFICIAL DO MP MATOZINHOS - COMARCA; MATOZINHOS-PJ-01PJ 11.212,54 3.363,76 0,00 0,00 0,00 0,00 0,00 8.413,52 22.989,82 2.105,03 2.440,36 0,00 0,00 4.545,39 18.444,43 31/01/2024
824 99101 EDUARDO JOSE DE FREITAS NUNES ASSESSOR ADMINISTRATIVO II BELO HORIZONTE - COMARCA; JUNTA RECURSAL DO PROCON ESTADUAL 0,00 3.753,35 7.506,70 0,00 0,00 0,00 0,00 2.583,00 13.843,05 908,85 2.505,57 0,00 0,00 3.414,42 10.428,63 31/01/2024
825 407500 EDUARDO MASCARENHAS CURI AZEVEDO ANALISTA DO MP BELO HORIZONTE - COMARCA; DIR CONTEUDO JORNALISTICO 12.343,61 3.703,08 0,00 0,00 0,00 0,00 0,00 3.729,58 19.776,27 2.340,29 2.884,30 0,00 0,00 5.224,59 14.551,68 31/01/2024
826 754700 EDUARDO NOBRE LEITE OFICIAL DO MP MANGA - COMARCA; MANGA-PJ-02PJ 4.570,25 0,00 0,00 0,00 0,00 0,00 0,00 3.213,61 7.783,86 544,12 254,15 0,00 0,00 798,27 6.985,59 31/01/2024
827 752000 EDUARDO SOUZA PRADO JUNIOR OFICIAL DO MP ITAMONTE - COMARCA; ITAMONTE-PJ-UNPJ 4.570,25 0,00 0,00 0,00 0,00 0,00 0,00 2.583,00 7.153,25 544,12 254,15 0,00 0,00 798,27 6.354,98 31/01/2024
828 257600 EDUARDO VALADARES CABRAL ANALISTA DO MP BELO HORIZONTE - COMARCA; COORD DE INCLUSAO E MOBILIZACAO SOCIAIS 23.070,31 9.228,12 0,00 0,00 0,00 0,00 0,00 2.583,00 34.881,43 4.940,57 6.638,45 0,00 0,00 11.579,02 23.302,41 31/01/2024
829 746800 EDUARDO XAVIER ARAUJO OFICIAL DO MP RIBEIRÃO DAS NEVES - COMARCA; RIBEIRAO DAS NEVES-PJ-02PJ 4.570,25 0,00 0,00 0,00 0,00 0,00 0,00 2.583,00 7.153,25 544,12 254,15 0,00 0,00 798,27 6.354,98 31/01/2024
830 545700 EDVAIR FERREIRA DE CARVALHO OFICIAL DO MP ARAGUARI - COMARCA; ARAGUARI-PJ-06PJ 7.506,70 1.501,34 0,00 0,00 0,00 0,00 0,00 8.708,47 17.716,51 1.214,11 1.206,23 0,00 0,00 2.420,34 15.296,17 31/01/2024
831 401700 EDWANIA AMORIM DO CARMO OFICIAL DO MP BELO HORIZONTE - COMARCA; BH-12PJ JUIZO CRIMINAL-SECRETARIA 12.343,61 3.703,08 0,00 0,00 0,00 0,00 0,00 8.359,81 24.406,50 2.340,29 2.884,30 0,00 0,00 5.224,59 19.181,91 31/01/2024
832 303600 EFIGENIO SARAIVA LOPES ANALISTA DO MP BELO HORIZONTE - COMARCA; DIRETORIA DE PAGAMENTO DE PESSOAL-DPAG 23.070,31 6.921,09 5.538,92 0,00 0,00 0,00 0,00 2.583,00 38.113,32 4.571,45 7.524,45 0,00 0,00 12.095,90 26.017,42 31/01/2024
833 286000 ELAINE APARECIDA SILVA BERZOINI OFICIAL DO MP JUIZ DE FORA - COMARCA; JUIZ DE FORA-PJ-07PJ 12.343,61 4.937,44 0,00 0,00 0,00 0,00 0,00 8.804,18 26.085,23 2.537,79 3.169,44 0,00 0,00 5.707,23 20.378,00 31/01/2024
834 509000 ELAINE CANDIDA PONTES OFICIAL DO MP BELO HORIZONTE - COMARCA; BH-02PJ FAMILIA-SECRETARIA 10.516,49 2.103,30 0,00 0,00 0,00 0,00 794,35 8.640,50 22.054,64 1.791,99 2.311,13 0,00 0,00 4.103,12 17.951,52 31/01/2024
835 283601 ELAINE CRISTINA MEQUELINO DUARTE ANALISTA DO MP ALFENAS - COMARCA; ALFENAS-PJ-02PJ 20.533,67 7.392,12 0,00 0,00 0,00 0,00 0,00 8.168,16 36.093,95 4.240,95 5.524,10 0,00 0,00 9.765,05 26.328,90 31/01/2024
836 535500 ELAINE DE OLIVEIRA CAMPOS REIS OFICIAL DO MP SANTA LUZIA - COMARCA; SANTA LUZIA-PJ-07PJ 7.506,70 1.501,34 0,00 0,00 0,00 0,00 0,00 2.583,00 11.591,04 1.214,11 1.258,37 0,00 0,00 2.472,48 9.118,56 31/01/2024
837 455700 ELAINE DE OLIVEIRA CASTRO ANALISTA DO MP POMPÉU - COMARCA; POMPEU-PJ-UNPJ 12.343,61 2.468,72 0,00 0,00 0,00 0,00 0,00 3.729,58 18.541,91 2.142,79 2.494,89 0,00 0,00 4.637,68 13.904,23 31/01/2024
838 367200 ELAINE MUNIZ BARBOSA ANALISTA DO MP BELO HORIZONTE - COMARCA; DIRETORIA DE SISTEMAS DE INFORMACAO 21.346,53 6.403,96 0,00 0,00 0,00 0,00 0,00 3.729,58 31.480,07 4.212,90 5.535,74 0,00 0,00 9.748,64 21.731,43 31/01/2024
839 679200 ELAINE RIBEIRO CHAVES ASSESSOR PROCURADOR JUSTICA BELO HORIZONTE - COMARCA; GABINETE DE PROCURADOR DE JUSTIÇA - SALA 614 0,00 0,00 8.810,89 0,00 0,00 0,00 549,21 8.574,41 17.934,51 908,85 1.779,91 0,00 0,00 2.688,76 15.245,75 31/01/2024
840 176900 ELAINE RIBEIRO TAVEIRA OFICIAL DO MP BELO HORIZONTE - COMARCA; DIVISAO FROTA 18.720,84 7.488,34 0,00 0,00 0,00 0,00 0,00 7.824,84 34.034,02 3.966,29 5.231,83 0,00 0,00 9.198,12 24.835,90 31/01/2024
841 496200 ELAINE SABRINA MOREIRA SCHUWARTEN ANALISTA DO MP CORONEL FABRICIANO - COMARCA; CORONEL FABRICIANO-PJ-06PJ 14.960,00 2.992,00 0,00 0,00 0,00 0,00 0,00 2.583,00 20.535,00 2.645,14 3.324,43 0,00 0,00 5.969,57 14.565,43 31/01/2024
842 489200 ELAINE VICENTINO ANALISTA DO MP BELO HORIZONTE - COMARCA; CENTRAL DE APOIO TECNICO-SETOR CONTABIL 12.343,61 4.937,44 0,00 0,00 0,00 0,00 0,00 8.804,18 26.085,23 2.537,79 3.065,16 0,00 0,00 5.602,95 20.482,28 31/01/2024
843 731400 ELBERT MENDES PINHEIRO ASSESSOR PROMOTOR JUSTICA BELO HORIZONTE - COMARCA; COORD ESTADUAL DAS PJS DE HAB. E URBANISMO 0,00 0,00 8.810,89 0,00 0,00 0,00 0,00 2.583,00 11.393,89 908,85 1.832,05 0,00 0,00 2.740,90 8.652,99 31/01/2024
844 244500 ELCI ALVES DE SOUZA ASSESSOR ADMINISTRATIVO II BELO HORIZONTE - COMARCA; CAO-CONFLITOS AGRARIOS-SECRETARIA 0,00 3.002,68 7.506,70 0,00 0,00 0,00 539,48 8.468,25 19.517,11 908,85 2.247,00 0,00 0,00 3.155,85 16.361,26 31/01/2024
845 472500 ELCI VAZ DE OLIVEIRA FILHO ANALISTA DO MP PIUMHI - COMARCA; PIUMHI-PJ-02PJ 12.343,61 8.640,53 0,00 0,00 0,00 0,00 0,00 2.583,00 23.567,14 3.130,28 4.024,85 0,00 0,00 7.155,13 16.412,01 31/01/2024
846 385200 ELCI VIANA REIS OFICIAL DO MP RIO PARDO DE MINAS - COMARCA; RIO PARDO DE MINAS-PJ-SECRETARIA 12.343,61 6.171,81 0,00 0,00 0,00 0,00 0,00 8.507,93 27.023,35 2.735,29 3.454,58 0,00 0,00 6.189,87 20.833,48 31/01/2024
847 289801 ELCIO JOSE DOS SANTOS ANALISTA DO MP BELO HORIZONTE - COMARCA; DIVISAO DE TERCEIRIZACAO 12.343,61 3.703,08 5.538,92 0,00 0,00 0,00 0,00 2.583,00 24.168,61 2.340,29 4.407,50 0,00 0,00 6.747,79 17.420,82 31/01/2024
848 319600 ELEN TULER DE ALBERGARIA ANALISTA DO MP BELO HORIZONTE - COMARCA; BH-19PJ SAUDE-SECRETARIA 130PJ 23.070,31 11.535,16 0,00 0,00 0,00 0,00 0,00 8.119,88 42.725,35 5.309,70 7.171,38 0,00 0,00 12.481,08 30.244,27 31/01/2024
849 205500 ELIANA ALVES DE SOUSA OFICIAL DO MP GOVERNADOR VALADARES - COMARCA; GOVERNADOR VALADARES-PJ-07PJ 12.343,61 4.937,44 0,00 0,00 0,00 0,00 0,00 2.583,00 19.864,05 2.537,79 3.169,44 0,00 0,00 5.707,23 14.156,82 31/01/2024
850 628800 ELIANA APARECIDA PEREIRA ANALISTA DO MP EXTREMA - COMARCA; EXTREMA-PJ-01PJ 11.577,56 1.157,76 0,00 0,00 0,00 0,00 0,00 2.583,00 15.318,32 1.810,47 2.067,24 0,00 0,00 3.877,71 11.440,61 31/01/2024
851 301700 ELIANA DA SILVEIRA ANALISTA DO MP BELO HORIZONTE - COMARCA; BH-11PJ COMB CRIME ORGANIZ-GAB 081PJ 22.191,68 6.657,50 0,00 0,00 0,00 0,00 0,00 2.583,00 31.432,18 4.388,69 5.841,67 0,00 0,00 10.230,36 21.201,82 31/01/2024
852 251500 ELIANA DE LIMA MILAGRES FONSECA ANALISTA DO MP CONTAGEM - COMARCA; CONTAGEM-PJ-16PJ 23.070,31 9.228,12 0,00 0,00 0,00 0,00 0,00 7.750,75 40.049,18 4.940,57 6.586,31 0,00 0,00 11.526,88 28.522,30 31/01/2024
853 503900 ELIANA DIAS DUTRA FERREIRA OFICIAL DO MP BELO HORIZONTE - COMARCA; DIRETORIA DE CONTABILIDADE 10.858,90 2.171,78 0,00 0,00 0,00 0,00 0,00 2.583,00 15.613,68 1.857,73 2.135,46 0,00 0,00 3.993,19 11.620,49 31/01/2024
854 413900 ELIANA PINTO DE OLIVEIRA NEVES ANALISTA DO MP CAMPO BELO - COMARCA; CAMPO BELO-PJ-04PJ 18.130,77 5.439,23 0,00 0,00 0,00 0,00 0,00 8.239,80 31.809,80 3.544,02 4.622,18 0,00 0,00 8.166,20 23.643,60 31/01/2024
855 228200 ELIANA RODRIGUES DA CUNHA PINHEIRO OFICIAL DO MP BELO HORIZONTE - COMARCA; DIRETORIA DE PROJETOS DE EDIFICACOES 18.130,77 7.252,31 0,00 0,00 0,00 3.834,11 0,00 8.426,45 37.643,64 3.834,11 6.095,39 0,00 0,00 9.929,50 27.714,14 31/01/2024
856 386600 ELIANA SABINO CHAVES PESSOA ANALISTA DO MP CARATINGA - COMARCA; CARATINGA-PJ-06PJ 18.130,77 12.691,55 0,00 0,00 0,00 4.704,39 0,00 8.267,27 43.793,98 4.704,39 7.539,04 0,00 0,00 12.243,43 31.550,55 31/01/2024
857 677500 ELIANA SILVA ANDRADE ASSESSOR PROMOTOR JUSTICA TRÊS CORACOES - COMARCA; TRES CORACOES-PJ-06PJ 0,00 0,00 8.810,89 0,00 0,00 0,00 0,00 8.574,41 17.385,30 908,85 1.832,05 0,00 0,00 2.740,90 14.644,40 31/01/2024
858 297400 ELIANE AUGUSTA RIBEIRO COSTA ANALISTA DO MP CONSELHEIRO LAFAIETE - COMARCA; CONSELHEIRO LAFAIETE-PJ-05PJ 23.070,31 6.921,09 0,00 0,00 0,00 0,00 0,00 8.581,28 38.572,68 4.571,45 6.001,25 0,00 0,00 10.572,70 27.999,98 31/01/2024
859 510600 ELIANE CAROLINA MAIA ANALISTA DO MP IGARAPÉ - COMARCA; IGARAPE-PJ-03PJ 12.343,61 3.703,08 0,00 0,00 0,00 0,00 0,00 8.359,81 24.406,50 2.340,29 2.780,03 0,00 0,00 5.120,32 19.286,18 31/01/2024
860 262600 ELIANE FERREIRA SOARES ASSESSOR ADMINISTRATIVO II BELO HORIZONTE - COMARCA; BH-18PJ DIREITOS HUMANOS-SECRETARIA 0,00 3.753,35 7.506,70 0,00 0,00 0,00 0,00 2.583,00 13.843,05 908,85 2.505,57 0,00 0,00 3.414,42 10.428,63 31/01/2024
861 204400 ELIANE GLAUCE DE QUEIROS MAIA OFICIAL DO MP GUANHÃES - COMARCA; GUANHAES-PJ-02PJ 21.346,53 8.538,61 0,00 0,00 0,00 0,00 0,00 2.583,00 32.468,14 4.554,44 6.080,98 0,00 0,00 10.635,42 21.832,72 31/01/2024
862 91800 ELIANE KAPLER ALVES OFICIAL DO MP BELO HORIZONTE - COMARCA; DIVISAO DE CONTROLE IMOBILIARIO 23.070,31 16.149,22 0,00 0,00 0,00 5.787,22 0,00 7.788,26 52.795,01 5.787,22 9.198,62 1.629,57 0,00 16.615,41 36.179,60 31/01/2024
863 334200 ELIANE MARCIA DE OLIVEIRA BRITO OFICIAL DO MP BELO HORIZONTE - COMARCA; BH-08PJ JUIZADO ESPECIAL-SECRETARIA 7.506,70 2.252,01 0,00 0,00 0,00 0,00 0,00 2.583,00 12.341,71 1.334,22 1.431,77 0,00 0,00 2.765,99 9.575,72 31/01/2024
864 365900 ELIANE MARIA DE OLIVEIRA FERREIRA OFICIAL DO MP SETE LAGOAS - COMARCA; SETE LAGOAS-PJ-SEC CRIMINAIS 12.343,61 8.640,53 0,00 0,00 0,00 0,00 0,00 2.583,00 23.567,14 3.130,28 4.024,85 0,00 0,00 7.155,13 16.412,01 31/01/2024
865 320600 ELIANE STADLER DE SOUZA OFICIAL DO MP MONTES CLAROS - COMARCA; MONTES CLAROS-PJ-13PJ 11.954,43 3.586,33 0,00 0,00 0,00 0,00 0,00 2.583,00 18.123,76 2.259,34 2.715,29 0,00 0,00 4.974,63 13.149,13 31/01/2024
866 448900 ELIAS PEREIRA OTONI ASSESSOR ADMINISTRATIVO II BELO HORIZONTE - COMARCA; BH-18PJ DIREITOS HUMANOS-SECRETARIA 0,00 0,00 7.506,70 0,00 0,00 0,00 0,00 2.583,00 10.089,70 908,85 1.369,12 0,00 0,00 2.277,97 7.811,73 31/01/2024
867 495400 ELICA SOUZA GASPARONI MATTOS OFICIAL DO MP UBÁ - COMARCA; UBA-PJ-06PJ 10.858,90 2.171,78 0,00 0,00 0,00 0,00 0,00 8.837,73 21.868,41 1.857,73 2.187,60 0,00 0,00 4.045,33 17.823,08 31/01/2024
868 86600 ELIENE FERREIRA DA SILVA OFICIAL DO MP BELO HORIZONTE - COMARCA; BH-22PJ PES COM DEF E IDOSOS-SECRETARIA 25.920,35 20.736,29 0,00 0,00 0,00 5.787,22 0,00 7.788,27 60.232,13 5.787,22 8.464,76 9.066,68 0,00 23.318,66 36.913,47 31/01/2024
869 183800 ELIENE MARIA CUNHA OFICIAL DO MP BELO HORIZONTE - COMARCA; DIRETORIA DE PESSOAL ADMINISTRATIVO - DPAD 22.191,68 8.876,67 0,00 0,00 0,00 0,00 0,00 8.796,67 39.865,02 4.743,76 6.302,17 0,00 0,00 11.045,93 28.819,09 31/01/2024
870 172300 ELINA APARECIDA SILVA ASSESSOR ADMINISTRATIVO I BELO HORIZONTE - COMARCA; BH-19PJ SAUDE-SECRETARIA 130PJ 0,00 2.436,36 4.872,71 0,00 0,00 0,00 0,00 2.583,00 9.892,07 908,85 1.366,91 0,00 0,00 2.275,76 7.616,31 31/01/2024
871 492501 ELINE CAMPOS DA FONSECA CUNHA ANALISTA DO MP PONTE NOVA - COMARCA; PONTE NOVA-PJ-05PJ 12.343,61 2.468,72 0,00 0,00 0,00 0,00 0,00 8.507,93 23.320,26 2.142,79 2.599,16 0,00 0,00 4.741,95 18.578,31 31/01/2024
872 618900 ELISA MOURA VIEIRA MARCATTI OFICIAL DO MP BELO HORIZONTE - COMARCA; GRUPO ESP PROM JUST DEF PROB ADM PAT PUB 7.506,70 750,67 0,00 0,00 0,00 0,00 0,00 3.729,58 11.986,95 1.094,00 1.084,97 0,00 0,00 2.178,97 9.807,98 31/01/2024
873 256500 ELISABETE NOGUEIRA ANALISTA DO MP RIBEIRÃO DAS NEVES - COMARCA; RIBEIRAO NEVES-SEC PJ EXECUCAO PENAL 18.720,84 9.360,42 0,00 0,00 0,00 0,00 0,00 2.583,00 30.664,26 4.265,82 5.455,74 0,00 0,00 9.721,56 20.942,70 31/01/2024
874 355000 ELISANGELA DARLANTONI RIBEIRO OFICIAL DO MP ARAXÁ - COMARCA; ARAXA-PJ-05PJ 12.343,61 3.703,08 0,00 0,00 0,00 0,00 0,00 8.359,81 24.406,50 2.340,29 2.832,16 0,00 0,00 5.172,45 19.234,05 31/01/2024
875 604400 ELISANGELA DEMASI FERREIRA MOREIRA ANALISTA DO MP CABO VERDE - COMARCA; CABO VERDE-PJ-UNPJ 12.343,61 2.468,72 0,00 1.234,36 411,45 0,00 1.234,36 8.507,93 26.200,43 1.018,60 3.077,39 0,00 0,00 4.095,99 22.104,44 31/01/2024
876 323800 ELISANGELA GONCALVES DE JESUS OFICIAL DO MP BELO HORIZONTE - COMARCA; DIRETORIA DE PESSOAL ADMINISTRATIVO - DPAD 12.343,61 3.703,08 0,00 0,00 0,00 0,00 0,00 8.359,81 24.406,50 2.340,29 2.832,16 0,00 0,00 5.172,45 19.234,05 31/01/2024
877 507400 ELISANGELA MIGUEL DA ROCHA SILVA ASSESSOR ADMINISTRATIVO II BELO HORIZONTE - COMARCA; CGMP-DIR INSP CORR PROCED PROC DISC 0,00 0,00 7.506,70 0,00 0,00 0,00 0,00 8.588,36 16.095,06 908,85 1.421,26 0,00 0,00 2.330,11 13.764,95 31/01/2024
878 261400 ELISANGELA REZENDE MENDES OFICIAL DO MP POUSO ALEGRE - COMARCA; POUSO ALEGRE-PJ-05PJ 12.343,61 4.937,44 0,00 0,00 0,00 0,00 0,00 8.804,18 26.085,23 2.537,79 3.169,44 0,00 0,00 5.707,23 20.378,00 31/01/2024
879 534100 ELISANGELA ROSINE SILVA OFICIAL DO MP UBERABA - COMARCA; UBERABA-PJ-06PJ 7.506,70 1.501,34 0,00 0,00 0,00 0,00 0,00 8.708,47 17.716,51 1.214,11 1.258,37 0,00 0,00 2.472,48 15.244,03 31/01/2024
880 634300 ELIUDE GRACA DAMASIO ROSARIO FRANCELINO OFICIAL DO MP BELO HORIZONTE - COMARCA; BH-18PJ VIOLENCIA DOMESTICA-SECRETARIA 6.818,83 681,88 0,00 0,00 0,00 0,00 0,00 4.876,16 12.376,87 974,36 909,79 0,00 0,00 1.884,15 10.492,72 31/01/2024
881 461700 ELIZABETH ALEIXO DA PAZ ANALISTA DO MP JUIZ DE FORA - COMARCA; JUIZ DE FORA-PJ-18PJ 12.343,61 2.468,72 0,00 0,00 0,00 0,00 0,00 8.507,93 23.320,26 2.142,79 2.599,16 0,00 0,00 4.741,95 18.578,31 31/01/2024
882 227300 ELIZABETH COIMBRA FELIX OFICIAL DO MP JABOTICATUBAS - COMARCA; JABOTICATUBAS-PJ-UNPJ 18.720,84 9.360,42 0,00 0,00 0,00 0,00 0,00 8.199,25 36.280,51 4.265,82 5.560,01 0,00 0,00 9.825,83 26.454,68 31/01/2024
883 354800 ELIZABETH DOS REIS OFICIAL DO MP BELO HORIZONTE - COMARCA; DIVISAO DE MATERIAIS 12.343,61 3.703,08 0,00 0,00 0,00 0,00 0,00 2.583,00 18.629,69 2.340,29 2.832,16 0,00 0,00 5.172,45 13.457,24 31/01/2024
884 612000 ELIZABETH MARIA DE QUEIROZ TANIGUCHI OFICIAL DO MP BELO HORIZONTE - COMARCA; SUPERINTENDENCIA GESTÃO DE PESSOAS 7.506,70 750,67 0,00 0,00 0,00 0,00 0,00 2.583,00 10.840,37 1.094,00 1.084,97 0,00 0,00 2.178,97 8.661,40 31/01/2024
885 452800 ELIZANGELA MARIA DAVI OFICIAL DO MP ARCOS - COMARCA; ARCOS-PJ-01PJ 7.506,70 1.501,34 0,00 0,00 0,00 0,00 0,00 2.583,00 11.591,04 1.214,11 1.206,23 0,00 0,00 2.420,34 9.170,70 31/01/2024
886 496300 ELIZANGELA MARQUES PINTO COELHO OFICIAL DO MP BELO HORIZONTE - COMARCA; DIRETORIA DE PESSOAL ADMINISTRATIVO - DPAD 10.858,90 2.171,78 0,00 0,00 0,00 0,00 0,00 8.837,73 21.868,41 1.857,73 2.187,60 0,00 0,00 4.045,33 17.823,08 31/01/2024
887 422500 ELIZETE FORTES DA CUNHA ANALISTA DO MP RIBEIRÃO DAS NEVES - COMARCA; RIBEIRAO DAS NEVES-PJ-07PJ 18.720,84 5.616,25 0,00 0,00 0,00 0,00 0,00 8.423,90 32.760,99 3.666,76 4.747,24 0,00 0,00 8.414,00 24.346,99 31/01/2024
888 506100 ELLEM CRISTINA ROCHA FONSECA BOWEN ANALISTA DO MP GOVERNADOR VALADARES - COMARCA; COORD REG PJ DEF EDU DIR CRIANCA ADOL RIODOCE 12.343,61 2.468,72 0,00 0,00 0,00 0,00 0,00 3.729,58 18.541,91 2.142,79 2.599,16 0,00 0,00 4.741,95 13.799,96 31/01/2024
889 468200 ELLEN CRISTINA BERNARDES DARE ANALISTA DO MP TRÊS PONTAS - COMARCA; TRES PONTAS-PJ-02PJ 12.343,61 2.468,72 0,00 0,00 0,00 0,00 0,00 9.654,51 24.466,84 2.142,79 2.547,03 0,00 0,00 4.689,82 19.777,02 31/01/2024
890 418800 ELLEN CRISTINA DE QUEIROZ FERREIRA ANALISTA DO MP BELO HORIZONTE - COMARCA; CENTRAL DE APOIO TECNICO-SETOR CONTABIL 18.130,77 5.439,23 0,00 0,00 0,00 0,00 0,00 9.959,67 33.529,67 1.018,60 4.991,13 0,00 0,00 6.009,73 27.519,94 31/01/2024
891 328401 ELLEN CRISTINA FERREIRA MORAIS MONTEIRO ANALISTA DO MP CAMANDUCAIA - COMARCA; CAMANDUCAIA-PJ-UNPJ 18.130,77 6.527,08 0,00 0,00 0,00 0,00 0,00 2.583,00 27.240,85 3.718,08 4.769,20 0,00 0,00 8.487,28 18.753,57 31/01/2024
892 556100 ELLEN CRISTINE BIANCHIN DA SILVA OFICIAL DO MP SÃO GONÇALO DO SAPUCAÍ - COMARCA; SAO GONCALO DO SAPUCAI-PJ-02PJ 7.506,70 1.501,34 0,00 0,00 0,00 0,00 495,44 7.987,82 17.491,30 1.214,11 1.206,23 0,00 0,00 2.420,34 15.070,96 31/01/2024
893 714500 ELLEN PROENCA CARVALHO DE ARAUJO ASSESSOR PROMOTOR JUSTICA MARIANA - COMARCA; MARIANA-PJ-02PJ 0,00 0,00 8.810,89 0,00 0,00 0,00 0,00 2.583,00 11.393,89 908,85 1.832,05 0,00 0,00 2.740,90 8.652,99 31/01/2024
894 447100 ELLEN ROSANA DE MACEDO BORGES OFICIAL DO MP UBERLÂNDIA - COMARCA; UBERLANDIA-PJ-17PJ 11.212,54 2.242,51 0,00 0,00 0,00 0,00 0,00 8.503,22 21.958,27 1.925,63 2.285,63 0,00 0,00 4.211,26 17.747,01 31/01/2024
895 477700 ELMA JACOB OFICIAL DO MP BELO HORIZONTE - COMARCA; COORD DE GABINETE DO PGJ 10.858,90 8.687,12 0,00 0,00 0,00 2.900,18 493,81 7.970,09 30.910,10 2.900,18 4.490,20 0,00 0,00 7.390,38 23.519,72 31/01/2024
896 123300 ELMA PAULA DOS SANTOS COELHO OFICIAL DO MP BELO HORIZONTE - COMARCA; BH-19PJ SAUDE-SECRETARIA 130PJ 23.070,31 23.070,31 0,00 0,00 0,00 5.787,22 0,00 2.583,00 54.510,84 5.787,22 8.668,46 8.550,66 0,00 23.006,34 31.504,50 31/01/2024
897 728200 ELMITA XISTO DO VALLE ASSESSOR ADMINISTRATIVO I BELO HORIZONTE - COMARCA; DIRET DE FORMACAO, APERFEIC. E POS-GRADUACAO 0,00 0,00 4.872,71 0,00 0,00 0,00 0,00 7.455,71 12.328,42 777,91 785,06 0,00 0,00 1.562,97 10.765,45 31/01/2024
898 356500 ELOISA CARDOSO SILVA FRANCA OFICIAL DO MP PEÇANHA - COMARCA; PECANHA-PJ-SECRETARIA 7.506,70 2.252,01 0,00 0,00 0,00 0,00 0,00 2.583,00 12.341,71 1.334,22 1.379,64 0,00 0,00 2.713,86 9.627,85 31/01/2024
899 251901 ELOISA COSTA E SILVA ANALISTA DO MP BELO HORIZONTE - COMARCA; CENT ESTAD COOPERACAO TECNICO-JURIDICA 12.343,61 4.937,44 0,00 0,00 0,00 0,00 0,00 2.583,00 19.864,05 2.537,79 3.117,30 0,00 0,00 5.655,09 14.208,96 31/01/2024
900 400400 ELOIZA MARIA FERRI PIRES DA SILVA OFICIAL DO MP BELO HORIZONTE - COMARCA; ASSESSORIA DE COMUNICACAO INTEGRADA 11.212,54 3.363,76 4.020,58 0,00 0,00 0,00 0,00 8.534,00 27.130,88 2.105,03 3.650,30 0,00 0,00 5.755,33 21.375,55 31/01/2024
901 258000 ELSO CECIANO PALMEIRA OFICIAL DO MP BELO HORIZONTE - COMARCA; DIRET DE PESSOAL DO MINISTERIO PUBLICO - DPMP 17.559,01 14.047,21 5.928,90 0,00 0,00 0,00 0,00 8.588,62 46.123,74 4.829,82 8.109,00 0,00 0,00 12.938,82 33.184,92 31/01/2024
902 206900 ELVIRA RITA DOS SANTOS ANALISTA DO MP BELO HORIZONTE - COMARCA; CENTRAL DE APOIO TECNICO-SETOR CONTABIL 23.070,31 9.228,12 0,00 0,00 0,00 4.940,57 0,00 2.583,00 39.822,00 4.940,57 7.997,11 0,00 0,00 12.937,68 26.884,32 31/01/2024
903 506800 ELVIS FERREIRA DA SILVA ANALISTA DO MP BELO HORIZONTE - COMARCA; DIRETORIA DE SISTEMAS DE INFORMACAO 12.343,61 2.468,72 0,00 0,00 0,00 0,00 0,00 9.654,51 24.466,84 2.142,79 2.442,75 0,00 0,00 4.585,54 19.881,30 31/01/2024
904 602400 ELZA MARIA MOREIRA MUNIZ ANALISTA DO MP RIO PARANAÍBA - COMARCA; RIO PARANAIBA-PJ-UNPJ 12.343,61 3.703,08 0,00 0,00 0,00 0,00 529,54 8.359,81 24.936,04 2.340,29 2.780,03 0,00 0,00 5.120,32 19.815,72 31/01/2024
905 368401 ELZIRA SIMOES DOS SANTOS ASSESSOR DE GABINETE I BELO HORIZONTE - COMARCA; ASSESSORIA DE COMUNICACAO INTEGRADA 0,00 7.252,31 18.130,77 0,00 0,00 0,00 0,00 2.583,00 27.966,08 908,85 6.389,40 0,00 0,00 7.298,25 20.667,83 31/01/2024
906 437400 EMANOELLE DA SILVA RODRIGUES OFICIAL DO MP UNAÍ - COMARCA; UNAI-PJ-03PJ 10.341,72 2.068,34 0,00 0,00 0,00 0,00 0,00 9.686,41 22.096,47 1.758,43 1.992,10 0,00 0,00 3.750,53 18.345,94 31/01/2024
907 458900 EMANUELLE CONRAD SILVA FREDERICO NAVES ANALISTA DO MP ALFENAS - COMARCA; ALFENAS-PJ-05PJ 18.130,77 3.626,15 0,00 0,00 0,00 0,00 0,00 9.821,52 31.578,44 3.253,93 4.151,23 0,00 0,00 7.405,16 24.173,28 31/01/2024
908 284100 EMERSON MAGNO ALMEIDA PEDROSA DA FONSECA ANALISTA DO MP BELO HORIZONTE - COMARCA; CENTRAL DE APOIO TECNICO-SETOR CONTABIL 23.070,31 9.228,12 0,00 0,00 0,00 0,00 473,71 8.897,33 41.669,47 4.940,57 4.872,66 0,00 0,00 9.813,23 31.856,24 31/01/2024
909 179900 EMERSON MORAIS DIAS OFICIAL DO MP BELO HORIZONTE - COMARCA; SUPERINTENDÊNCIA DE ENGENHARIA E ARQUITETURA 22.191,68 11.095,84 0,00 0,00 0,00 0,00 0,00 7.909,00 41.196,52 5.098,82 6.866,93 0,00 0,00 11.965,75 29.230,77 31/01/2024
910 488700 EMERSON SIQUEIRA DE SOUSA TEIXEIRA ANALISTA DO MP ITANHOMI - COMARCA; ITANHOMI-PJ-UNPJ 12.343,61 3.209,34 0,00 0,00 0,00 0,00 0,00 8.804,18 24.357,13 2.261,29 2.613,83 0,00 0,00 4.875,12 19.482,01 31/01/2024
911 194200 EMILIA ALVES FERREIRA RAMOS OFICIAL DO MP UBERLÂNDIA - COMARCA; UBERLANDIA-PJ-SEC CIVEIS CRIMINAIS 15.447,01 6.178,80 0,00 0,00 0,00 0,00 0,00 8.638,23 30.264,04 3.232,95 4.173,08 0,00 0,00 7.406,03 22.858,01 31/01/2024
912 679500 EMILY DIAS LEMOS E SILVA ASSESSOR PROCURADOR JUSTICA BELO HORIZONTE - COMARCA; GABINETE DE PROCURADOR DE JUSTIÇA - SALA 307 0,00 0,00 8.810,89 0,00 0,00 0,00 549,21 9.720,99 19.081,09 908,85 1.727,78 0,00 0,00 2.636,63 16.444,46 31/01/2024
913 620700 EMILY FONTANA DE SIQUEIRA ANALISTA DO MP BELO HORIZONTE - COMARCA; BH-18PJ VIOLENCIA DOMESTICA-SECRETARIA 12.343,61 1.234,36 0,00 0,00 0,00 0,00 0,00 3.729,58 17.307,55 1.945,30 2.261,89 0,00 0,00 4.207,19 13.100,36 31/01/2024
914 755400 EMMANUELLE PINHEIRO PAIVA QUINTAS ASSESSOR PROMOTOR JUSTICA SABARÁ - COMARCA; SABARA-PJ-03PJ 0,00 0,00 8.810,89 0,00 0,00 0,00 0,00 2.583,00 11.393,89 908,85 1.832,05 0,00 0,00 2.740,90 8.652,99 31/01/2024
915 297000 ENEIDA SOARES COSTA MELO ANALISTA DO MP PIUMHI - COMARCA; PIUMHI-PJ-01PJ 23.070,31 6.921,09 0,00 0,00 0,00 0,00 0,00 2.583,00 32.574,40 4.571,45 6.105,53 0,00 0,00 10.676,98 21.897,42 31/01/2024
916 276000 ENEZIO RODRIGUES DE SOUZA FILHO OFICIAL DO MP UBERLÂNDIA - COMARCA; UBERLANDIA-PJ-10PJ 12.343,61 4.937,44 0,00 0,00 0,00 0,00 0,00 2.583,00 19.864,05 2.537,79 3.169,44 0,00 0,00 5.707,23 14.156,82 31/01/2024
917 387700 ENI MARIA DOS REIS OFICIAL DO MP POUSO ALEGRE - COMARCA; POUSO ALEGRE-PJ-07PJ 12.343,61 3.703,08 0,00 0,00 0,00 0,00 0,00 8.359,81 24.406,50 2.340,29 2.884,30 0,00 0,00 5.224,59 19.181,91 31/01/2024
918 605100 ENIA MAIA ASSESSOR ADMINISTRATIVO IV BELO HORIZONTE - COMARCA; DIRETORIA DE ORCAMENTO-DIOR/SPC 14.488,22 2.897,64 0,00 0,00 0,00 0,00 1.209,09 8.841,91 27.436,86 1.214,11 3.894,77 0,00 0,00 5.108,88 22.327,98 31/01/2024
919 612200 ENILDO GOMES MEIRA FILHO ANALISTA DO MP BELO HORIZONTE - COMARCA; BH-23PJ INFRACIONAL-ASS JURIDICA 12.343,61 1.234,36 0,00 0,00 0,00 0,00 3.491,48 9.703,89 26.773,34 2.503,93 2.964,15 0,00 0,00 5.468,08 21.305,26 31/01/2024
920 553700 ENIVALDO NOVATO PUBLIO ANALISTA DO MP DIVINÓPOLIS - COMARCA; DIVINOPOLIS-PJ-09PJ 12.343,61 2.468,72 0,00 0,00 0,00 0,00 0,00 2.583,00 17.395,33 2.142,79 2.547,03 0,00 0,00 4.689,82 12.705,51 31/01/2024
921 680600 ENZO JOSE FERES SOUZA JABER ASSESSOR PROMOTOR JUSTICA ARAÇUAÍ - COMARCA; ARACUAI-PJ-02PJ 0,00 0,00 8.810,89 0,00 0,00 0,00 0,00 2.583,00 11.393,89 908,85 1.832,05 0,00 0,00 2.740,90 8.652,99 31/01/2024
922 417300 ERIC BARATTI DA SILVA ANALISTA DO MP BELO HORIZONTE - COMARCA; SUPER DE GESTAO DE PESSOAS-LOTACAO TEMPORARIA 13.588,97 2.717,79 0,00 0,00 0,00 0,00 0,00 3.729,58 20.036,34 2.381,90 2.944,38 0,00 0,00 5.326,28 14.710,06 31/01/2024
923 637600 ERIC DA ROCHA CHEHUEN ANALISTA DO MP LIMA DUARTE - COMARCA; LIMA DUARTE-PJ-UNPJ 11.577,56 1.157,76 0,00 0,00 0,00 0,00 0,00 2.583,00 15.318,32 1.018,60 2.337,14 0,00 0,00 3.355,74 11.962,58 31/01/2024
924 398900 ERIC TEIXEIRA SILVA OFICIAL DO MP UBERLÂNDIA - COMARCA; UBERLANDIA-PJ-SEC CIVEIS CRIMINAIS 12.343,61 3.703,08 0,00 0,00 0,00 0,00 0,00 2.583,00 18.629,69 2.340,29 2.884,30 0,00 0,00 5.224,59 13.405,10 31/01/2024
925 751300 ERIC VINICIUS PONTES ALLGAYER OFICIAL DO MP RIO VERMELHO - COMARCA; RIO VERMELHO-PJ-UNPJ 4.570,25 0,00 0,00 0,00 0,00 0,00 0,00 2.583,00 7.153,25 544,12 254,15 0,00 0,00 798,27 6.354,98 31/01/2024
926 754300 ERICA APARECIDA FERREIRA OFICIAL DO MP BARÃO DE COCAIS - COMARCA; BARAO DE COCAIS-PJ-UNPJ 4.570,25 0,00 0,00 0,00 0,00 0,00 0,00 2.649,06 7.219,31 544,12 254,15 0,00 0,00 798,27 6.421,04 31/01/2024
927 703600 ERICA CORDEIRO SANTOS ASSESSOR PROMOTOR JUSTICA MINAS NOVAS - COMARCA; MINAS NOVAS-PJ-UNPJ 0,00 0,00 8.810,89 0,00 2.936,96 0,00 549,21 8.574,41 20.871,47 908,85 2.639,72 0,00 0,00 3.548,57 17.322,90 31/01/2024
928 274200 ERICA DE SOUZA ANDRADE OFICIAL DO MP CURVELO - COMARCA; CURVELO-PJ-03PJ 15.447,01 6.178,80 0,00 0,00 0,00 0,00 0,00 8.638,23 30.264,04 3.232,95 4.120,94 0,00 0,00 7.353,89 22.910,15 31/01/2024
929 225700 ERICA GOMES DO COUTO OFICIAL DO MP BELO HORIZONTE - COMARCA; BH-21PJ TUTELA FUNDACOES-SECRETARIA 20.533,67 8.213,47 0,00 0,00 0,00 0,00 0,00 3.729,58 32.476,72 4.372,36 5.818,10 0,00 0,00 10.190,46 22.286,26 31/01/2024
930 632600 ERICA LEONOR MARTINS OFICIAL DO MP RESENDE COSTA - COMARCA; RESENDE COSTA-PJ-UNPJ 7.506,70 750,67 0,00 0,00 0,00 0,00 0,00 7.537,42 15.794,79 1.094,00 1.084,97 0,00 0,00 2.178,97 13.615,82 31/01/2024
931 524800 ERICA MACHADO DA COSTA E SOUZA ANALISTA DO MP BELO HORIZONTE - COMARCA; ASSESS TECNICO-JUR JUNTO AS PROC. DE JUST 14.960,00 2.992,00 0,00 0,00 0,00 0,00 0,00 8.327,64 26.279,64 2.645,14 3.324,43 0,00 0,00 5.969,57 20.310,07 31/01/2024
932 249500 ERICA RODRIGUES ANDRADE OFICIAL DO MP SÃO FRANCISCO - COMARCA; SAO FRANCISCO-PJ-02PJ 12.343,61 4.937,44 0,00 0,00 0,00 0,00 0,00 8.804,18 26.085,23 2.537,79 3.117,30 0,00 0,00 5.655,09 20.430,14 31/01/2024
933 260800 ERICA VIANA GIARDINI DE OLIVEIRA OFICIAL DO MP BELO HORIZONTE - COMARCA; DIRETORIA GESTAO COMPRAS LICITACOES 13.588,97 5.435,59 4.940,75 0,00 0,00 0,00 0,00 2.583,00 26.548,31 2.816,75 4.930,89 0,00 0,00 7.747,64 18.800,67 31/01/2024
934 299800 ERICH DOUGLAS RIBEIRO GARCIA ANALISTA DO MP BELO HORIZONTE - COMARCA; CENTRAL DE APOIO TECNICO-SETOR CONTABIL 23.070,31 6.921,09 0,00 0,00 0,00 0,00 0,00 8.581,28 38.572,68 4.571,45 6.105,53 0,00 0,00 10.676,98 27.895,70 31/01/2024
935 365000 ERICK EDUARDO JOSE DA SILVA OFICIAL DO MP JUIZ DE FORA - COMARCA; JUIZ DE FORA-PJ-12PJ 7.506,70 2.252,01 0,00 0,00 0,00 0,00 0,00 8.828,57 18.587,28 1.334,22 1.431,77 0,00 0,00 2.765,99 15.821,29 31/01/2024
936 227400 ERIKA DE LAET GOULART BOECHAT OFICIAL DO MP BELO HORIZONTE - COMARCA; BH-17PJ PATRIMONIO PUBLICO-SECRETARIA 20.533,67 8.213,47 0,00 0,00 0,00 0,00 0,00 2.583,00 31.330,14 4.372,36 5.765,97 0,00 0,00 10.138,33 21.191,81 31/01/2024
937 681301 ERIKA FERNANDA ELISEU FERREIRA ASSESSOR PROCURADOR JUSTICA BELO HORIZONTE - COMARCA; GABINETE DE PROCURADOR DE JUSTIÇA - SALA 411 0,00 0,00 8.810,89 0,00 0,00 0,00 0,00 8.574,41 17.385,30 908,85 1.832,05 0,00 0,00 2.740,90 14.644,40 31/01/2024
938 285100 ERIKA FERREIRA DA SILVA OFICIAL DO MP JUIZ DE FORA - COMARCA; JUIZ DE FORA-PJ-11PJ 12.343,61 4.937,44 0,00 0,00 0,00 0,00 0,00 8.804,18 26.085,23 2.537,79 3.169,44 0,00 0,00 5.707,23 20.378,00 31/01/2024
939 420100 ERIKA JEANINE VERSIANI DE CASTRO ANALISTA DO MP BELO HORIZONTE - COMARCA; CAO-EDUCACAO 18.720,84 5.616,25 0,00 0,00 0,00 0,00 0,00 8.423,90 32.760,99 3.666,76 4.799,38 0,00 0,00 8.466,14 24.294,85 31/01/2024
940 677100 ERIKA LAYS CARDOSO FERNANDES ASSESSOR PROMOTOR JUSTICA GRAO MOGOL - COMARCA; GRAO MOGOL-PJ-UNPJ 0,00 0,00 8.810,89 0,00 0,00 0,00 0,00 6.107,36 14.918,25 908,85 1.832,05 0,00 0,00 2.740,90 12.177,35 31/01/2024
941 606900 ERIKA MARIA BARBOSA ANALISTA DO MP BELO HORIZONTE - COMARCA; CAO-SAUDE 11.954,43 2.390,89 0,00 1.195,44 398,48 0,00 1.449,67 5.356,42 22.745,33 2.259,34 2.715,29 0,00 191,27 5.165,90 17.579,43 31/01/2024
942 491000 ERIKA ROCHA PEREIRA E SILVA COORDENADOR II BELO HORIZONTE - COMARCA; DIR GOVERNANCA TECNOLOGIA INFORMACAO 20.533,67 4.106,73 0,00 0,00 0,00 0,00 0,00 8.496,70 33.137,10 2.381,90 5.236,13 0,00 0,00 7.618,03 25.519,07 31/01/2024
943 283201 ERIKA STEHLING COORDENADOR I BELO HORIZONTE - COMARCA; CENTRAL DE APOIO TECNICO-SETOR DE ENGENHARIA 16.469,17 4.940,75 0,00 0,00 0,00 0,00 0,00 2.583,00 23.992,92 2.340,29 4.359,19 0,00 0,00 6.699,48 17.293,44 31/01/2024
944 254000 ERLANDIA DA SILVA MENDES OFICIAL DO MP IPATINGA - COMARCA; IPATINGA-PJ-03PJ 18.130,77 9.065,39 0,00 0,00 0,00 4.124,21 0,00 7.594,27 38.914,64 4.124,21 6.437,57 0,00 0,00 10.561,78 28.352,86 31/01/2024
945 348500 ERNILANDIA DE OLIVEIRA DIAS OFICIAL DO MP MONTES CLAROS - COMARCA; MONTES CLAROS-PJ-16PJ 12.343,61 3.703,08 0,00 0,00 0,00 0,00 0,00 8.359,81 24.406,50 2.340,29 2.884,30 0,00 0,00 5.224,59 19.181,91 31/01/2024
946 199300 ERTON PORTINARI DE ANDRADE OFICIAL DO MP SETE LAGOAS - COMARCA; SETE LAGOAS-PJ-05PJ 21.346,53 10.673,27 0,00 0,00 0,00 0,00 0,00 7.706,17 39.725,97 4.895,99 6.108,13 0,00 0,00 11.004,12 28.721,85 31/01/2024
947 618800 ESLY DE CARLA AYALLA BARBOSA MENDES OFICIAL DO MP NOVA LIMA - COMARCA; NOVA LIMA-PJ-SECRETARIA 7.506,70 750,67 0,00 0,00 0,00 0,00 0,00 2.583,00 10.840,37 1.094,00 1.084,97 0,00 0,00 2.178,97 8.661,40 31/01/2024
948 537000 ESTANISLAU CORREIA ALMEIDA JUNIOR OFICIAL DO MP UBERLÂNDIA - COMARCA; UBERLANDIA-PJ-25PJ 7.506,70 1.501,34 0,00 0,00 0,00 0,00 462,41 7.627,50 17.097,95 1.214,11 1.258,37 0,00 0,00 2.472,48 14.625,47 31/01/2024
949 692100 ESTEFANIA FARIA FERREIRA ASSESSOR PROCURADOR JUSTICA BELO HORIZONTE - COMARCA; GABINETE DE PROCURADOR DE JUSTIÇA - SALA 814 0,00 0,00 8.810,89 0,00 0,00 0,00 0,00 9.016,11 17.827,00 908,85 1.832,05 0,00 0,00 2.740,90 15.086,10 31/01/2024
950 326900 ESTER ALICE PIMENTA OFICIAL DO MP BELO HORIZONTE - COMARCA; COORD DE INCLUSAO E MOBILIZACAO SOCIAIS 12.343,61 3.703,08 0,00 0,00 0,00 0,00 529,54 8.359,81 24.936,04 2.340,29 2.884,30 0,00 0,00 5.224,59 19.711,45 31/01/2024
951 503700 ESTHER GONCALVES FONSECA ANALISTA DO MP BELO HORIZONTE - COMARCA; DIR CRIACAO E MIDIAS 12.343,61 2.468,72 0,00 0,00 0,00 0,00 0,00 2.583,00 17.395,33 2.142,79 2.599,16 0,00 0,00 4.741,95 12.653,38 31/01/2024
952 475600 ETIENE DE FATIMA OLIVEIRA PEREIRA ANALISTA DO MP PATROCÍNIO - COMARCA; PATROCINIO-PJ-04PJ 12.343,61 2.468,72 0,00 0,00 0,00 0,00 0,00 8.507,93 23.320,26 1.018,60 2.697,77 0,00 0,00 3.716,37 19.603,89 31/01/2024
953 428800 EUGENIA RODRIGUES TRAJANO BORGES ANALISTA DO MP UBERABA - COMARCA; UBERABA-PJ-10PJ 18.130,77 3.626,15 0,00 0,00 0,00 0,00 319,10 7.210,69 29.286,71 3.253,93 4.203,36 0,00 0,00 7.457,29 21.829,42 31/01/2024
954 272700 EUGENIO DE BARCELOS FILHO OFICIAL DO MP FRUTAL - COMARCA; FRUTAL-PJ-SECRETARIA 12.343,61 4.937,44 0,00 0,00 0,00 0,00 0,00 2.583,00 19.864,05 2.537,79 3.169,44 0,00 0,00 5.707,23 14.156,82 31/01/2024
955 254100 EULALIA ALVES MIRANDA LUCAS OFICIAL DO MP ALMENARA - COMARCA; ALMENARA-PJ-02PJ 17.559,01 8.779,51 0,00 0,00 0,00 0,00 482,87 7.850,70 34.672,09 3.986,98 5.157,44 0,00 0,00 9.144,42 25.527,67 31/01/2024
956 641200 EUNICE ELVIRA DA SILVA MATOS OFICIAL DO MP BELO HORIZONTE - COMARCA; BH-14PJ DEFESA CONSUMIDOR-SECRETARIA 6.818,83 681,88 0,00 0,00 0,00 0,00 550,05 8.583,57 16.634,33 974,36 909,79 0,00 0,00 1.884,15 14.750,18 31/01/2024
957 557900 EURIPEDES JOSUE PERES OFICIAL DO MP IBIÁ - COMARCA; IBIA-PJ-UNPJ 7.506,70 1.501,34 0,00 0,00 0,00 0,00 0,00 2.583,00 11.591,04 1.214,11 1.258,37 0,00 0,00 2.472,48 9.118,56 31/01/2024
958 225800 EURO CESAR VIEIRA BARBOSA ANALISTA DO MP BELO HORIZONTE - COMARCA; BH-17PJ PATRIMONIO PUBLICO-SECRETARIA 23.070,31 9.228,12 0,00 0,00 0,00 0,00 0,00 7.750,75 40.049,18 4.940,57 6.534,18 0,00 0,00 11.474,75 28.574,43 31/01/2024
959 199400 EUSTAQUIO ADAILTON LIMA E SILVA OFICIAL DO MP MONTES CLAROS - COMARCA; MONTES CLAROS-PJ-15PJ 21.346,53 14.942,57 0,00 0,00 0,00 0,00 0,00 8.389,26 44.678,36 5.579,08 7.403,88 0,00 0,00 12.982,96 31.695,40 31/01/2024
960 548000 EVA VILMA LEAO REIS JULIO OFICIAL DO MP BELO HORIZONTE - COMARCA; BH-07PJ 01 TRIBUNAL JURI-SECRETARIA 7.506,70 3.002,68 0,00 0,00 0,00 0,00 0,00 2.583,00 13.092,38 1.454,32 1.605,18 0,00 0,00 3.059,50 10.032,88 31/01/2024
961 517000 EVALDO SENA COSTA FILHO ANALISTA DO MP BELO HORIZONTE - COMARCA; BH-08PJ JUIZADO ESPECIAL-GAB 067PJ 12.343,61 4.937,44 0,00 0,00 0,00 0,00 0,00 8.804,18 26.085,23 2.537,79 3.065,16 0,00 0,00 5.602,95 20.482,28 31/01/2024
962 217500 EVELANGE LEAO RABELO ASSESSOR ADMINISTRATIVO II BELO HORIZONTE - COMARCA; CAO-PESSOAS IDOSAS E PESSOAS COM DEFICIENCIA 0,00 3.002,68 7.506,70 0,00 0,00 0,00 0,00 6.786,75 17.296,13 908,85 2.299,14 0,00 0,00 3.207,99 14.088,14 31/01/2024
963 679600 EVERTON BARBOSA DA SILVA ASSESSOR PROCURADOR JUSTICA BELO HORIZONTE - COMARCA; GABINETE DE PROCURADOR DE JUSTIÇA - SALA 510 0,00 0,00 8.810,89 0,00 0,00 0,00 0,00 2.583,00 11.393,89 908,85 1.832,05 0,00 0,00 2.740,90 8.652,99 31/01/2024
964 540400 EVIE SARAMELLA DE RESENDE OFICIAL DO MP BARBACENA - COMARCA; BARBACENA-PJ-08PJ 7.506,70 1.501,34 0,00 0,00 0,00 0,00 0,00 2.583,00 11.591,04 1.214,11 1.258,37 0,00 0,00 2.472,48 9.118,56 31/01/2024
965 469000 EWERTON CARDOSO DE SA RODRIGUES ANALISTA DO MP CAMPO BELO - COMARCA; CAMPO BELO-PJ-02PJ 12.343,61 2.468,72 0,00 0,00 0,00 0,00 0,00 8.507,93 23.320,26 2.142,79 2.494,89 0,00 0,00 4.637,68 18.682,58 31/01/2024
966 368900 FABIANA BARBOSA SIQUEIRA OFICIAL DO MP BELO HORIZONTE - COMARCA; CAO-ORDEM ECONOMICA E TRIBUTARIA-SECRETARIA 14.960,00 4.488,00 0,00 0,00 0,00 0,00 0,00 8.806,36 28.254,36 2.884,50 3.617,87 0,00 0,00 6.502,37 21.751,99 31/01/2024
967 273800 FABIANA CARNEIRO AMORIM OFICIAL DO MP BELO HORIZONTE - COMARCA; BH-23PJ CIVEL-COORD ADM CIVEL 15.949,86 6.379,94 4.346,47 0,00 0,00 0,00 0,00 7.918,25 34.594,52 3.345,59 5.478,84 0,00 0,00 8.824,43 25.770,09 31/01/2024
968 519300 FABIANA DE OLIVEIRA LOUREIRO ANALISTA DO MP BELO HORIZONTE - COMARCA; BH-09PJ AUDITORIA MILITAR-GAB 002PJ 12.343,61 2.468,72 0,00 0,00 0,00 0,00 0,00 8.507,93 23.320,26 2.142,79 2.599,16 0,00 0,00 4.741,95 18.578,31 31/01/2024
969 363400 FABIANA DOURADO DUPIN VIEGAS ANALISTA DO MP BELO HORIZONTE - COMARCA; GABINETE DE PROCURADOR DE JUSTIÇA - SALA 705 22.191,68 6.657,50 0,00 0,00 9.616,39 0,00 0,00 2.583,00 41.048,57 4.388,69 8.434,04 0,00 0,00 12.822,73 28.225,84 31/01/2024
970 410800 FABIANA DUARTE QUITITE ANALISTA DO MP BELO HORIZONTE - COMARCA; BH-15PJ M AMB PAT HIST CULT-GAB 116PJ 18.720,84 5.616,25 0,00 0,00 0,00 0,00 0,00 2.583,00 26.920,09 3.666,76 4.799,38 0,00 0,00 8.466,14 18.453,95 31/01/2024
971 419500 FABIANA EULALIA DOS SANTOS ANALISTA DO MP SÃO JOÃO DEL REI - COMARCA; SAO JOAO DEL REI-PJ-01PJ 18.720,84 5.616,25 0,00 0,00 0,00 0,00 0,00 8.423,90 32.760,99 3.666,76 4.799,38 0,00 0,00 8.466,14 24.294,85 31/01/2024
972 725200 FABIANA LOPES DE JESUS ASSESSOR PROMOTOR JUSTICA CONTAGEM - COMARCA; CONTAGEM-PJ-01PJ 0,00 0,00 8.810,89 0,00 0,00 0,00 549,21 8.574,41 17.934,51 908,85 1.832,05 0,00 0,00 2.740,90 15.193,61 31/01/2024
973 700300 FABIANA MARCIA DE SOUZA ASSESSOR ADMINISTRATIVO II BELO HORIZONTE - COMARCA; DIRET DE CONTROLE E DE MANUTENCAO DE IMOVEIS 0,00 0,00 7.506,70 0,00 0,00 0,00 0,00 8.588,36 16.095,06 908,85 1.473,40 0,00 0,00 2.382,25 13.712,81 31/01/2024
974 331500 FABIANA PACHECO OFICIAL DO MP GUAXUPÉ - COMARCA; GUAXUPE-PJ-01PJ 12.343,61 3.703,08 0,00 0,00 0,00 0,00 0,00 3.729,58 19.776,27 2.340,29 2.780,03 0,00 0,00 5.120,32 14.655,95 31/01/2024
975 510700 FABIANA PEREIRA SANTOS BORGES ANALISTA DO MP BELO HORIZONTE - COMARCA; DIRETORIA DE SISTEMAS DE INFORMACAO 12.343,61 2.468,72 5.538,92 0,00 0,00 0,00 0,00 8.281,35 28.632,60 2.142,79 4.070,23 0,00 0,00 6.213,02 22.419,58 31/01/2024
976 749400 FABIANA SANTOS DE OLIVEIRA CARVALHO ASSESSOR ADMINISTRATIVO I BELO HORIZONTE - COMARCA; CAO-CRIANCAS E ADOLESCENTES-ASS TECNICA 0,00 0,00 4.872,71 0,00 0,00 0,00 0,00 2.583,00 7.455,71 777,91 785,06 0,00 0,00 1.562,97 5.892,74 31/01/2024
977 181700 FABIANA SOUZA FERREIRA OFICIAL DO MP BELO HORIZONTE - COMARCA; BH-19PJ SAUDE-SECRETARIA 150PJ 7.506,70 3.002,68 0,00 0,00 0,00 0,00 0,00 2.583,00 13.092,38 1.454,32 1.500,91 0,00 0,00 2.955,23 10.137,15 31/01/2024
978 272900 FABIANA STOCKLER LEITE OFICIAL DO MP LAJINHA - COMARCA; LAJINHA-PJ-SECRETARIA 12.343,61 6.171,81 0,00 0,00 0,00 0,00 0,00 8.507,93 27.023,35 2.735,29 3.402,44 0,00 0,00 6.137,73 20.885,62 31/01/2024
979 225500 FABIANE DE FATIMA PORTELLA ANALISTA DO MP BELO HORIZONTE - COMARCA; BH-18PJ DIREITOS HUMANOS-SECRETARIA 23.070,31 9.228,12 0,00 0,00 0,00 0,00 0,00 2.583,00 34.881,43 4.940,57 6.638,45 0,00 0,00 11.579,02 23.302,41 31/01/2024
980 433800 FABIANE DINIZ MATTOS ANALISTA DO MP BELO HORIZONTE - COMARCA; BH-23PJ INFRACIONAL-ASS JURIDICA 18.720,84 3.744,17 0,00 0,00 0,00 0,00 4.621,37 4.876,16 31.962,54 4.106,64 5.434,47 0,00 0,00 9.541,11 22.421,43 31/01/2024
981 455000 FABIANO CARVALHO DA SILVA ANALISTA DO MP LAVRAS - COMARCA; LAVRAS-PJ-05PJ 12.343,61 2.468,72 0,00 0,00 0,00 0,00 0,00 8.507,93 23.320,26 2.142,79 2.599,16 0,00 0,00 4.741,95 18.578,31 31/01/2024
982 498800 FABIANO FURTADO PESSOA COELHO ANALISTA DO MP BELO HORIZONTE - COMARCA; DIRETORIA DE REDES E BANCOS DE DADOS 12.343,61 2.468,72 0,00 0,00 0,00 0,00 0,00 2.583,00 17.395,33 2.142,79 2.494,89 0,00 0,00 4.637,68 12.757,65 31/01/2024
983 663000 FABIANO MARQUES CORREA ASSESSOR ADMINISTRATIVO II BELO HORIZONTE - COMARCA; DIRETORIA DE SUPORTE E MANUTENCAO 0,00 0,00 7.506,70 0,00 0,00 0,00 0,00 2.583,00 10.089,70 908,85 1.473,40 0,00 0,00 2.382,25 7.707,45 31/01/2024
984 394600 FABIANO PALHARES SILVA ANALISTA DO MP BELO HORIZONTE - COMARCA; CENTRAL DE APOIO TECN-SETOR DE MEIO AMBIENTE 20.533,67 6.160,10 0,00 0,00 0,00 0,00 0,00 2.583,00 29.276,77 4.043,82 5.291,64 0,00 0,00 9.335,46 19.941,31 31/01/2024
985 676600 FABIANO RESENDE VELOSO ASSESSOR PROCURADOR JUSTICA BELO HORIZONTE - COMARCA; GABINETE DE PROCURADOR DE JUSTIÇA - SALA 1002 0,00 0,00 8.810,89 0,00 0,00 0,00 0,00 2.583,00 11.393,89 908,85 1.832,05 0,00 0,00 2.740,90 8.652,99 31/01/2024
986 444400 FABIANO SARAIVA MEDEIROS ANALISTA DO MP BETIM - COMARCA; BETIM-PJ-11PJ 18.130,77 3.626,15 0,00 0,00 0,00 0,00 0,00 8.674,94 30.431,86 3.253,93 4.099,09 0,00 0,00 7.353,02 23.078,84 31/01/2024
987 408700 FABIANO SOARES PORTILHO ANALISTA DO MP JUIZ DE FORA - COMARCA; GAECO REGIONAL DA ZONA DA MATA-JUIZ DE FORA 18.720,84 5.616,25 0,00 0,00 0,00 0,00 0,00 8.423,90 32.760,99 3.666,76 4.799,38 0,00 0,00 8.466,14 24.294,85 31/01/2024
988 442600 FABIO CARVALHO VIEIRA ANALISTA DO MP MONTES CLAROS - COMARCA; MONTES CLAROS-PJ-06PJ 12.343,61 2.468,72 0,00 0,00 0,00 0,00 0,00 8.507,93 23.320,26 2.142,79 2.599,16 0,00 0,00 4.741,95 18.578,31 31/01/2024
989 716601 FABIO DAMASCENA MONTEIRO DE CARVALHO OFICIAL DO MP JACINTO - COMARCA; JACINTO-PJ-UNPJ 4.570,25 0,00 0,00 0,00 0,00 0,00 0,00 2.583,00 7.153,25 544,12 254,15 0,00 0,00 798,27 6.354,98 31/01/2024
990 702700 FABIO JUNIOR COSTA BARREIROS ASSESSOR ADMINISTRATIVO II BELO HORIZONTE - COMARCA; DIVISAO DE MANUTENCAO PREDIAL 0,00 0,00 7.506,70 0,00 0,00 0,00 0,00 8.588,36 16.095,06 908,85 1.027,97 0,00 0,00 1.936,82 14.158,24 31/01/2024
991 240101 FABIO JUNQUEIRA DE ASSIS FONSECA OFICIAL DO MP BELO HORIZONTE - COMARCA; BH-17PJ PATRIMONIO PUBLICO-SECRETARIA 10.341,72 3.102,52 0,00 0,00 0,00 0,00 0,00 2.583,00 16.027,24 1.923,90 2.283,13 0,00 0,00 4.207,03 11.820,21 31/01/2024
992 271500 FABIO LUIZ VIEIRA OFICIAL DO MP SANTA VITÓRIA - COMARCA; SANTA VITORIA-PJ-UNPJ 12.343,61 4.937,44 0,00 0,00 0,00 0,00 0,00 8.804,18 26.085,23 2.537,79 3.117,30 0,00 0,00 5.655,09 20.430,14 31/01/2024
993 213100 FABIO PRATES GONCALVES ASSESSOR ADMINISTRATIVO IV BELO HORIZONTE - COMARCA; DIR RELACOES INSTITUCIONAIS 0,00 5.795,29 14.488,22 0,00 0,00 0,00 0,00 2.583,00 22.866,51 908,85 4.830,61 0,00 0,00 5.739,46 17.127,05 31/01/2024
994 436700 FABIO SANTIAGO DE CARVALHO OFICIAL DO MP POÇO FUNDO - COMARCA; POCO FUNDO-PJ-UNPJ 12.343,61 2.468,72 0,00 0,00 0,00 0,00 0,00 8.507,93 23.320,26 2.142,79 2.599,16 0,00 0,00 4.741,95 18.578,31 31/01/2024
995 208400 FABIOLA DE SOUSA CARDOSO ANALISTA DO MP BELO HORIZONTE - COMARCA; CGMP-DIR ESTAGIO PROBATORIO E ORIENT 23.070,31 9.228,12 6.160,10 0,00 0,00 0,00 0,00 8.597,39 47.055,92 4.940,57 8.014,00 868,57 0,00 13.823,14 33.232,78 31/01/2024
996 392200 FABIOLA LEROY COSTA ANALISTA DO MP ESMERALDAS - COMARCA; ESMERALDAS-PJ-01PJ 12.343,61 3.703,08 0,00 0,00 0,00 0,00 0,00 4.876,16 20.922,85 2.340,29 2.884,30 0,00 0,00 5.224,59 15.698,26 31/01/2024
997 409000 FABIOLA MONTEIRO DE CARVALHO CASTRO ANALISTA DO MP BOM SUCESSO - COMARCA; BOM SUCESSO-PJ-UNPJ 15.949,86 4.784,96 0,00 0,00 0,00 0,00 532,19 8.388,75 29.655,76 3.090,39 3.967,26 0,00 0,00 7.057,65 22.598,11 31/01/2024
998 525800 FABRICIA ALVES DANTAS OFICIAL DO MP MONTES CLAROS - COMARCA; MONTES CLAROS-PJ-01PJ 10.516,49 2.103,30 0,00 0,00 0,00 0,00 0,00 8.640,50 21.260,29 1.791,99 2.040,55 0,00 0,00 3.832,54 17.427,75 31/01/2024
999 263400 FABRICIA PINTO TEIXEIRA SANTIAGO OFICIAL DO MP BELO HORIZONTE - COMARCA; CAO-FUNDACOES-SECRETARIA 18.130,77 7.252,31 0,00 0,00 0,00 0,00 0,00 8.674,94 34.058,02 3.834,11 4.936,73 0,00 0,00 8.770,84 25.287,18 31/01/2024
1000 420800 FABRICIO BERNARDES DE OLIVEIRA OFICIAL DO MP ITURAMA - COMARCA; ITURAMA-PJ-02PJ 12.343,61 3.703,08 0,00 0,00 0,00 0,00 0,00 9.506,39 25.553,08 2.340,29 2.832,16 0,00 0,00 5.172,45 20.380,63 31/01/2024
1001 474000 FABRICIO DE FREITAS SALES ANALISTA DO MP MONTES CLAROS - COMARCA; COORD REG DEF ORDEM ECON TRIB MONTES CLAROS 12.343,61 2.468,72 0,00 0,00 0,00 0,00 0,00 8.507,93 23.320,26 2.142,79 2.599,16 0,00 0,00 4.741,95 18.578,31 31/01/2024
1002 510100 FABRICIO FURTADO ASSIS DO CARMO ANALISTA DO MP BELO HORIZONTE - COMARCA; SERVICO MEDICO-DEPTO PERIC MEDICA SAUDE OCUP 12.343,61 2.468,72 0,00 0,00 0,00 0,00 1.181,10 4.876,16 20.869,59 2.142,79 2.923,97 0,00 0,00 5.066,76 15.802,83 31/01/2024
1003 519600 FABRICIO GONTIJO SALVATI ANALISTA DO MP BELO HORIZONTE - COMARCA; CENTRAL DE APOIO TECNICO-SETOR CONTABIL 12.343,61 2.468,72 0,00 0,00 0,00 0,00 0,00 2.583,00 17.395,33 2.142,79 2.599,16 0,00 0,00 4.741,95 12.653,38 31/01/2024
1004 637400 FABRICIO HENRIQUE DA SILVA PASSOS ANALISTA DO MP BELO HORIZONTE - COMARCA; DIR CRIACAO E MIDIAS 12.343,61 1.234,36 4.020,58 0,00 0,00 0,00 0,00 2.583,00 20.181,55 1.945,30 3.419,68 0,00 0,00 5.364,98 14.816,57 31/01/2024
1005 428200 FABRICIO ORZIL VIANA ANALISTA DO MP SANTA LUZIA - COMARCA; SANTA LUZIA-PJ-04PJ 12.343,61 2.468,72 0,00 0,00 0,00 0,00 0,00 9.654,51 24.466,84 2.142,79 2.599,16 0,00 0,00 4.741,95 19.724,89 31/01/2024
1006 455600 FABRICIO PAIVA DA ROCHA ANALISTA DO MP SÃO JOÃO DEL REI - COMARCA; SAO JOAO DEL REI-PJ-06PJ 12.343,61 2.468,72 0,00 0,00 0,00 0,00 0,00 9.654,51 24.466,84 2.142,79 2.547,03 0,00 0,00 4.689,82 19.777,02 31/01/2024
1007 511500 FABRICIO RENE CARDOSO DE PADUA ANALISTA DO MP SÃO SEBASTIÃO DO PARAÍSO - COMARCA; SAO SEBASTIAO DO PARAISO-PJ-03PJ 12.343,61 2.468,72 0,00 0,00 0,00 0,00 543,12 8.507,93 23.863,38 2.142,79 2.599,16 0,00 0,00 4.741,95 19.121,43 31/01/2024
1008 496100 FABRICIO RESENDE GONCALVES OFICIAL DO MP ENTRE-RIOS DE MINAS - COMARCA; ENTRE RIOS DE MINAS-PJ-UNPJ 10.516,49 2.103,30 0,00 0,00 0,00 0,00 0,00 7.630,92 20.250,71 1.791,99 2.092,69 0,00 0,00 3.884,68 16.366,03 31/01/2024
1009 650300 FABRICIO ROBERTO AZEVEDO OFICIAL DO MP NOVA SERRANA - COMARCA; NOVA SERRANA-PJ-04PJ 7.270,07 727,01 0,00 0,00 0,00 0,00 0,00 2.583,00 10.580,08 1.052,35 1.024,84 0,00 0,00 2.077,19 8.502,89 31/01/2024
1010 514900 FADUA MARIA DRUMOND CHEQUER ANALISTA DO MP BETIM - COMARCA; BETIM-PJ-12PJ 12.343,61 2.468,72 0,00 0,00 0,00 0,00 0,00 2.583,00 17.395,33 2.142,79 2.494,89 0,00 0,00 4.637,68 12.757,65 31/01/2024
1011 282500 FANNY FERREIRA MELO OFICIAL DO MP ARAXÁ - COMARCA; ARAXA-PJ-03PJ 13.588,97 5.435,59 0,00 0,00 0,00 0,00 558,05 8.670,86 28.253,47 2.816,75 3.572,19 0,00 0,00 6.388,94 21.864,53 31/01/2024
1012 692500 FARID JUNIOR NUNES DA SILVA ASSESSOR PROCURADOR JUSTICA BELO HORIZONTE - COMARCA; GABINETE DE PROCURADOR DE JUSTIÇA - SALA 912 0,00 0,00 8.810,89 0,00 0,00 0,00 0,00 8.574,41 17.385,30 908,85 1.727,78 0,00 0,00 2.636,63 14.748,67 31/01/2024
1013 744000 FARLEY LOPES DE ALCANTARA OFICIAL DO MP RIBEIRÃO DAS NEVES - COMARCA; RIBEIRAO DAS NEVES-PJ-SEC CIVEL 4.570,25 0,00 0,00 0,00 0,00 0,00 0,00 3.729,58 8.299,83 544,12 254,15 0,00 0,00 798,27 7.501,56 31/01/2024
1014 382800 FATIMA DE OLIVEIRA COELHO E SILVA OFICIAL DO MP BELO HORIZONTE - COMARCA; DIRETORIA DE ADMINISTRACAO FINANCEIRA 12.343,61 4.937,44 4.020,58 0,00 0,00 0,00 0,00 8.547,46 29.849,09 2.537,79 4.222,96 0,00 0,00 6.760,75 23.088,34 31/01/2024
1015 398601 FELIPE ANTONIO HORTA DE PAULA ANALISTA DO MP BELO HORIZONTE - COMARCA; PROC. JUSTICA DIR. DIFUSOS E COLETIVOS-SEC 12.343,61 3.209,34 0,00 0,00 0,00 0,00 0,00 8.804,18 24.357,13 2.261,29 2.770,25 0,00 0,00 5.031,54 19.325,59 31/01/2024
1016 430900 FELIPE BOY VIEIRA ANALISTA DO MP BELO HORIZONTE - COMARCA; DIRETORIA DE SEGURANCA 17.559,01 3.511,80 6.160,10 0,00 0,00 0,00 0,00 2.583,00 29.813,91 1.018,60 5.922,37 0,00 0,00 6.940,97 22.872,94 31/01/2024
1017 631700 FELIPE DE MORAIS SIMOES COELHO ANALISTA DO MP BELO HORIZONTE - COMARCA; BH-18PJ VIOLENCIA DOMESTICA-SECRETARIA 11.577,56 1.157,76 0,00 0,00 0,00 0,00 0,00 2.583,00 15.318,32 1.810,47 2.119,37 0,00 0,00 3.929,84 11.388,48 31/01/2024
1018 549100 FELIPE FERNANDES ALVIM ANALISTA DO MP LAJINHA - COMARCA; LAJINHA-PJ-UNPJ 12.343,61 2.468,72 0,00 0,00 0,00 0,00 0,00 9.654,51 24.466,84 2.142,79 2.599,16 0,00 0,00 4.741,95 19.724,89 31/01/2024
1019 693100 FELIPE FROIS DO AMARAL ASSESSOR PROMOTOR JUSTICA RIBEIRÃO DAS NEVES - COMARCA; RIBEIRAO NEVES-SEC PJ EXECUCAO PENAL 0,00 0,00 8.810,89 0,00 0,00 0,00 0,00 8.574,41 17.385,30 908,85 1.779,91 0,00 0,00 2.688,76 14.696,54 31/01/2024
1020 620100 FELIPE GOMES DE AZEVEDO OFICIAL DO MP BELO HORIZONTE - COMARCA; DIVISAO DE SERVICOS 7.506,70 750,67 4.020,58 0,00 0,00 0,00 0,00 2.583,00 14.860,95 1.094,00 2.190,63 0,00 0,00 3.284,63 11.576,32 31/01/2024
1021 601600 FELIPE RODRIGUES DE SIQUEIRA ANALISTA DO MP BELO HORIZONTE - COMARCA; BH-02PJ FAMILIA-SECRETARIA 12.343,61 2.468,72 0,00 0,00 0,00 0,00 1.086,24 8.507,93 24.406,50 1.018,60 2.297,44 0,00 0,00 3.316,04 21.090,46 31/01/2024
1022 628900 FELIX FERNANDO JUNIO VIEIRA ANALISTA DO MP BELO HORIZONTE - COMARCA; BH-21PJ TUTELA DAS FUNDACOES-ASS CURADORES 12.343,61 1.974,98 0,00 0,00 0,00 0,00 0,00 9.457,02 23.775,61 2.063,80 2.380,83 0,00 0,00 4.444,63 19.330,98 31/01/2024
1023 544500 FELLIPE LEMOS MARCONDES BUENO ANALISTA DO MP SÃO SEBASTIÃO DO PARAÍSO - COMARCA; SAO SEBASTIAO DO PARAISO-PJ-04PJ 12.343,61 2.468,72 0,00 0,00 0,00 0,00 543,12 8.507,93 23.863,38 2.142,79 2.599,16 0,00 0,00 4.741,95 19.121,43 31/01/2024
1024 688500 FELLIPE TADEU DE ANDRADE RAMOS ASSESSOR PROCURADOR JUSTICA BELO HORIZONTE - COMARCA; GABINETE DE PROCURADOR DE JUSTIÇA - SALA 907 0,00 0,00 8.810,89 0,00 0,00 0,00 0,00 2.583,00 11.393,89 908,85 1.832,05 0,00 0,00 2.740,90 8.652,99 31/01/2024
1025 612600 FERNANDA ADRIANA DE PAULA GUIDO ANALISTA DO MP BELO HORIZONTE - COMARCA; CENT ESTAD COOPERACAO TECNICO-JURIDICA 12.343,61 1.234,36 0,00 0,00 0,00 0,00 0,00 9.703,89 23.281,86 1.945,30 2.314,02 0,00 0,00 4.259,32 19.022,54 31/01/2024
1026 508400 FERNANDA AGANETTI MATTOS DE OLIVEIRA ANALISTA DO MP BELO HORIZONTE - COMARCA; CENT ESTAD COOPERACAO TECNICO-JURIDICA 12.343,61 2.468,72 0,00 0,00 0,00 0,00 0,00 4.876,16 19.688,49 1.018,60 2.908,32 0,00 0,00 3.926,92 15.761,57 31/01/2024
1027 453600 FERNANDA ALBERNAZ RABELO ANALISTA DO MP BELO HORIZONTE - COMARCA; GABINETE DE PROCURADOR DE JUSTIÇA - SALA 616 12.343,61 2.468,72 0,00 0,00 0,00 0,00 0,00 3.729,58 18.541,91 2.142,79 2.599,16 0,00 0,00 4.741,95 13.799,96 31/01/2024
1028 255600 FERNANDA ALINA DE ALMEIDA ANDRADE OFICIAL DO MP BELO HORIZONTE - COMARCA; DIRETORIA DE CONTABILIDADE 12.343,61 4.937,44 0,00 0,00 0,00 0,00 0,00 2.583,00 19.864,05 2.537,79 3.169,44 0,00 0,00 5.707,23 14.156,82 31/01/2024
1029 443200 FERNANDA ALMEIDA LOPES ANALISTA DO MP CONTAGEM - COMARCA; CONTAGEM-PJ-10PJ 18.130,77 3.626,15 0,00 0,00 0,00 0,00 0,00 9.821,52 31.578,44 3.253,93 4.099,09 0,00 0,00 7.353,02 24.225,42 31/01/2024
1030 281100 FERNANDA ANANIAS MEIRA ANALISTA DO MP BELO HORIZONTE - COMARCA; BH-23PJ INFRACIONAL-ASS JURIDICA 23.070,31 9.228,12 0,00 0,00 0,00 0,00 3.795,83 7.750,75 43.845,01 5.472,11 7.405,86 0,00 0,00 12.877,97 30.967,04 31/01/2024
1031 539000 FERNANDA BARBOSA ALVES ANALISTA DO MP UBERLÂNDIA - COMARCA; GAECO REGIONAL DE UBERLANDIA 12.343,61 2.468,72 0,00 0,00 0,00 0,00 0,00 3.729,58 18.541,91 2.142,79 2.599,16 0,00 0,00 4.741,95 13.799,96 31/01/2024
1032 451200 FERNANDA BLOISE PRADO OFICIAL DO MP BELO HORIZONTE - COMARCA; GAECO - SECRETARIA 11.577,56 2.315,51 0,00 0,00 0,00 0,00 0,00 2.583,00 16.476,07 1.995,71 2.386,81 0,00 0,00 4.382,52 12.093,55 31/01/2024
1033 427900 FERNANDA BRAGA CARNEIRO BICALHO ANALISTA DO MP PEÇANHA - COMARCA; PECANHA-PJ-02PJ 12.343,61 2.468,72 0,00 0,00 0,00 0,00 0,00 2.583,00 17.395,33 2.142,79 2.547,03 0,00 0,00 4.689,82 12.705,51 31/01/2024
1034 507100 FERNANDA CABRINI VAZ MOTA ANALISTA DO MP BELO HORIZONTE - COMARCA; DIVISAO DE MATERIAIS 12.343,61 2.468,72 4.020,58 0,00 0,00 0,00 862,46 10.902,69 30.598,06 1.018,60 3.714,51 0,00 0,00 4.733,11 25.864,95 31/01/2024
1035 259800 FERNANDA CALZAVARA DE SOUSA OFICIAL DO MP BELO HORIZONTE - COMARCA; DIRET DE INFORMACAO E CONHECIMENTO-DINC/CEAF 18.130,77 7.252,31 6.160,10 0,00 0,00 0,00 0,00 8.776,49 40.319,67 3.834,11 6.682,90 0,00 0,00 10.517,01 29.802,66 31/01/2024
1036 494400 FERNANDA CAMPOS BARATA OFICIAL DO MP JUIZ DE FORA - COMARCA; JUIZ DE FORA-PJ-08PJ 7.506,70 1.501,34 0,00 0,00 0,00 0,00 0,00 2.583,00 11.591,04 1.214,11 1.258,37 0,00 0,00 2.472,48 9.118,56 31/01/2024
1037 555600 FERNANDA CAROLINE RIBEIRO ANALISTA DO MP BELO HORIZONTE - COMARCA; DIRETORIA GESTAO CONTRATOS CONVENIOS 12.343,61 2.468,72 0,00 0,00 0,00 0,00 1.252,00 8.507,93 24.572,26 2.256,22 2.762,91 0,00 0,00 5.019,13 19.553,13 31/01/2024
1038 692000 FERNANDA CESAR SILVA ASSESSOR PROCURADOR JUSTICA BELO HORIZONTE - COMARCA; GABINETE DE PROCURADOR DE JUSTIÇA - SALA 809 0,00 0,00 8.810,89 0,00 0,00 0,00 0,00 2.583,00 11.393,89 908,85 1.832,05 0,00 0,00 2.740,90 8.652,99 31/01/2024
1039 294500 FERNANDA COSTA FLORES OFICIAL DO MP PARÁ DE MINAS - COMARCA; PARA DE MINAS-PJ-04PJ 13.588,97 4.076,69 0,00 0,00 0,00 0,00 0,00 8.236,01 25.901,67 2.599,33 3.258,28 0,00 0,00 5.857,61 20.044,06 31/01/2024
1040 344500 FERNANDA CRISTINA DE SOUZA PAZ ASSESSOR ADMINISTRATIVO II BELO HORIZONTE - COMARCA; CENTRAL DE APOIO TECN-SETOR DE MEIO AMBIENTE 0,00 0,00 7.506,70 0,00 0,00 0,00 0,00 2.583,00 10.089,70 908,85 1.369,12 0,00 0,00 2.277,97 7.811,73 31/01/2024
1041 538100 FERNANDA CRISTINA DOS SANTOS ROSA OFICIAL DO MP BELO HORIZONTE - COMARCA; DIVISAO DE TERCEIRIZACAO 7.506,70 3.002,68 0,00 0,00 0,00 0,00 0,00 2.583,00 13.092,38 1.454,32 1.605,18 0,00 0,00 3.059,50 10.032,88 31/01/2024
1042 337800 FERNANDA CRISTINA ROLAND CLIMACO MENDES OFICIAL DO MP BELO HORIZONTE - COMARCA; DIRETORIA DE PAGAMENTO DE PESSOAL-DPAG 15.949,86 4.784,96 6.160,10 0,00 0,00 0,00 0,00 7.961,98 34.856,90 3.090,39 5.661,29 0,00 0,00 8.751,68 26.105,22 31/01/2024
1043 545400 FERNANDA CUNHA GUIMARAES ANALISTA DO MP BELO HORIZONTE - COMARCA; BH-23PJ CIVEL-FISC AC POL PUB II 12.343,61 2.468,72 0,00 0,00 0,00 0,00 543,12 8.507,93 23.863,38 2.142,79 2.599,16 0,00 0,00 4.741,95 19.121,43 31/01/2024
1044 429801 FERNANDA CUNHA PINHEIRO DA SILVA ANALISTA DO MP BELO HORIZONTE - COMARCA; ASSESSORIA DE COMUNI